[[[{"header":{"parameterUnit":"kt","parameterCategory":2,"dx":1,"dy":1,"la1":29.285339999999998,"la2":30.599998999999997,"lo1":-89.70041500000002,"lo2":-87.6738589999976,"nx":112,"ny":82,"refTime":"2022-09-24T12:00:00:Z","depth":0,"parameterNumber":1,"parameterNumberName":"U-component_of_WINDS"},"data":[19.2729,19.4333,19.4386,19.3001,19.2212,0.0,19.1357,0.0,0.0,0.0,0.0,0.0,0.0,0.0,0.0,0.0,0.0,0.0,0.0,19.9217,19.9217,19.9217,19.9217,19.9414,20.0037,19.9803,19.9827,19.968,19.5753,19.6133,20.1973,19.3155,19.1518,19.9428,19.3685,19.1014,19.23,19.1747,19.2806,19.5523,19.8269,19.9417,19.9406,20.2127,20.1754,19.9221,19.9221,19.9221,19.9221,19.9221,19.9221,19.9221,19.9221,19.9221,19.9221,19.9221,19.9221,19.9221,19.9221,19.9221,19.9221,19.9221,19.9221,19.9221,19.9221,19.9221,19.9221,19.9221,19.9221,19.9221,19.9221,19.9221,19.9221,19.9221,19.9221,19.9221,19.9221,19.9221,19.9221,19.9221,19.9221,19.9441,19.9803,19.9861,19.9861,19.9861,20.0617,20.1199,20.156,20.2723,20.3886,20.4921,20.5282,20.5863,20.6841,20.6841,20.6841,20.6841,20.6841,20.6841,20.6841,20.6841,20.6841,20.6841,20.6841,20.6841,20.6841,20.8226,20.876,20.876,20.876,20.8401,19.0805,19.2606,19.2278,19.0831,0.0,0.0,0.0,0.0,0.0,0.0,0.0,0.0,0.0,0.0,0.0,0.0,0.0,0.0,0.0,19.8064,19.9217,19.9217,19.9217,19.9445,19.9808,20.1183,20.1585,20.1165,19.7842,19.8478,20.4295,19.4546,19.2789,20.1418,19.4599,19.1723,19.3466,19.2155,19.2849,19.5547,19.8295,20.0019,20.0974,20.2716,20.2538,20.0599,19.9611,19.9221,19.9221,19.9221,19.9221,19.9221,19.9221,19.9221,19.9221,19.9221,19.9221,19.9221,19.9221,19.9221,19.9221,19.9221,19.9221,19.9221,19.9221,19.9221,19.9221,19.9221,19.9221,19.9221,19.9221,19.9221,19.9221,19.9221,19.9221,19.9221,19.9221,19.9221,19.9221,19.9221,19.9221,19.9221,19.9221,19.9221,19.9221,19.9221,19.9815,20.0442,20.0442,20.1548,20.2548,20.3479,20.3944,20.47,20.6038,20.6259,20.6434,20.6841,20.6841,20.6841,20.6841,20.6841,20.6841,20.6841,20.6841,20.6841,20.6841,20.7608,20.8168,20.8168,20.8168,20.7597,18.6753,0.0,0.0,18.6557,0.0,0.0,0.0,0.0,18.8691,0.0,0.0,0.0,0.0,0.0,0.0,0.0,0.0,0.0,0.0,19.5763,19.9217,19.9217,19.9445,20.0069,20.1384,20.2733,20.4082,20.5497,20.1213,20.1376,20.7403,19.635,19.3976,20.2753,19.518,19.2278,19.4798,19.2666,19.1587,19.1718,19.4266,19.689,19.9626,19.9467,20.0794,20.3126,20.0404,19.9221,19.9221,19.9221,19.9221,19.9221,19.9221,19.9221,19.9221,19.9221,19.9221,19.9221,19.9221,19.9221,19.9221,19.9221,19.9221,19.9221,19.9221,19.9221,19.9221,19.9221,19.9221,19.9221,19.9221,19.9221,19.9221,19.9221,19.9221,19.9221,19.9221,19.9221,19.9221,19.9221,19.9221,19.9221,19.9221,19.9221,19.9221,19.9221,19.9221,19.9221,19.9221,20.021,20.1024,20.0978,20.2129,20.3304,20.47,20.4874,20.5456,20.6619,20.6841,20.6841,20.6841,20.6841,20.6841,20.6841,20.6841,20.6841,20.6841,20.6841,20.6841,20.6841,20.6841,20.6841,18.527,0.0,0.0,0.0,0.0,0.0,0.0,0.0,0.0,0.0,0.0,0.0,0.0,0.0,19.116,0.0,0.0,19.6714,19.553,19.8459,20.0826,20.0826,20.1779,20.2568,20.2897,20.51,20.5467,20.2555,20.2913,20.4123,20.5884,19.8483,19.7731,20.5451,19.825,19.4753,19.5758,19.4593,19.4596,19.5909,19.7707,19.9419,20.1034,20.1942,20.1736,20.0432,19.9637,19.9221,19.9221,19.9221,19.9221,19.9221,19.9221,19.9221,19.9221,19.9221,19.9221,19.9221,19.9221,19.9221,19.9221,19.9221,19.9221,19.9221,19.9221,19.9221,19.9221,19.9221,19.9221,19.9221,19.9221,19.9221,19.9221,19.9221,19.9221,19.9221,19.9221,19.9221,19.9221,19.9221,19.9221,19.9221,19.9221,19.9221,19.9221,19.9221,19.9221,19.9221,19.9221,19.9408,19.999,20.0966,20.1373,20.1967,20.3304,20.4293,20.5049,20.5503,20.627,20.6841,20.6841,20.6841,20.6841,20.6841,20.6841,20.6841,20.6841,20.6841,20.6841,20.6841,20.6841,20.6841,0.0,0.0,0.0,0.0,0.0,0.0,0.0,0.0,18.5899,0.0,0.0,0.0,0.0,0.0,0.0,0.0,19.3623,19.6351,19.3755,19.8459,20.237,20.237,20.293,20.3488,20.3488,20.3896,20.3917,20.3937,20.2388,20.3136,20.705,20.1762,20.1387,20.7177,20.1567,19.8277,19.7682,19.5764,19.5946,19.8469,19.9437,20.0816,20.2707,20.3349,20.2172,19.9409,19.9267,19.8872,19.8452,19.9092,19.9221,19.9221,19.9221,19.9221,19.9221,19.9221,19.9221,19.9221,19.9221,19.9221,19.9221,19.9221,19.9221,19.9221,19.9221,19.9221,19.9221,19.9221,19.9221,19.9221,19.9221,19.9221,19.9221,19.9221,19.9221,19.9221,19.9221,19.9221,19.9221,19.9221,19.9221,19.9221,19.9221,19.9221,19.9221,19.9221,19.9221,19.9221,19.9221,19.9221,19.9408,20.021,20.0222,20.0791,20.1967,20.2781,20.3479,20.4107,20.5282,20.6085,20.6085,20.6608,20.6841,20.6841,20.6841,20.6841,20.6841,20.6841,20.6841,20.6841,20.6841,20.6841,0.0,0.0,0.0,0.0,18.1719,0.0,0.0,0.0,18.4562,18.7908,0.0,18.8727,19.0639,0.0,0.0,18.5935,19.2212,19.5728,19.0335,19.7898,20.3883,20.3752,20.3883,20.3917,20.3917,20.1569,20.1775,20.6447,20.1008,20.1026,20.8766,20.5261,20.4874,20.8947,20.5471,20.2728,20.1223,19.7652,19.7302,19.9613,19.9248,20.0808,20.3874,20.3121,20.1951,20.0222,19.9657,19.8627,19.7683,19.8859,19.9221,19.9221,19.9221,19.9221,19.9221,19.9221,19.9221,19.9221,19.9221,19.9221,19.9221,19.9221,19.9221,19.9221,19.9221,19.9221,19.9221,19.9221,19.9221,19.9221,19.9221,19.9221,19.9221,19.9221,19.9221,19.9221,19.9221,19.9221,19.9221,19.9221,19.9221,19.9221,19.9221,19.9221,19.9221,19.9221,19.9221,19.9221,19.9221,19.9221,19.9221,19.9221,19.9221,19.9628,20.0791,20.0966,20.1548,20.2548,20.406,20.4874,20.4874,20.6048,20.6841,20.6841,20.6841,20.6841,20.6841,20.6841,20.6841,20.6841,20.6841,20.6841,0.0,0.0,0.0,0.0,0.0,18.2311,0.0,0.0,0.0,18.8769,18.8214,18.8094,19.3033,19.3957,19.3694,19.2839,19.7144,19.9805,19.7472,20.2733,20.6645,20.5462,20.6218,20.704,20.704,20.6418,20.452,20.0574,20.3558,20.5072,20.41,20.5485,20.821,21.2466,21.0515,20.8775,20.7838,20.4727,20.2155,19.984,19.7263,19.8267,20.2156,19.9623,20.0616,20.4276,20.0818,19.9046,19.8872,19.9001,19.9221,19.9221,19.9221,19.9221,19.9221,19.9221,19.9221,19.9221,19.9221,19.9221,19.9221,19.9221,19.9221,19.9221,19.9221,19.9221,19.9221,19.9221,19.9221,19.9221,19.9221,19.9221,19.9221,19.9221,19.9221,19.9221,19.9221,19.9221,19.9221,19.9221,19.9221,19.9221,19.9221,19.9221,19.9221,19.9221,19.9221,19.9221,19.9221,19.9221,19.9221,19.9221,19.9221,19.9234,19.9674,20.0397,20.1199,20.1373,20.349,20.4874,20.4874,20.6048,20.6841,20.6841,20.6841,20.6841,20.6841,20.6841,20.6841,20.6841,20.6841,20.6841,0.0,0.0,0.0,17.8374,0.0,0.0,0.0,18.2476,18.335,18.8393,18.8885,18.9671,19.3974,19.4811,19.4978,19.5732,19.9082,20.1615,20.2339,20.5463,20.7632,20.681,20.7435,20.7796,20.7796,20.7796,20.5845,20.1206,20.2932,20.5058,20.7388,20.7991,20.9944,21.3447,21.2642,21.1697,21.0509,20.8396,20.7764,20.8176,20.3108,20.2379,20.4869,20.1207,19.9816,20.0379,19.9622,19.8872,19.8232,19.9034,19.8814,19.8278,19.8278,19.787,19.7301,19.7301,19.765,19.8278,19.8278,19.8639,19.9221,19.9221,19.9221,19.9221,19.9221,19.9221,19.9221,19.9221,19.9221,19.9221,19.9221,19.9221,19.9221,19.9221,19.9221,19.9221,19.9221,19.9221,19.9221,19.9221,19.9221,19.9221,19.9221,19.9221,19.9221,19.9221,19.9221,19.9221,19.9221,19.9221,19.9221,19.9221,19.9221,19.9221,19.9221,19.9803,20.0048,20.0048,20.1955,20.3141,20.3932,20.506,20.6259,20.6841,20.6841,20.6841,20.6841,20.6259,20.6259,20.6841,20.6841,20.6841,0.0,0.0,0.0,0.0,0.0,0.0,18.1982,18.322,18.4823,18.8769,19.0111,19.1538,19.4982,19.557,19.6126,19.7701,20.0037,20.2733,20.5692,20.7007,20.7796,20.7796,20.7796,20.7796,20.7796,20.7796,20.6841,20.468,20.2538,20.4471,21.1455,21.0887,21.1682,21.4232,21.439,21.4017,21.2869,21.1502,21.2696,21.6161,20.932,20.7029,20.8395,20.334,19.979,19.7464,19.864,19.8685,19.7696,19.8859,19.8452,19.7288,19.7288,19.6532,19.5369,19.5369,19.5905,19.6881,19.6881,19.7709,19.8814,19.8814,19.9092,19.9221,19.9221,19.9221,19.9221,19.9221,19.9221,19.9221,19.9221,19.9221,19.9221,19.9221,19.9221,19.9221,19.9221,19.9221,19.9221,19.9221,19.9221,19.9221,19.9221,19.9221,19.9221,19.9221,19.9221,19.9221,19.9221,19.9221,19.9221,19.9221,19.9221,19.9221,19.9221,19.9221,19.9221,19.9221,20.0384,20.1385,20.2536,20.3711,20.5096,20.6085,20.6038,20.6259,20.6386,20.5503,20.5467,20.6841,20.6841,20.6841,17.0918,0.0,0.0,17.5416,17.6627,0.0,18.4452,18.3893,18.4447,19.2417,19.2129,19.2151,19.7692,19.8691,19.9248,20.0629,20.2141,20.4278,20.7237,20.7599,20.7796,20.7796,20.7796,20.7796,20.7796,20.7796,20.8191,20.9174,20.6436,20.624,20.9753,21.2438,21.462,21.616,21.7542,21.8121,21.7899,21.6527,21.5412,21.4827,20.8617,20.7207,20.9926,20.2715,20.1355,20.4307,20.0829,19.9267,19.9046,19.9267,19.8452,19.7288,19.7288,19.6532,19.5369,19.5369,19.5382,19.5601,19.5601,19.6519,19.7463,19.7463,19.8278,19.9221,19.9221,19.9221,19.9221,19.9221,19.9221,19.9221,19.9221,19.9221,19.9221,19.9221,19.9221,19.9221,19.9221,19.9221,19.9221,19.9221,19.9221,19.9221,19.9221,19.9221,19.9221,19.9221,19.9221,19.9221,19.9221,19.9221,19.9221,19.9221,19.9221,19.9221,19.9221,19.9221,19.9221,19.9221,20.0384,20.1036,20.1211,20.2536,20.313,20.3351,20.3351,20.3886,20.5107,20.4886,20.5467,20.6841,20.6841,20.6841,16.9854,17.0248,17.1629,17.5575,0.0,0.0,18.3663,18.5336,18.7175,19.2429,19.3257,19.4259,19.8437,19.9217,20.0037,20.237,20.316,20.431,20.6218,20.7205,20.7796,20.7796,20.7796,20.7796,20.7796,20.7796,20.7994,20.8553,20.7428,20.7218,20.8197,21.1065,21.4,21.6508,21.7168,21.7892,21.8681,21.8096,21.7865,21.8089,21.3244,21.1907,21.3846,20.8226,20.5664,20.5428,20.3696,20.1604,19.9391,20.1223,19.9247,19.4975,19.4975,19.4219,19.3113,19.3113,19.3579,19.4219,19.4219,19.5136,19.6125,19.6125,19.7114,19.8103,19.8103,19.8685,19.9221,19.9221,19.9221,19.9221,19.9221,19.9221,19.9221,19.9221,19.9221,19.9221,19.9221,19.9221,19.9221,19.9221,19.9221,19.9221,19.9221,19.9221,19.9221,19.9221,19.9221,19.9221,19.9221,19.9221,19.9221,19.9221,19.9221,19.9221,19.9221,19.9221,19.9221,19.9221,19.9641,20.0222,20.0978,20.1548,20.2187,20.2944,20.2944,20.313,20.3711,20.2955,20.3351,20.4736,20.6038,20.6841,16.8473,0.0,0.0,0.0,0.0,0.0,18.3334,18.6586,18.9282,19.2541,19.4022,19.5732,19.8691,19.9217,20.0006,20.2568,20.2962,20.3522,20.5429,20.6645,20.7435,20.7829,20.7796,20.7796,20.7796,20.7796,20.8027,20.8388,20.8388,20.8577,20.9162,21.1294,21.3612,21.6508,21.6542,21.7103,21.8089,21.8484,21.9273,22.0256,21.632,21.4981,21.5754,21.1868,20.8965,20.6786,20.7193,20.5256,20.1808,20.3917,20.1781,19.6715,19.5581,19.4354,19.3007,19.1922,19.2081,19.2837,19.2837,19.3753,19.48,19.48,19.5718,19.6707,19.6707,19.7508,19.8278,19.8685,19.8639,19.8859,19.9267,19.9221,19.9221,19.9221,19.9221,19.9221,19.9221,19.9221,19.9221,19.9221,19.9221,19.9221,19.9221,19.9221,19.9221,19.9221,19.9221,19.9221,19.9221,19.9221,19.9221,19.9221,19.9221,19.9221,19.9221,19.9221,19.9221,19.9221,19.9221,19.9628,20.0397,20.0617,20.0966,20.2001,20.1955,20.1955,20.1955,20.1373,20.1385,20.2536,20.5049,20.627,0.0,0.0,0.0,17.4298,17.643,17.8929,18.4781,18.7309,18.9546,19.3825,19.4746,19.5732,19.8691,19.9217,19.9611,20.1155,20.1418,20.2339,20.5298,20.566,20.6218,20.7599,20.7796,20.7796,20.7796,20.7796,20.8388,20.9736,20.9933,21.1084,21.404,21.4203,21.4994,21.6576,21.6542,21.6542,21.6542,21.7892,21.8681,21.8712,21.5759,21.4421,21.4437,21.1334,20.997,20.9912,21.1502,21.0347,20.7623,20.7579,20.6812,20.5095,20.1007,19.8622,19.7082,19.2979,19.1499,19.1499,19.1499,19.2371,19.3462,19.3462,19.4335,19.5324,19.5324,19.5382,19.5776,19.6894,19.7288,19.7683,19.8872,19.9221,19.9221,19.9221,19.9221,19.9221,19.9221,19.9221,19.9221,19.9221,19.9221,19.9221,19.9221,19.9221,19.9221,19.9221,19.9221,19.9221,19.9221,19.9221,19.9221,19.9221,19.9221,19.9221,19.9221,19.9221,19.9221,19.9221,19.9221,19.9221,19.9279,19.9279,19.9279,19.9441,19.9441,19.9441,19.9441,20.0397,20.0978,20.1199,20.3711,20.4886,16.6658,16.7163,16.9307,17.6377,17.7966,17.9229,18.4956,18.8069,19.0765,19.4088,19.4811,19.5732,19.8691,19.9217,19.9445,19.9808,20.076,20.1779,20.2733,20.4509,20.589,20.6252,20.7205,20.7796,20.7796,20.7796,20.7994,20.8553,20.8618,20.9375,21.1314,21.2465,21.3649,21.4996,21.5951,21.6542,21.6542,21.6937,21.73,21.73,21.7331,21.7286,21.7315,21.7124,21.5584,21.2852,21.3397,21.2649,21.0912,21.0912,20.6842,20.0225,19.8868,19.6369,19.3395,19.201,19.1499,19.1499,19.1499,19.1732,19.2139,19.2139,19.2997,19.4044,19.4044,19.4581,19.5382,19.595,19.5905,19.6299,19.7683,19.7883,19.8058,19.9092,19.9221,19.9221,19.9221,19.9221,19.9221,19.9221,19.9221,19.9221,19.9221,19.9221,19.9221,19.9221,19.9221,19.9221,19.9221,19.9221,19.9221,19.9221,19.9221,19.9221,19.9221,19.9221,19.9221,19.9221,19.9221,19.9221,19.9221,19.9221,19.9221,19.9221,19.9221,19.9221,19.9221,19.9628,20.021,20.0978,20.1955,20.2723,16.6658,16.7609,17.0106,17.7127,17.9432,18.1204,18.5284,18.8464,19.113,19.3496,19.4417,19.5535,19.8064,19.8459,19.8656,19.9248,20.0037,20.0826,20.1384,20.293,20.4311,20.487,20.6251,20.7007,20.7007,20.7402,20.7796,20.7796,20.7796,20.8388,20.9967,21.0887,21.2235,21.4372,21.5393,21.5951,21.6542,21.6542,21.6542,21.6542,21.7497,21.7892,21.7892,21.947,21.8468,21.5949,21.5395,21.4591,21.4023,21.4023,20.9345,20.2148,20.0588,19.7456,19.3524,19.1995,19.1499,19.1499,19.1499,19.1499,19.1499,19.1499,19.2023,19.2706,19.2706,19.3288,19.4044,19.4612,19.4568,19.4975,19.6344,19.6487,19.6939,19.8278,19.8465,19.8465,19.8465,19.8872,19.9221,19.9221,19.9221,19.9221,19.9221,19.9221,19.9221,19.9221,19.9221,19.9221,19.9221,19.9221,19.9221,19.9221,19.9221,19.9221,19.9221,19.9221,19.9221,19.9221,19.9221,19.9221,19.9221,19.9221,19.9221,19.9221,19.9221,19.9221,19.9221,19.9221,19.9628,20.0442,20.0804,20.1385,16.6526,16.8985,17.2124,17.6599,18.0882,18.4343,18.587,18.8464,19.0897,19.2343,19.3724,19.5171,19.6486,19.6881,19.7472,19.8822,19.9248,19.9611,20.0992,20.1384,20.1976,20.3323,20.4706,20.5626,20.5692,20.681,20.7829,20.7796,20.7796,20.8388,20.9736,20.9933,21.1248,21.401,21.4372,21.4996,21.6345,21.6576,21.6542,21.6542,21.6542,21.6542,21.6542,21.7892,21.8484,21.8484,21.7134,21.6542,21.6542,21.6372,21.3797,20.994,20.5636,20.1369,19.729,19.3266,19.166,19.1499,19.1499,19.1499,19.1499,19.1499,19.1499,19.1499,19.1499,19.1499,19.1732,19.2997,19.3346,19.3637,19.4961,19.5149,19.5601,19.6926,19.7114,19.7275,19.7334,19.8278,19.9046,19.9001,19.9267,19.9221,19.9221,19.9221,19.9221,19.9221,19.9221,19.9221,19.9221,19.9221,19.9221,19.9221,19.9221,19.9221,19.9221,19.9221,19.9221,19.9221,19.9221,19.9221,19.9221,19.9221,19.9221,19.9221,19.9221,19.9221,19.9221,19.9221,19.9221,19.9221,20.0442,20.0966,16.867,17.0551,17.2717,17.9226,18.1702,18.3245,18.5685,18.8464,19.0897,19.2343,19.2935,19.3264,19.3689,19.553,19.7337,19.7472,19.8428,19.9445,19.984,20.0792,20.1581,20.1976,20.3128,20.4509,20.5463,20.6021,20.6613,20.7829,20.7796,20.8027,20.8421,20.9342,21.0328,21.1117,21.3221,21.4635,21.4964,21.5951,21.6542,21.6542,21.6542,21.6542,21.6542,21.6971,21.7103,21.7103,21.6774,21.6542,21.6372,21.3262,21.1316,20.994,20.5636,20.1369,19.7502,19.6497,19.4093,19.1499,19.1499,19.1499,19.1499,19.1499,19.1499,19.1499,19.1499,19.1499,19.1557,19.1848,19.1964,19.2255,19.3579,19.387,19.4219,19.5543,19.5937,19.6125,19.7101,19.672,19.6707,19.7683,19.8627,19.9221,19.9221,19.9221,19.9221,19.9221,19.9221,19.9221,19.9221,19.9221,19.9221,19.9221,19.9221,19.9221,19.9221,19.9221,19.9221,19.9221,19.9221,19.9221,19.9221,19.9221,19.9221,19.9221,19.9221,19.9221,19.9221,19.9221,19.9221,19.9221,19.9616,19.9582,16.8302,17.1078,17.4487,18.0456,18.2447,18.3557,18.5737,18.7937,18.9976,19.1423,19.1686,19.1883,19.2541,19.4018,19.553,19.6912,19.767,19.8459,19.9248,20.0069,20.0432,20.0432,20.1779,20.2962,20.3719,20.4311,20.5298,20.6843,20.681,20.7237,20.7829,20.8586,20.9375,20.9933,21.2268,21.3781,21.4438,21.5753,21.6542,21.6542,21.6542,21.6542,21.6542,21.6542,21.6542,21.6542,21.6542,21.6542,21.634,21.4002,21.0917,20.7396,20.5069,20.0407,19.4929,19.4929,19.3481,19.1499,19.1499,19.1499,19.1499,19.1499,19.1499,19.1499,19.1499,19.1499,19.1499,19.1499,19.1499,19.1615,19.2371,19.2546,19.2881,19.416,19.4554,19.4787,19.5382,19.4975,19.4961,19.6183,19.7521,19.8497,19.8497,19.8814,19.9221,19.9221,19.9221,19.9221,19.9221,19.9221,19.9221,19.9221,19.9221,19.9221,19.9221,19.9221,19.9221,19.9221,19.9221,19.9221,19.9221,19.9221,19.9221,19.9221,19.9221,19.9221,19.9221,19.9221,19.9221,19.9221,19.9221,19.9221,16.7184,17.0972,17.5876,18.0469,18.2874,18.4452,18.5636,18.7178,18.8691,18.9976,19.0239,19.0634,19.208,19.2475,19.3492,19.6122,19.6943,19.7504,19.8853,19.9019,19.9217,19.9217,20.0366,20.1155,20.1384,20.2568,20.3883,20.5298,20.5463,20.6218,20.7402,20.7599,20.8388,20.9539,21.1084,21.2696,21.401,21.5556,21.6345,21.6542,21.6542,21.6542,21.6542,21.6542,21.6542,21.6542,21.6542,21.6542,21.6542,21.5964,21.1849,20.5699,20.506,20.0386,19.3895,19.3352,19.2762,19.2213,19.166,19.1499,19.1499,19.1499,19.1499,19.1499,19.1499,19.1499,19.1499,19.1499,19.1499,19.1499,19.1499,19.1499,19.1732,19.2881,19.3172,19.3172,19.3172,19.3172,19.3521,19.48,19.5905,19.6926,19.7101,19.8058,19.9034,19.9034,19.9001,19.9221,19.9221,19.9221,19.9221,19.9221,19.9221,19.9221,19.9221,19.9221,19.9221,19.9221,19.9221,19.9221,19.9221,19.9221,19.9221,19.9221,19.9221,19.9221,19.9221,19.9221,19.9221,19.9221,19.9221,19.9221,16.9328,17.1038,17.3142,17.8637,18.2056,18.416,18.4357,18.6491,18.8427,18.8691,18.8756,18.9151,19.0634,19.1817,19.2804,19.333,19.553,19.7078,19.7504,19.8459,19.9217,19.9217,19.9414,20.0006,20.1221,20.1549,20.237,20.3719,20.5067,20.5824,20.6021,20.7237,20.7961,20.8191,20.9539,21.1084,21.263,21.4044,21.5359,21.6542,21.6542,21.6542,21.6542,21.6542,21.6542,21.6542,21.6542,21.6542,21.6338,21.2843,21.2629,21.4002,21.0498,20.8371,20.6652,20.3113,19.9617,19.6137,19.2676,19.1499,19.1499,19.1499,19.1499,19.1499,19.1499,19.1499,19.1499,19.1499,19.1499,19.1499,19.1499,19.1499,19.1499,19.1732,19.179,19.179,19.179,19.179,19.2197,19.3521,19.3928,19.4393,19.5543,19.6765,19.7683,19.7683,19.8465,19.9221,19.9221,19.9221,19.9221,19.9221,19.9221,19.9221,19.9221,19.9221,19.9221,19.9221,19.9221,19.9221,19.9221,19.9221,19.9221,19.9221,19.9221,19.9221,19.9221,19.9221,19.9221,19.9221,19.9221,19.9221,16.8276,17.0473,17.301,17.6468,18.015,18.3137,18.3926,18.5176,18.6096,18.6096,18.7309,18.8559,18.9282,19.0568,19.1751,19.2541,19.382,19.4974,19.5763,19.7144,19.8064,19.8064,19.8853,19.9414,20.0234,20.0203,20.0826,20.237,20.316,20.4114,20.5626,20.6252,20.7007,20.7829,20.9144,21.069,21.2236,21.3649,21.5161,21.6542,21.6542,21.6542,21.6542,21.6542,21.6542,21.6542,21.6542,21.6542,21.634,21.4382,21.3409,21.3026,21.1135,20.8928,20.6804,20.4712,20.1391,19.7498,19.5336,19.3309,19.1499,19.1499,19.1499,19.1499,19.1499,19.1499,19.1499,19.1499,19.1499,19.1499,19.1499,19.1499,19.1499,19.1499,19.1499,19.1499,19.1499,19.1499,19.1674,19.2255,19.2371,19.2823,19.4102,19.48,19.5543,19.6183,19.6926,19.7288,19.7288,19.787,19.8278,19.8278,19.8859,19.9221,19.9221,19.9221,19.9221,19.9221,19.9221,19.9221,19.9221,19.9221,19.9221,19.9221,19.9221,19.9221,19.9221,19.9221,19.9221,19.9221,19.9221,19.9221,16.7513,16.9946,17.2747,17.4852,17.7942,18.1061,18.3137,18.3597,18.3729,18.4029,18.6096,18.7967,18.8296,18.9516,19.0897,19.2015,19.2409,19.3001,19.4154,19.5535,19.6714,19.7109,19.8064,19.8822,19.9248,19.9217,19.9611,20.0826,20.1155,20.2339,20.4706,20.5035,20.5824,20.7205,20.8356,20.9967,21.1676,21.3254,21.4602,21.6182,21.6345,21.6542,21.6542,21.6542,21.6542,21.6542,21.6542,21.6542,21.6542,21.6542,21.4592,21.164,21.164,20.972,20.6614,20.5838,20.3333,20.0245,19.8286,19.5547,19.2632,19.1747,19.1499,19.1499,19.1499,19.1499,19.1499,19.1499,19.1499,19.1499,19.1499,19.1499,19.1499,19.1499,19.1499,19.1499,19.1499,19.1499,19.1499,19.1499,19.1499,19.179,19.2779,19.2953,19.3462,19.4787,19.5149,19.5369,19.5369,19.6344,19.6926,19.6926,19.8045,19.8859,19.8859,19.9046,19.9221,19.9221,19.9221,19.9221,19.9221,19.9221,19.9221,19.9221,19.9221,19.9221,19.9221,19.9221,19.9221,19.9221,19.9221,19.9221,16.9985,16.9985,17.0287,17.4298,17.5613,17.7022,18.1193,18.2114,18.2508,18.3795,18.5307,18.6849,18.8099,18.9516,19.0538,19.0699,19.1751,19.2672,19.2804,19.4119,19.5565,19.6912,19.7337,19.7898,19.9019,19.9217,19.9217,19.9445,20.0629,20.1581,20.1779,20.293,20.4311,20.5824,20.6021,20.7402,21.0131,21.1676,21.3222,21.4602,21.5951,21.6542,21.6542,21.6542,21.6542,21.6542,21.6542,21.6542,21.6542,21.6542,21.6372,21.5998,21.5998,21.5792,21.497,21.1107,20.9573,20.8008,20.0386,19.7479,19.6497,19.2676,19.1499,19.1499,19.1499,19.1499,19.1499,19.1499,19.1499,19.1499,19.1499,19.1499,19.1499,19.1499,19.1499,19.1499,19.1499,19.1499,19.1499,19.1499,19.1499,19.1499,19.1615,19.1615,19.2081,19.3404,19.4568,19.5369,19.5369,19.5588,19.5543,19.5543,19.6707,19.7508,19.7508,19.8465,19.9221,19.9221,19.9221,19.9221,19.9221,19.9221,19.9221,19.9221,19.9221,19.9221,19.9221,19.9221,19.9221,19.9221,19.9221,19.9221,16.6737,16.7986,16.9301,17.1011,17.3378,17.6007,17.8666,17.9286,17.9943,18.2282,18.3203,18.3824,18.4416,18.7046,18.8924,18.8069,18.9844,19.1357,19.1357,19.2606,19.3724,19.4347,19.5171,19.6355,19.7898,19.7867,19.8262,19.9248,19.984,20.0432,20.1384,20.1976,20.2962,20.4343,20.5232,20.6613,20.8553,21.1118,21.3025,21.4438,21.5785,21.6542,21.6542,21.6542,21.6542,21.6542,21.6542,21.6542,21.6542,21.6542,21.6542,21.6542,21.6542,21.6542,21.6175,21.3647,21.1093,20.8425,20.4084,20.1582,19.9802,19.8238,19.6527,19.5124,19.5124,19.3481,19.1499,19.1499,19.1499,19.1499,19.1499,19.1499,19.1499,19.1499,19.1499,19.1499,19.1499,19.1499,19.1499,19.1499,19.1499,19.1499,19.1499,19.1499,19.1615,19.2139,19.2662,19.3011,19.3011,19.3695,19.416,19.416,19.5369,19.6125,19.6125,19.7288,19.8103,19.8103,19.8859,19.8872,19.8103,19.8859,19.9221,19.9221,19.9221,19.9221,19.9221,19.9221,19.9221,19.9221,19.9221,19.9221,16.5028,16.6671,16.8407,16.8841,17.1208,17.4035,17.6298,17.6824,17.7679,18.0638,18.1653,18.1916,18.1916,18.4744,18.6915,18.6294,18.8266,19.0042,19.0436,19.1357,19.2146,19.2541,19.3527,19.4776,19.632,19.6943,19.7504,19.8428,19.9051,19.9611,20.0597,20.0792,20.1352,20.2928,20.3949,20.51,20.6416,20.9539,21.171,21.3024,21.4964,21.6182,21.6542,21.6542,21.6542,21.6542,21.6542,21.6542,21.6542,21.6542,21.6542,21.6576,21.6182,21.5985,21.5753,21.4207,21.1851,20.8976,20.5263,20.2939,20.0776,19.8475,19.6554,19.539,19.539,19.3515,19.1499,19.1499,19.1499,19.1499,19.1499,19.1499,19.1499,19.1499,19.1499,19.1499,19.1499,19.1499,19.1499,19.1499,19.1499,19.1499,19.1499,19.1499,19.1499,19.1499,19.1499,19.1499,19.1499,19.2255,19.2823,19.2823,19.3986,19.4742,19.4742,19.595,19.6707,19.6707,19.7883,19.8103,19.6765,19.7883,19.8685,19.8685,19.9046,19.9221,19.9221,19.9221,19.9221,19.9221,19.9221,19.9221,16.6303,16.679,16.7184,16.8605,16.8972,17.009,17.4364,17.535,17.6139,17.9004,18.0901,18.1916,18.1916,18.3137,18.4584,18.5965,18.7441,18.8888,19.0305,19.0502,19.1028,19.2475,19.2637,19.3198,19.4584,19.6157,19.7109,19.7109,19.8459,19.9217,19.9217,19.9217,19.9808,20.1384,20.1352,20.2173,20.3488,20.6448,20.8586,20.99,21.3057,21.5161,21.6542,21.6542,21.6542,21.6542,21.6542,21.6542,21.6542,21.6542,21.6542,21.6345,21.4964,21.4404,21.4207,21.2828,21.2268,21.1127,20.293,20.0047,19.8664,19.0566,18.8648,18.9594,18.9594,19.0481,19.1499,19.1499,19.1499,19.1499,19.1499,19.1499,19.1499,19.1499,19.1499,19.1499,19.1499,19.1499,19.1499,19.1499,19.1499,19.1499,19.1499,19.1499,19.1499,19.1499,19.1499,19.1499,19.1499,19.1499,19.1499,19.1499,19.2662,19.3462,19.3462,19.4568,19.5324,19.5324,19.6487,19.6707,19.5382,19.6693,19.7288,19.7288,19.8627,19.9221,19.9221,19.9221,19.9221,19.9221,19.9221,19.9221,16.4765,16.5974,16.6658,16.6014,16.7395,16.9564,17.1892,17.2418,17.3208,17.6073,17.7876,17.8891,17.8891,18.1756,18.4226,18.4715,18.6783,18.8888,19.0305,19.0472,19.0699,19.1094,19.116,19.1751,19.3198,19.3724,19.4939,19.6912,19.7504,19.8293,19.9248,19.9217,19.9414,19.9808,20.0795,20.1549,20.1944,20.4903,20.7599,20.9933,20.9901,21.1084,21.3617,21.457,21.5556,21.6542,21.6542,21.6542,21.6542,21.6542,21.5951,21.4964,21.3452,21.286,21.2828,21.1282,21.069,21.016,20.666,20.6031,20.639,20.3694,20.0642,19.791,19.791,19.4997,19.1499,19.1499,19.1499,19.1499,19.1499,19.1499,19.1499,19.1499,19.1499,19.1499,19.1499,19.1499,19.1499,19.1499,19.1499,19.1499,19.1499,19.1499,19.1499,19.1499,19.1499,19.1499,19.1499,19.1499,19.1499,19.1499,19.1848,19.2081,19.2081,19.3288,19.4044,19.4044,19.4393,19.4393,19.4044,19.5369,19.595,19.595,19.6313,19.7114,19.787,19.787,19.8497,19.9221,19.9221,19.9221,16.3252,16.433,16.5014,16.4567,16.5856,16.7592,16.9065,16.9854,17.0906,17.3246,17.5312,17.6627,17.6627,17.9389,18.1756,18.2319,18.4847,18.7441,18.9384,19.0173,19.0472,19.0472,19.0472,19.0831,19.1751,19.2343,19.3426,19.5333,19.5925,19.6881,19.823,19.8459,19.8656,19.9248,20.0006,20.0563,20.0563,20.293,20.5232,20.7435,20.6645,20.7994,21.1512,21.2235,21.3846,21.5753,21.5753,21.5753,21.5753,21.5753,21.4799,21.3452,21.263,21.1907,21.1315,20.9704,20.9177,20.8584,20.4691,20.3889,20.432,20.2951,19.942,19.5907,19.7494,19.4572,19.0685,19.0685,19.1092,19.1267,19.0321,19.0089,19.0089,19.0089,19.0438,19.0685,19.0685,19.1092,19.1499,19.1499,19.1499,19.1499,19.1499,19.1499,19.1499,19.1499,19.1499,19.1499,19.1499,19.1499,19.1499,19.1499,19.1499,19.1499,19.1499,19.2197,19.2662,19.2662,19.2662,19.2662,19.2662,19.3928,19.4568,19.4568,19.5136,19.5776,19.6532,19.6532,19.7334,19.8465,19.8465,19.8859,16.1897,16.2357,16.2752,16.4107,16.4344,16.4765,16.6395,16.7815,16.917,17.0577,17.3076,17.5087,17.518,17.643,17.8008,17.9689,18.2188,18.4913,18.777,18.9318,19.0209,19.0341,19.0371,19.0371,19.0472,19.1686,19.2541,19.2606,19.3825,19.5368,19.6912,19.714,19.767,19.9019,19.9248,19.9217,19.9217,20.0563,20.1976,20.316,20.3291,20.5429,20.9539,20.9736,21.1314,21.401,21.4241,21.4207,21.4207,21.4207,21.3452,21.2104,21.2104,21.1084,20.9506,20.8355,20.7796,20.6842,19.9443,19.6722,19.6114,19.2058,18.8946,18.7357,19.0815,19.0729,18.9391,18.9391,19.0263,19.067,18.8387,18.7747,18.7747,18.7747,18.862,18.9391,18.9391,19.0438,19.1325,19.1325,19.1383,19.1499,19.1499,19.1499,19.1499,19.1499,19.1499,19.1499,19.1499,19.1499,19.1499,19.1499,19.1499,19.1499,19.1499,19.1499,19.1499,19.1499,19.1499,19.1499,19.1499,19.2604,19.3288,19.3288,19.4393,19.5136,19.5149,19.5149,19.595,19.7114,19.7114,19.787,16.1897,16.3147,16.4041,16.4344,16.3647,16.3541,16.6198,16.7053,16.771,16.9131,17.084,17.2418,17.3498,17.5772,17.8666,18.2451,18.2677,18.3429,18.6323,18.7017,18.7609,18.8756,18.8888,18.9253,19.0406,19.0831,19.1423,19.2541,19.2935,19.379,19.5206,19.6517,19.7306,19.7732,19.8656,19.9217,19.9217,19.9642,19.9808,20.0234,20.1384,20.293,20.5067,20.7205,20.9375,21.1117,21.2268,21.2861,21.2861,21.2861,21.1874,21.0558,21.0558,20.9539,20.8191,20.7961,20.7796,20.76,20.5646,20.5073,20.4299,20.0212,19.7111,19.4597,19.2466,19.0136,18.8212,18.8212,18.8387,18.8503,18.7921,18.7747,18.7747,18.7747,18.798,18.8212,18.8212,18.9143,18.9972,18.9972,19.0787,19.1499,19.1499,19.1499,19.1499,19.1499,19.1499,19.1499,19.1499,19.1499,19.1499,19.1499,19.1499,19.1499,19.1499,19.1499,19.1499,19.1499,19.1499,19.1499,19.1499,19.1732,19.1906,19.1906,19.2197,19.2837,19.387,19.387,19.4612,19.5731,19.5731,19.6532,16.1108,16.2357,16.3647,16.4278,16.3844,16.3713,16.5382,16.5711,16.5882,16.6737,16.8578,17.0511,17.1985,17.4024,17.6496,17.9586,18.1127,18.2706,18.4913,18.6951,18.8201,18.8362,18.8954,18.9384,18.9516,19.0108,19.0831,19.162,19.162,19.2278,19.3724,19.4579,19.5399,19.5929,19.7472,19.8262,19.8262,19.8262,19.8656,19.9217,20.0037,20.1187,20.2568,20.4114,20.6448,20.8947,20.9934,21.0098,21.0098,21.0098,20.8947,20.7007,20.7796,20.7435,20.6778,20.7632,20.7796,20.76,20.568,20.3923,20.2343,20.1929,19.711,19.1658,19.3251,19.049,18.6874,18.6874,18.6467,18.6002,18.6002,18.6002,18.6002,18.6002,18.6467,18.6874,18.6874,18.7863,18.8736,18.8736,18.974,19.0569,19.0569,19.1092,19.1499,19.1499,19.1499,19.1499,19.1499,19.1499,19.1499,19.1499,19.1499,19.1499,19.1499,19.1499,19.1499,19.1499,19.1499,19.1499,19.1499,19.1499,19.1499,19.1499,19.1499,19.179,19.2488,19.2488,19.3172,19.4393,19.4393,19.5543,16.0162,16.1346,16.2949,16.4147,16.4476,16.4476,16.4476,16.4476,16.4476,16.4476,16.6671,16.9065,17.0446,17.2117,17.3564,17.4786,17.8534,18.1851,18.3532,18.725,18.945,18.8493,18.9384,18.9779,18.8756,18.9779,19.0472,19.0472,19.0472,19.1028,19.2212,19.2541,19.3198,19.4417,19.596,19.6745,19.6289,19.6943,19.767,19.8822,19.9085,19.9808,20.1023,20.1221,20.3325,20.6843,20.7007,20.7237,20.7237,20.7237,20.5626,20.3718,20.4837,20.5265,20.5495,20.6613,20.7237,20.6648,20.3147,20.0016,19.7868,20.0177,19.4015,18.6786,19.2386,19.008,18.5552,18.5552,18.4737,18.3923,18.3923,18.3923,18.3923,18.3923,18.4737,18.5552,18.5552,18.6583,18.7456,18.7456,18.8445,18.9216,18.9216,19.0321,19.115,19.115,19.1325,19.1499,19.1499,19.1499,19.1499,19.1499,19.1499,19.1499,19.1499,19.1499,19.1499,19.1499,19.1499,19.1499,19.1499,19.1499,19.1499,19.1499,19.1499,19.1499,19.1499,19.1499,19.2023,19.3113,19.3113,19.4393,16.0162,16.2069,16.4147,16.441,16.4476,16.4476,16.4476,16.4476,16.4476,16.4476,16.5908,16.7552,16.8972,17.1366,17.3235,17.3498,17.6129,17.9154,18.1916,18.4913,18.7214,18.823,18.8559,18.9085,19.0042,19.0341,19.0472,19.0472,19.0472,19.0604,19.0831,19.1949,19.2738,19.2935,19.4351,19.4579,19.336,19.5763,19.7337,19.7504,19.8656,19.9445,19.9642,20.0826,20.1779,20.2339,20.3686,20.4146,20.4146,20.4146,20.3883,20.3488,20.3752,20.3883,20.3883,20.408,20.4146,20.4082,20.35,20.3699,20.3283,19.8495,19.5528,19.3065,18.7462,18.5013,18.4214,18.4214,18.4039,18.3923,18.3923,18.3923,18.3923,18.3923,18.4039,18.4214,18.4214,18.5203,18.6118,18.6118,18.7165,18.8038,18.8038,18.9042,18.9798,18.9798,19.0787,19.1499,19.1499,19.1499,19.1499,19.1499,19.1499,19.1499,19.1499,19.1499,19.1499,19.1499,19.1499,19.1499,19.1499,19.1499,19.1499,19.1499,19.1499,19.1499,19.1499,19.1499,19.1557,19.1732,19.1732,19.259,16.0162,16.1674,16.345,16.4278,16.4476,16.4476,16.4476,16.4476,16.4476,16.4476,16.5711,16.725,16.8644,17.0643,17.2314,17.3038,17.4287,17.6194,17.9088,18.3429,18.6491,18.7112,18.8559,18.9121,18.8266,18.9581,19.0472,19.0472,19.0472,19.0472,19.0472,19.116,19.1488,19.1488,19.2869,19.333,19.2606,19.4018,19.5136,19.5894,19.7275,19.8064,19.8064,19.9642,20.0629,20.1352,20.2173,20.237,20.237,20.237,20.1976,20.1221,20.1944,20.237,20.2534,20.3323,20.3488,20.3488,20.3488,20.3949,20.4123,20.1966,19.824,19.4185,19.1269,19.0432,19.0432,19.0432,19.0432,19.0432,19.0432,18.8799,18.7136,18.7136,18.5503,18.3923,18.3923,18.4388,18.4796,18.4796,18.5843,18.6758,18.6758,18.7747,18.8794,18.9391,19.0031,19.067,19.1383,19.1499,19.1499,19.1499,19.1499,19.1499,19.1499,19.1499,19.1499,19.1499,19.1499,19.1499,19.1499,19.1499,19.1499,19.1499,19.1499,19.1499,19.1499,19.1499,19.1499,19.1499,19.1499,19.2139,15.9636,0.0,16.1634,16.3121,16.3687,16.395,0.0,16.4239,16.4476,16.4476,16.5382,16.6763,16.8578,16.9854,17.1103,17.2906,17.3169,17.4221,17.7087,18.1362,18.4416,18.511,18.7477,18.8135,18.5899,18.8332,18.9976,18.9976,19.0305,19.0472,19.0472,19.0472,19.0472,19.0472,19.1554,19.2146,19.2146,19.2475,19.3198,19.4285,19.5732,19.6683,19.7109,19.8293,19.9414,20.0795,20.0795,20.0795,20.0795,20.0795,20.0234,19.9445,20.0432,20.0795,20.1023,20.2173,20.2568,20.2568,20.2568,20.2765,20.3128,20.4311,20.0225,19.5141,19.5354,19.6136,19.6492,19.5765,19.5753,19.594,19.594,19.3657,19.1377,19.1377,18.9,18.6458,18.5503,18.5295,18.5021,18.4033,18.4679,18.5377,18.5377,18.6467,18.7631,18.8518,18.9158,18.9914,19.0859,19.1267,19.1499,19.1499,19.1499,19.1499,19.1499,19.1499,19.1499,19.1499,19.1499,19.1499,19.1499,19.1499,19.1499,19.1499,19.1499,19.1499,19.1499,19.1499,19.1499,19.1499,19.1499,19.1964,0.0,15.824,15.87,16.0096,16.1503,16.2489,16.2489,16.3515,0.0,16.4476,16.4541,16.5488,16.8381,16.8972,16.9959,17.2774,17.3169,17.4221,17.7087,17.7811,17.9126,18.1916,18.3597,18.4423,18.4226,18.6849,18.8493,18.8493,18.9713,19.0472,19.0472,19.0472,19.0472,19.0472,19.0604,19.0634,19.0634,19.1949,19.2672,19.2804,19.422,19.5763,19.7109,19.7271,19.8095,19.9445,19.9445,19.9445,19.9445,19.9445,19.9282,19.9217,19.9445,19.9445,19.9445,19.9414,19.9642,19.9642,19.9642,20.0432,20.1581,20.1615,20.0619,19.8459,19.4968,19.6287,19.8615,19.4759,19.4771,19.594,19.594,19.5716,19.559,19.559,19.5365,19.4015,19.0334,18.946,18.8375,18.4603,18.3981,18.3997,18.3997,18.5086,18.6002,18.6075,18.8053,18.9565,18.9623,19.0685,19.1499,19.1499,19.1499,19.1499,19.1499,19.1499,19.1499,19.1499,19.1499,19.1499,19.1499,19.1499,19.1499,19.1499,19.1499,19.1499,19.1499,19.1499,19.1499,19.1499,19.1499,19.1499,15.7779,15.8042,15.8568,16.0911,16.1897,16.2555,16.345,16.4041,16.4476,16.4476,16.4476,16.5093,16.7224,16.8341,16.9564,17.1564,17.2643,17.3564,17.4682,17.5575,17.689,17.8891,18.2085,18.4095,18.4095,18.5833,18.7046,18.7046,18.8362,18.9151,18.9151,19.0042,19.0472,19.0472,19.0472,19.0472,19.0472,19.1028,19.1291,19.1291,19.2738,19.3724,19.4347,19.514,19.6486,19.7867,19.7867,19.8459,0.0,19.9217,19.9217,19.9217,19.9217,19.9217,19.9217,19.9217,19.9217,19.9217,19.9217,19.9642,20.0006,20.0006,20.0393,20.0397,19.8839,19.9439,20.0592,20.0035,20.079,20.1985,20.1985,19.9061,19.594,19.594,19.2075,18.8052,18.6499,18.6188,18.5751,18.4159,18.3923,18.3923,18.3923,18.433,18.4912,18.5726,18.6599,18.7762,18.9333,18.9972,19.0612,19.1383,19.1499,19.115,19.0321,19.0976,19.1499,19.1499,19.1499,19.1499,19.1499,19.1499,19.1499,19.1499,19.1499,19.1499,19.1499,19.1499,19.1499,19.1499,19.1499,19.1499,15.7516,15.7713,15.8042,16.0911,16.1963,16.2555,16.3581,16.4107,16.4476,16.4476,16.4476,16.4962,16.6526,16.7947,16.9367,17.084,17.2248,17.3038,17.2577,17.3339,17.4325,17.5312,17.8534,18.0967,18.1888,18.4123,18.557,18.557,18.6915,18.7901,18.8296,18.9282,18.9581,18.9187,18.9581,18.9844,18.9844,19.0275,19.0472,19.0502,19.1488,19.2212,19.2672,19.3658,19.4974,19.6355,19.6355,19.6946,19.7867,19.7867,19.7867,19.7867,19.7867,19.7867,19.7902,19.8459,19.8687,19.8656,19.9019,19.9217,19.9217,19.9217,19.9808,20.076,20.1221,20.1023,20.0958,20.2339,20.3883,20.51,20.5463,20.233,19.9061,19.964,19.5553,19.112,18.9838,18.8598,18.734,18.6064,18.4771,18.3923,18.3923,18.3923,18.4214,18.5086,18.5552,18.6424,18.8111,18.8693,18.9274,19.0205,19.067,19.038,18.9042,18.9798,19.0321,19.0321,19.067,19.0859,19.0859,19.1267,19.1499,19.1499,19.1499,19.1499,19.1499,19.1499,19.1499,19.1499,19.1499,19.1499,15.7253,15.699,15.6636,15.9439,16.124,16.2292,16.2357,16.345,16.4476,16.4476,16.4476,16.4896,16.6461,16.7947,16.9394,17.0775,17.2248,17.2643,17.1235,17.1038,17.1038,17.1038,17.2314,17.4287,17.7153,18.1427,18.4029,18.4029,18.5373,18.6849,18.823,18.8296,18.7638,18.6228,18.7572,18.8296,18.8296,18.9713,19.0472,19.0472,19.0472,19.1225,19.2637,19.2637,19.3395,19.4746,19.4746,19.4811,19.4811,19.4811,19.4811,19.4811,19.4811,19.4811,19.4943,19.6517,19.7109,19.7306,19.8625,19.9248,19.9248,19.9217,19.9217,19.9414,20.0989,20.0432,19.9642,20.0958,20.237,20.3719,20.5232,20.566,20.5858,20.7435,20.7567,20.6644,20.2522,19.8629,19.4761,19.063,18.6622,18.3923,18.3923,18.3923,18.3923,18.3923,18.497,18.5784,18.5843,18.6932,18.7747,18.7747,18.8794,18.9027,18.7863,18.7747,18.7747,18.7747,18.8852,18.9507,18.9507,19.0743,19.1441,19.1441,19.1499,19.1499,19.1499,19.1499,19.1499,19.1499,19.1499,19.1499,15.7516,15.8503,15.9373,16.124,16.1963,16.2555,16.3581,16.4147,16.4476,16.4476,16.4476,16.4607,16.5028,16.6369,16.7908,16.9328,16.992,17.038,17.0972,16.9355,16.8828,17.084,17.1432,17.2813,17.5706,17.8074,17.9849,18.0873,18.3306,18.4913,18.5307,18.4416,18.3626,18.3232,18.3626,18.481,18.6849,18.6294,18.7513,19.0472,18.945,18.9713,19.116,19.116,19.1949,19.3264,19.3264,19.3856,19.4811,19.4811,19.4811,19.4811,19.4811,19.4811,19.4781,19.5368,19.5565,19.5763,19.7306,19.767,19.7867,19.8822,19.9217,19.9217,19.984,19.9642,19.9217,19.984,20.0234,20.0826,20.237,20.1182,20.022,20.1806,19.9834,19.6934,19.4059,19.2502,19.0472,18.6458,18.4687,18.3923,18.3923,18.3923,18.3923,18.3923,18.4214,18.4796,18.5726,18.6133,18.6758,18.7689,18.7281,18.6773,18.6467,18.7223,18.7747,18.7747,18.8096,18.8329,18.8329,18.9449,19.0089,19.0089,19.0976,19.1499,19.1499,19.1499,19.1499,19.1499,19.1499,19.1499,15.8503,15.9924,16.1371,16.2792,16.3187,16.3384,16.4278,16.4476,16.4476,16.4476,16.4476,16.4476,16.4476,16.5711,16.7053,16.7947,16.8512,16.9038,16.9289,16.7842,16.7645,16.992,17.0709,17.2155,17.5087,17.6627,17.7811,17.8703,18.0939,18.2056,18.1493,18.0638,18.0141,18.0141,18.0704,18.1822,18.3597,18.3897,18.5672,18.8792,18.8493,18.9151,19.0472,19.0472,19.0962,19.1751,19.1751,19.2278,19.3036,19.3036,19.3036,19.3036,19.3036,19.3036,19.3168,19.3694,19.3891,19.4088,19.5728,19.6157,19.6355,19.7867,19.7902,19.7507,19.7507,19.7867,19.849,19.849,19.8853,19.9414,20.0203,19.9846,19.9435,20.0763,19.9257,19.7119,19.5741,19.4597,19.259,18.8499,18.8279,18.7647,18.4453,18.5212,18.5692,18.4117,18.3923,18.4214,18.497,18.5028,18.5377,18.6133,18.5494,18.5028,18.5028,18.5784,18.6234,18.6234,18.67,18.6991,18.6991,18.8212,18.8852,18.8852,18.9623,19.0263,19.0685,19.0685,19.0976,19.1499,19.1499,19.1499,15.9899,16.1437,16.2818,16.4107,16.4476,16.4476,16.4476,16.4476,16.4476,16.4476,16.4476,16.4476,16.4476,16.5645,16.6592,16.6724,16.775,16.8144,16.6921,16.6658,16.7092,16.8512,16.9854,17.1761,17.4627,17.6101,17.6956,17.7219,17.8506,17.8637,17.735,17.7285,17.7219,17.7115,17.8309,17.9163,17.9426,18.1991,18.4123,18.5833,18.7309,18.8691,19.0108,19.0371,19.0472,19.0472,19.0472,19.0472,19.0472,19.0472,19.0472,19.0472,19.0472,19.0472,19.0634,19.1949,19.2409,19.2606,19.4088,19.4614,19.4811,19.6355,19.5732,19.4614,19.4746,19.5732,19.6912,19.7109,19.8095,19.9019,19.9248,20.0234,20.1581,20.2733,20.3128,20.3359,20.294,20.1192,19.8297,19.419,19.4547,19.3373,18.6034,18.7628,18.8638,18.5021,18.4117,18.3923,18.3923,18.3923,18.3923,18.3923,18.3923,18.3923,18.3923,18.3923,18.3923,18.3923,18.497,18.5668,18.5668,18.6932,18.7572,18.7572,18.7689,18.8329,18.9333,18.9333,19.0031,19.1267,19.1267,19.1383,16.1174,16.2858,16.4041,16.4344,16.4476,16.4476,16.4476,16.4476,16.4476,16.4476,16.4476,16.4476,16.4476,16.4765,16.5356,16.6592,16.604,16.5751,16.6658,16.5711,16.5488,16.7053,16.7513,16.8828,17.1695,17.2221,17.3339,17.5641,17.6073,17.6073,17.5838,17.5838,17.5246,17.4156,17.4419,17.5641,17.7876,17.7482,17.9126,18.2903,18.4321,18.5767,18.7214,18.945,19.0472,19.0472,19.0472,19.0472,19.0472,19.0472,19.0472,19.0472,19.0472,19.0472,19.0538,19.0831,19.0962,19.116,19.2606,19.3067,19.333,19.4746,19.4316,19.333,19.4386,19.5009,19.5565,19.6683,19.7306,19.7898,19.8822,19.9414,19.984,20.0006,20.1023,20.1177,19.926,19.8294,19.6728,19.2708,19.3068,19.3554,19.1807,19.0648,18.9619,18.8718,18.5899,18.3923,18.3923,18.3923,18.3923,18.3923,18.3923,18.3923,18.3923,18.3923,18.3923,18.3923,18.4114,18.433,18.433,18.5552,18.6234,18.6234,18.7281,18.7863,18.8154,18.8154,18.8794,18.9914,18.9914,19.0496,16.1725,16.3384,16.4476,16.4476,16.4476,16.4476,16.4476,16.4476,16.4476,16.4476,16.4476,16.4476,16.4476,16.4476,16.4765,16.558,16.4962,16.4765,16.558,16.4962,16.5028,16.6592,16.679,16.7645,16.9854,17.0643,17.1695,17.3208,17.3931,17.4325,17.4325,17.4325,17.3958,17.3235,17.3169,17.3893,17.5405,17.5378,17.6824,17.9812,18.1202,18.3437,18.6294,18.774,18.9187,19.0472,19.0472,19.0472,19.0472,19.0472,19.0472,19.0472,19.0472,19.0472,19.0472,19.0472,19.0472,19.0604,19.1357,19.162,19.1751,19.2444,19.2212,19.1751,19.251,19.3168,19.3921,19.4807,19.5894,19.7109,19.7144,19.8068,19.9019,19.849,19.9217,19.999,19.864,19.8895,19.8055,19.4084,19.613,19.7125,19.3258,19.3107,19.2256,18.852,18.6681,18.508,18.3227,18.3516,18.3923,18.3923,18.3923,18.3923,18.3923,18.3923,18.3923,18.3923,18.3923,18.3923,18.3923,18.4563,18.4912,18.4912,18.5552,18.6234,18.6874,18.6874,18.7514,18.8678,18.8678,18.9085,16.216,16.3515,16.4476,16.4476,16.4476,16.4476,16.4476,16.4476,16.4476,16.4476,16.4476,16.4476,16.4476,16.4476,16.4476,16.4476,16.4476,16.4476,16.4476,16.4476,16.4962,16.6237,16.6369,16.6961,16.8407,16.9591,17.0511,17.1038,17.2183,17.284,17.284,17.3038,17.3169,17.3169,17.3169,17.3169,17.3169,17.4325,17.5575,17.6786,17.844,18.1136,18.4715,18.5241,18.6885,18.9354,18.9354,18.9617,19.0108,19.0108,19.0275,19.0472,19.0472,19.0472,19.0472,19.0472,19.0472,19.0472,19.0472,19.0472,19.0406,18.991,18.991,19.0108,19.0108,19.1094,19.2343,19.2541,19.4382,19.6122,19.4978,19.649,19.8099,19.6946,19.7898,19.8853,19.8853,20.0037,20.0032,19.6734,19.9814,20.102,19.4328,19.4942,19.4316,18.7845,18.6832,18.5603,18.2386,18.331,18.4311,18.4545,18.3935,18.3632,18.3865,18.3923,18.3923,18.3923,18.3923,18.3923,18.3923,18.3923,18.3923,18.3923,18.3923,18.4447,18.5494,18.5494,18.6133,18.7456,18.7456,18.7572,16.3121,16.4278,16.4476,16.4476,16.4476,16.4476,16.4476,16.4476,16.4476,16.4476,16.4476,16.4476,16.4476,16.4476,16.4476,16.4476,16.4476,16.4476,16.4476,16.4476,16.4541,16.4765,16.4765,16.5356,16.6921,16.725,16.8368,17.084,17.1235,17.1366,17.1366,17.2511,17.3169,17.3169,17.3169,17.3169,17.3169,17.3366,17.3564,17.3761,17.6523,17.8074,17.8731,18.1324,18.34,18.4949,18.4949,18.6359,18.8625,18.8625,18.9384,19.0472,19.0472,19.0472,19.0472,19.0472,19.0472,19.0472,19.0472,19.0472,19.0078,18.7609,18.7609,18.8625,18.8625,18.9647,19.1028,19.2278,19.2965,19.3461,19.4579,19.514,19.5337,19.514,19.632,19.7275,19.7275,19.8459,19.9451,19.8846,20.041,20.1426,20.017,19.5964,19.2225,19.1198,18.6281,18.2493,18.2012,18.4067,18.6003,18.7142,18.4233,18.2643,18.3765,18.3923,18.3923,18.3923,18.3923,18.3923,18.3923,18.3923,18.3923,18.3923,18.3923,18.3939,18.4114,18.4114,18.4796,18.6075,18.6075,18.67,16.1346,16.3227,16.4476,16.4476,16.4476,16.4476,16.4476,16.4476,16.4476,16.4476,16.3844,16.3515,16.4278,16.3778,16.3515,16.4278,16.4476,16.4476,16.4476,16.4476,16.4476,16.4476,16.4476,16.4765,16.5422,16.6263,16.7316,16.8565,16.9394,17.0183,17.1038,17.2446,17.3169,17.3169,17.3169,17.3169,17.3169,17.3169,17.3169,17.3235,17.4484,17.5931,17.7482,17.8797,18.0732,18.2874,18.2874,18.3626,18.4744,18.4744,18.557,18.6856,18.6856,18.7872,18.9187,18.8398,18.8595,18.9217,18.8398,18.8135,18.7872,18.6622,18.6622,18.7178,18.7178,18.8164,18.9414,19.0072,19.1387,19.2606,19.2444,19.3562,19.4548,19.3759,19.4776,19.5732,19.5732,19.6946,19.8095,19.8095,19.9248,20.0234,20.0234,19.7892,19.5155,19.3063,19.0859,18.8654,18.6468,18.7815,18.9205,18.9756,18.6414,18.433,18.4923,18.296,18.2004,18.276,18.276,18.3109,18.3823,18.3923,18.3923,18.3923,18.3923,18.3923,18.3923,18.3923,18.4214,18.4737,18.4737,18.5028,15.953,16.174,16.3555,16.4278,16.4476,16.4476,16.4476,16.4476,16.4476,16.4476,16.3581,16.3187,16.4278,16.3581,16.3187,16.4278,16.4476,16.4476,16.4476,16.4476,16.4476,16.4476,16.4476,16.4476,16.4476,16.5514,16.6171,16.6171,16.7552,16.8999,17.0446,17.1854,17.284,17.3169,17.3169,17.3169,17.3169,17.3169,17.3169,17.3169,17.3169,17.4353,17.6392,17.6392,17.7839,18.0272,18.0272,18.0667,18.1362,18.1362,18.2217,18.3532,18.3532,18.4847,18.6652,18.5899,18.6359,18.6981,18.5176,18.4518,18.4584,18.4978,18.5373,18.5702,18.5702,18.6688,18.7901,18.823,18.9874,19.1357,19.0699,19.205,19.3431,19.2343,19.3198,19.422,19.422,19.5337,19.6517,19.6517,19.731,19.8099,19.8099,19.7702,19.6365,19.3802,19.3669,19.3151,19.1108,19.1195,19.1162,19.0521,18.8225,18.6121,18.4493,18.26,18.1467,18.1447,18.1463,18.1887,18.2876,18.2934,18.3051,18.34,18.34,18.3574,18.3923,18.3923,18.3923,18.3923,18.3923,18.3923,15.8675,16.0294,16.1083,16.3753,16.4476,16.4476,16.4476,16.4476,16.4476,16.4476,16.441,16.4344,16.441,16.441,16.4344,16.441,16.4476,16.4476,16.4476,16.4476,16.4476,16.4476,16.4476,16.4476,16.4476,16.4541,16.4541,16.4541,16.604,16.7513,16.8972,17.038,17.1788,17.3169,17.3169,17.3169,17.3169,17.3169,17.3169,17.3169,17.3169,17.3235,17.3432,17.3432,17.4221,17.5679,17.5679,17.7191,17.9755,17.9755,18.0638,18.2048,18.2048,18.2114,18.2442,18.3729,18.4226,18.3897,18.0939,17.9924,18.0215,18.1653,18.3071,18.416,18.416,18.5176,18.6622,18.7967,18.8427,18.8888,19.0173,19.0634,19.0669,19.0604,19.1686,19.2738,19.2738,19.3921,19.4943,19.4943,19.4943,19.4978,19.4978,19.3155,19.2063,19.3242,19.1362,19.0934,19.41,19.264,19.0369,18.7861,18.8662,18.6912,18.0818,18.3482,18.396,18.0331,18.0084,18.0142,18.02,18.02,18.0782,18.2045,18.2045,18.2643,18.3923,18.3923,18.3923,18.3923,18.3923,18.3923,15.611,15.8807,16.0885,16.3753,16.4476,16.4476,16.4476,16.4476,16.4476,16.4476,16.3713,16.3384,16.4278,16.3713,16.3384,16.4278,16.4476,16.4476,16.4476,16.4476,16.4476,16.4476,16.4476,16.4476,16.4476,16.4476,16.4476,16.4476,16.5908,16.6987,16.7513,16.9788,17.1301,17.1788,17.2709,17.3169,17.3169,17.3169,17.3169,17.3169,17.3169,17.3169,17.3169,17.3169,17.3498,17.3958,17.3958,17.4523,17.5509,17.5509,17.6364,17.7679,17.7679,17.8797,18.0347,17.9981,18.0413,18.0939,17.8929,17.8835,17.9689,18.0281,18.0807,18.1399,18.2414,18.31,18.3758,18.5176,18.6323,18.7309,18.8756,18.9151,18.9318,19.0305,19.0897,19.1225,19.1225,19.2409,19.3395,19.3395,19.4154,19.4811,19.4811,19.4084,19.369,19.4179,19.3481,19.3384,19.4539,19.4021,19.3182,19.2252,19.0394,18.7385,18.272,18.137,17.9448,17.6527,17.6402,17.71,17.8647,17.8764,17.9386,18.0666,18.0666,18.0898,18.1364,18.1364,18.1829,18.2643,18.2643,18.3109,15.2691,15.6176,15.9439,16.2266,16.3753,16.4476,16.4476,16.4476,16.4476,16.4476,16.3713,16.3318,16.4278,16.3647,16.3318,16.4278,16.4476,16.4476,16.4476,16.4476,16.4476,16.4476,16.4476,16.4476,16.4476,16.4476,16.4476,16.4476,16.5422,16.6434,16.7421,16.9328,17.0775,17.1722,17.2709,17.3169,17.3169,17.3169,17.3169,17.3169,17.3169,17.3169,17.3169,17.3169,17.3169,17.3169,17.3169,17.3169,17.3169,17.3169,17.3761,17.4589,17.4589,17.5772,17.7388,17.6956,17.7087,17.7388,17.689,17.7388,17.8243,17.8703,17.89,17.9163,18.0704,18.1164,18.1559,18.3532,18.4781,18.5833,18.7244,18.7638,18.7901,18.8858,18.9055,18.9055,18.9055,19.0173,19.119,19.119,19.2343,19.3365,19.3365,19.3759,19.4022,19.4022,19.4386,19.4386,19.3431,19.3759,19.3593,19.2314,19.1503,18.8976,18.3997,18.2377,17.9903,17.583,17.5539,17.5734,17.6169,17.6187,17.6769,17.8048,17.8048,17.8281,17.8705,17.8705,17.9153,18.0026,18.0433,18.1131,14.8877,15.2757,15.6505,15.9373,16.2266,16.4278,16.4278,16.4278,16.4344,16.441,16.4476,16.4476,16.4476,16.4476,16.4476,16.4476,16.4476,16.4476,16.4476,16.4476,16.4476,16.4476,16.4476,16.4476,16.4476,16.4476,16.4476,16.4476,16.4476,16.5725,16.8644,16.8841,17.0183,17.2972,17.3169,17.3169,17.3169,17.3169,17.3169,17.3169,17.3169,17.3169,17.3169,17.3169,17.3169,17.3169,17.3169,17.3169,17.3169,17.3169,17.3169,17.3169,17.3169,17.3169,17.3366,17.4786,17.4391,17.3366,17.4786,17.5284,17.5575,17.6956,17.7416,17.7679,17.9098,17.9558,18.0121,18.3108,18.3963,18.4387,18.5767,18.6162,18.6162,18.6228,18.6228,18.6228,18.6228,18.7309,18.8296,18.8296,18.9384,19.0341,19.0341,19.1554,19.2475,19.2475,19.3628,19.3496,19.0735,19.1554,19.1024,18.7353,19.1451,19.1438,18.3859,18.6725,18.5673,17.8103,17.7583,17.6034,17.237,17.2271,17.2853,17.4173,17.4173,17.4773,17.5874,17.5874,17.5874,17.599,17.7252,17.7891,15.403,15.4993,15.5058,15.7886,15.999,16.1083,16.0056,16.0582,16.1937,16.4016,16.4476,16.4476,16.4476,16.4476,16.4476,16.4476,16.4476,16.4476,16.4476,16.4476,16.4476,16.4476,16.4476,16.4896,16.604,16.5093,16.4896,16.604,16.5093,16.4804,16.5659,16.7723,16.9301,17.0051,17.2117,17.3169,17.3169,17.3169,17.3169,17.3169,17.3169,17.3169,17.3169,17.3169,17.3169,17.3169,17.3169,17.3169,17.3169,17.3169,17.3169,17.3169,17.3169,17.3169,17.3235,17.3629,17.3498,17.3235,17.3629,17.4457,17.5416,17.5838,17.5876,17.6167,17.7613,17.8074,17.8468,18.0347,18.169,18.2874,18.4321,18.4686,18.4978,18.5965,18.6228,18.6228,18.6228,18.6491,18.682,18.682,18.7148,18.7411,18.7411,18.8625,18.9546,18.9546,18.899,18.8332,18.7477,18.774,18.7581,18.6587,18.7701,18.6619,18.184,18.2451,17.9914,17.2587,17.2083,17.0909,16.8294,16.816,16.8838,17.0118,17.0118,17.0293,17.0603,17.0603,17.1126,17.2076,17.3395,17.4442,14.9821,15.0916,15.1836,15.5387,15.6439,15.7294,16.0122,15.999,16.0253,16.3753,16.4476,16.4476,16.4476,16.4476,16.4476,16.4476,16.4476,16.4476,16.4476,16.4476,16.4476,16.4476,16.4476,16.483,16.5711,16.558,16.5843,16.6724,16.65,16.6343,16.6343,16.7986,16.917,16.9761,17.1432,17.2577,17.3169,17.3169,17.3169,17.3169,17.3169,17.3169,17.3169,17.3169,17.3169,17.3169,17.3169,17.3169,17.3169,17.3169,17.3169,17.3169,17.3169,17.3169,17.3169,17.3169,17.3169,17.3169,17.3169,17.3761,17.4457,17.4457,17.4457,17.472,17.6167,17.7022,17.7745,17.9229,18.077,18.2114,18.294,18.3203,18.34,18.4218,18.4416,18.4416,18.4416,18.4913,18.5307,18.5307,18.5833,18.6228,18.6228,18.6915,18.7244,18.6652,18.6359,18.6228,18.6228,18.6228,18.6228,18.6228,18.6228,18.5359,18.3239,18.3022,18.0308,17.389,17.3458,17.1317,16.6436,16.6275,16.5985,16.5423,16.5385,16.5385,16.5385,16.5385,16.5755,16.6569,16.8334,16.9013,14.0986,14.3879,14.8285,15.1878,15.1968,15.311,0.0,15.9464,15.7977,16.2135,16.2989,16.3161,16.3647,16.3753,16.3884,16.4344,16.4476,16.4476,16.4476,16.4476,16.4476,16.4476,16.4476,16.4607,16.4936,16.5908,16.6724,16.725,16.8144,16.8709,16.8907,16.9038,16.9722,17.1038,17.1235,17.1919,17.3169,17.3169,17.3169,17.3169,17.3169,17.3169,17.3169,17.3169,17.3169,17.3169,17.3169,17.3169,17.3169,17.3169,17.3169,17.3169,17.3169,17.3169,17.3169,17.3169,17.3169,17.3169,17.3169,17.3169,17.3169,17.3169,17.3169,17.3498,17.4917,17.6364,17.7745,17.9229,18.077,18.1916,18.1916,18.1916,18.1916,18.1916,18.1916,18.1916,18.1916,18.294,18.386,18.386,18.4847,18.5702,18.5702,18.5833,18.5504,18.4058,18.4913,18.5702,18.5702,18.5702,18.5702,18.5702,18.5702,18.5702,18.5702,18.557,18.3333,17.8318,17.7845,17.4053,16.5721,16.5408,16.3879,16.0571,16.0497,16.0497,16.0497,16.0497,16.0497,16.0614,16.3041,16.2867,0.0,0.0,0.0,0.0,0.0,0.0,0.0,14.9051,15.0216,15.3438,15.4072,15.5214,15.8634,15.9292,16.0385,16.391,16.4476,16.4476,16.4476,16.4476,16.4476,16.4476,16.4476,16.5396,16.7789,16.6145,16.6343,16.992,16.8368,16.7684,16.8841,17.0051,17.0775,17.1038,17.2183,17.2906,17.3169,17.3169,17.3169,17.3169,17.3169,17.3169,17.3169,17.3169,17.3169,17.3169,17.3169,17.3169,17.3169,17.3169,17.3169,17.3169,17.3169,17.3169,17.3169,17.3169,17.3169,17.3169,17.3169,17.3169,17.3169,17.3169,17.3169,17.3498,17.4917,17.6364,17.7745,17.9229,18.077,18.1916,18.1916,18.1916,18.1916,18.1916,18.1916,18.1916,18.1916,18.2179,18.2377,18.2377,18.2574,18.2771,18.2771,18.3729,18.3992,18.2574,18.2574,18.2771,18.2771,18.2771,18.2771,18.2771,18.2771,18.2771,18.2771,18.1596,17.9287,17.5399,17.4067,17.0248,16.312,16.2814,16.1245,15.7878,15.7806,15.7806,15.7806,15.7806,15.7806,15.7864,16.0461,16.0286,0.0,0.0,0.0,0.0,0.0,0.0,0.0,0.0,0.0,0.0,0.0,15.2255,15.4425,0.0,15.8766,16.0911,16.3055,16.4476,16.4476,16.4476,16.4476,16.4476,16.4476,16.5002,16.654,16.6671,16.7592,16.9854,17.0012,17.0012,16.9985,17.0643,17.1038,17.1038,17.1761,17.2511,17.3169,17.3169,17.3169,17.3169,17.3169,17.3169,17.3169,17.3169,17.3169,17.3169,17.3169,17.3169,17.3169,17.3169,17.3169,17.3169,17.3169,17.3169,17.3169,17.3169,17.3169,17.3169,17.3169,17.3169,17.3169,17.3169,17.3169,17.3301,17.4062,17.5246,17.6693,17.8111,17.9652,18.0967,18.1719,18.1916,18.1719,18.0967,18.077,18.0573,17.9878,17.9746,17.9746,17.9746,18.031,18.077,18.077,18.077,18.0573,17.9812,18.031,18.077,18.077,18.1427,18.139,17.9878,17.9746,17.9417,17.8666,17.86,17.779,17.6041,17.4562,17.1199,16.5358,16.3541,16.108,15.7696,15.5968,15.5131,15.5131,15.5131,15.5131,15.5189,15.7108,15.7341,0.0,0.0,0.0,0.0,0.0,0.0,0.0,0.0,0.0,0.0,0.0,0.0,0.0,0.0,0.0,15.7911,16.1609,16.4476,16.4476,16.4476,16.4476,16.4476,16.4476,16.4541,16.4896,16.6803,16.8381,16.9235,17.1235,17.2117,17.1498,17.1432,17.1432,17.1432,17.1432,17.2051,17.3169,17.3169,17.3169,17.3169,17.3169,0.0,17.3169,17.3169,17.3169,17.3169,17.3169,17.3169,17.3169,17.3169,17.3169,17.3169,17.3169,17.3169,17.3169,17.3169,17.3169,17.3169,17.3169,17.3169,17.3169,17.3169,17.3169,17.3235,17.3498,17.4391,0.0,17.7087,17.8337,17.9492,18.0732,18.1061,18.0798,17.9492,17.9229,17.89,17.7745,17.7482,17.7482,17.7482,17.8374,17.9229,17.9229,17.8271,17.735,17.7087,17.8243,17.9098,17.8835,18.0112,18.0141,17.7745,17.7482,17.7022,17.5838,17.6561,17.7087,17.7087,17.5706,17.2732,16.7901,16.5166,16.1899,15.7923,15.5124,15.3559,15.3188,15.3188,15.3188,15.3188,15.2978,15.3292,0.0,0.0,0.0,0.0,0.0,0.0,0.0,0.0,0.0,0.0,0.0,0.0,0.0,0.0,0.0,0.0,16.1609,16.4476,16.4476,16.4476,16.4476,16.4476,16.4476,16.5028,16.6395,16.5554,16.6606,17.0511,16.9893,17.0446,17.284,17.2972,0.0,0.0,0.0,17.3038,17.3169,17.3169,17.3169,17.3169,17.3169,17.3169,17.3169,17.3169,17.3169,17.3169,17.3169,17.3169,17.3169,17.3169,17.3169,17.3169,17.3169,17.3169,17.3169,17.3169,17.3169,17.3169,17.3169,0.0,0.0,17.3169,17.3169,17.3432,17.472,17.5219,17.5641,17.7087,17.7613,17.7745,17.797,17.7942,17.7942,17.7745,17.7679,17.7679,17.7482,17.7482,17.7482,17.7482,17.7613,17.7679,17.7679,17.7613,17.7022,17.5772,17.6824,17.7285,17.5942,17.7087,17.7811,17.7482,17.7482,0.0,17.7219,17.6232,17.5547,17.5547,17.4221,17.1231,16.6433,16.5906,16.2721,15.6472,15.5946,15.4904,15.3188,15.3188,15.3188,15.3072,14.7511,14.6755,0.0,0.0,0.0,0.0,0.0,0.0,0.0,0.0,0.0,0.0,0.0,0.0,0.0,0.0,0.0,0.0,15.7886,16.0714,16.0714,16.2858,16.4476,16.4476,16.4476,16.4673,16.5382,16.5645,16.6566,16.8434,16.9591,17.0709,17.1919,17.2774,17.3169,17.3169,17.3169,17.3169,17.3169,17.3169,17.3169,17.3169,17.3169,17.3169,17.3169,17.3169,17.3169,17.3169,17.3169,17.3169,17.3169,17.3169,17.3169,17.3169,0.0,0.0,0.0,0.0,17.3169,17.3169,17.3169,17.3169,17.3169,17.3169,17.3169,17.3301,17.3893,17.409,17.4391,17.5838,17.6824,17.7679,17.8506,17.8703,17.8506,17.7679,17.6824,17.5969,17.5142,17.5011,17.5011,17.5011,17.5641,0.0,17.5142,17.5011,17.4813,17.4221,17.5312,17.6035,17.5416,17.6561,17.6824,17.5142,17.5011,17.4682,17.3799,17.3931,0.0,0.0,0.0,17.3118,17.0302,17.0181,0.0,0.0,0.0,15.5068,14.9896,15.0098,0.0,0.0,14.581,14.437,0.0,0.0,0.0,0.0,0.0,0.0,0.0,0.0,0.0,0.0,0.0,0.0,0.0,0.0,0.0,0.0,15.4425,15.7648,15.6464,15.999,16.2266,16.1083,16.2989,16.395,16.2792,16.4791,16.6526,16.7316,16.896,17.0183,17.1038,17.2051,17.2643,17.2643,17.2972,17.3169,17.3169,17.3169,17.3169,17.3169,17.3169,17.3169,17.3169,17.3169,17.3169,17.3169,17.3169,17.3169,17.3169,17.3169,17.3169,17.3169,17.3169,17.3169,17.3169,17.3169,17.3169,17.3169,17.3169,17.3169,17.3169,17.3169,17.3169,17.3169,17.3169,17.3169,17.3432,17.4457,17.5509,17.6496,17.7585,17.7848,17.7613,17.6496,17.5509,17.4457,17.3432,17.3169,17.3169,17.3169,17.4024,17.4391,17.3366,17.3169,17.3038,17.2643,17.3799,17.4589,17.4167,17.5378,17.5537,17.3432,17.3169,17.2774,17.1722,17.2248,17.2774,17.3169,17.3799,17.3865,17.3235,17.284,17.0366,16.549,16.1454,15.633,0.0,0.0,0.0,0.0,0.0,0.0,0.0,0.0,0.0,0.0,0.0,0.0,0.0,0.0,0.0,0.0,0.0,0.0,0.0,0.0,0.0,0.0,0.0,0.0,15.2386,15.5543,15.6661,15.2518,15.9373,16.2792,15.8634,16.2003,16.5751,16.8644,16.7645,16.8105,17.0906,17.1103,17.1103,17.1103,17.2511,17.3169,17.3169,17.3169,17.3169,17.3169,17.3169,17.3169,17.3169,17.3169,17.3169,17.3169,17.3169,17.3169,17.3169,17.3169,17.3169,17.3169,17.3169,17.3169,17.3169,17.3169,17.3169,17.3169,17.3169,17.3169,17.3169,17.3169,17.3169,17.3169,17.3169,17.3169,17.3169,17.3235,17.3301,17.3301,17.3366,17.3366,17.3366,17.3301,17.3301,17.3235,17.3169,17.3169,17.3169,17.3169,17.3235,17.3235,17.3169,17.3169,17.2709,17.1301,17.2314,0.0,17.1366,17.2446,17.3301,17.3169,17.3169,17.3169,17.3103,17.1892,17.1695,17.3103,17.1919,17.1788,17.3103,17.1827,17.1022,17.0833,16.4293,15.9422,15.6392,0.0,0.0,0.0,0.0,0.0,0.0,0.0,0.0,0.0,0.0,0.0,0.0,0.0,0.0,0.0,0.0,0.0,0.0,0.0,0.0,0.0,0.0,0.0,0.0,15.2847,15.6464,15.2123,15.6727,15.8478,15.4228,15.7648,16.0582,16.166,16.4882,16.7184,16.8171,16.9131,16.9657,16.9657,17.0117,17.084,17.1788,17.1788,17.2248,17.3169,17.3169,17.3169,17.3169,17.3169,17.3169,17.3169,17.3169,17.3169,17.3169,17.3169,17.3169,17.3169,17.3169,17.3169,17.3169,17.3169,17.3169,17.3169,17.3169,17.3169,17.3169,17.3169,17.3169,17.3169,17.3169,17.3169,17.3169,17.3169,17.3893,17.4589,17.4589,17.4589,17.4589,17.4589,17.3893,17.3169,17.3169,17.3169,17.3169,17.3169,17.1629,17.038,17.038,17.1919,17.238,16.9985,17.1629,17.3038,17.2511,17.2906,17.3169,17.3169,17.3169,17.3169,17.3169,17.2774,17.2709,17.3169,17.2774,17.2709,17.3169,17.2709,17.2511,17.2511,16.8015,16.3475,15.8989,0.0,0.0,0.0,0.0,0.0,0.0,0.0,0.0,0.0,0.0,0.0,0.0,0.0,0.0,0.0,0.0,0.0,0.0,0.0,0.0,0.0,0.0,0.0,0.0,0.0,0.0,15.2057,15.5412,0.0,15.1992,15.4096,15.5938,15.6464,15.9555,16.2515,16.508,16.604,16.7263,16.8841,16.9433,16.9854,17.0314,17.0314,17.1038,17.2446,17.1919,17.1919,17.2446,17.1919,17.1985,17.2446,17.2446,17.2709,17.3169,17.3169,17.2314,17.0867,17.0867,16.9946,16.8763,17.0341,17.0867,17.113,17.2643,17.3169,17.2972,17.1393,16.9815,16.8828,17.0407,16.9815,16.8894,17.0473,17.1591,17.2616,17.4194,17.4589,17.4589,17.4589,17.3893,17.3169,17.3169,17.238,17.1985,17.2972,17.1722,17.0117,16.9104,17.0446,17.1038,16.917,17.0511,17.2051,17.3038,17.3169,17.3169,17.3169,17.3169,17.3169,17.3169,17.3169,17.2972,17.2446,17.2446,17.2183,17.1722,17.1656,17.1169,17.0117,16.7458,16.3286,0.0,0.0,0.0,0.0,0.0,0.0,0.0,0.0,0.0,0.0,0.0,0.0,0.0,0.0,0.0,0.0,0.0,0.0,0.0,0.0,0.0,0.0,0.0,0.0,0.0,0.0,0.0,15.14,15.4688,0.0,0.0,0.0,0.0,15.3193,15.2231,15.4622,16.1437,16.1766,16.3804,16.8249,16.9788,16.9985,16.8907,16.8907,16.9657,17.1038,16.9564,16.9657,17.1038,16.9657,16.9854,17.1169,17.1169,17.1919,17.3169,17.2906,17.0341,16.6658,16.6329,16.3673,16.0425,16.4685,16.6263,16.6855,17.1196,17.2774,17.2051,16.7973,16.3804,16.1108,16.508,16.3278,0.0,0.0,16.6263,16.7316,17.1656,17.2774,17.2906,17.3103,17.3169,17.3169,17.3169,17.1038,16.9854,17.238,17.2774,17.1722,16.8775,0.0,16.8512,16.8381,16.8709,16.992,17.2643,17.3103,17.3169,17.3103,17.3103,17.3038,17.2972,17.2972,17.238,17.1038,17.0972,17.0314,16.8972,16.8775,16.7329,16.441,16.2884,0.0,0.0,0.0,0.0,0.0,0.0,0.0,0.0,0.0,0.0,0.0,0.0,0.0,0.0,0.0,0.0,0.0,0.0,0.0,0.0,0.0,0.0,0.0,0.0,0.0,0.0,14.092,14.3133,14.3485,14.4471,14.3902,0.0,0.0,0.0,0.0,0.0,0.0,15.4293,15.4359,15.6332,16.0673,16.2226,16.4896,16.8907,16.8907,16.9657,17.1038,16.9564,16.9657,17.1038,17.0643,17.1301,17.2643,17.2643,17.284,17.284,16.8565,16.6171,16.4751,16.0385,15.8017,15.7097,15.828,15.8675,15.9464,16.483,16.6671,16.654,16.5422,16.4304,16.2792,15.9596,0.0,0.0,0.0,0.0,16.1265,16.5554,16.7552,16.9223,17.2446,17.3169,17.3169,17.3169,17.2643,17.1393,16.8894,16.6658,16.3804,15.9924,16.1897,0.0,16.1133,16.5448,16.917,16.992,17.1854,17.2774,17.1695,17.1591,17.1169,17.0117,17.0051,16.9854,16.9498,16.9433,16.9301,16.8907,16.6803,16.4699,16.2884,0.0,0.0,0.0,0.0,0.0,0.0,0.0,0.0,0.0,0.0,0.0,0.0,0.0,0.0,0.0,0.0,0.0,0.0,0.0,0.0,0.0,0.0,0.0,0.0,0.0,0.0,0.0,13.658,14.0306,14.2344,14.0964,13.9408,0.0,0.0,0.0,0.0,0.0,0.0,0.0,0.0,0.0,15.6045,15.6941,15.865,16.1305,16.3212,16.5185,16.7224,16.775,16.9065,17.1038,17.0446,17.0906,17.2248,17.2248,17.1196,16.9223,16.5908,16.1937,15.7689,0.0,0.0,0.0,0.0,15.3086,15.3809,15.8913,16.0688,16.0359,15.8519,0.0,0.0,0.0,0.0,0.0,0.0,0.0,15.9029,16.3318,16.7026,17.021,17.2577,17.3169,17.3169,17.3169,16.9223,16.4882,16.2515,16.0673,15.8543,15.5519,0.0,0.0,0.0,0.0,16.65,16.7815,17.0473,17.1722,17.0314,17.0117,16.9761,16.8972,16.8907,16.8644,16.8013,16.8013,16.7092,16.5159,16.2884,16.0056,0.0,0.0,0.0,0.0,0.0,0.0,0.0,0.0,0.0,0.0,0.0,0.0,0.0,0.0,0.0,0.0,0.0,0.0,0.0,0.0,0.0,0.0,0.0,0.0,0.0,0.0,0.0,0.0,0.0,14.0065,14.2936,0.0,0.0,0.0,0.0,0.0,0.0,0.0,0.0,0.0,0.0,0.0,0.0,0.0,15.2362,15.1926,15.5609,15.87,16.1174,16.3633,16.6198,16.8736,16.746,16.8144,17.0117,16.9394,0.0,16.4199,16.2792,0.0,0.0,0.0,0.0,0.0,0.0,0.0,0.0,0.0,0.0,0.0,0.0,0.0,0.0,0.0,0.0,0.0,0.0,0.0,0.0,0.0,0.0,17.113,17.0933,17.1459,17.1854,17.1064,16.3041,15.5716,15.5124,15.5058,15.4466,0.0,0.0,0.0,0.0,0.0,0.0,16.5606,16.8736,17.0248,16.8775,16.8644,16.8578,16.8381,16.8315,16.7815,16.6592,16.6132,16.4067,16.0031,15.8478,0.0,0.0,0.0,0.0,0.0,0.0,0.0,0.0,0.0,0.0,0.0,0.0,0.0,0.0,0.0,0.0,0.0,0.0,0.0,0.0,0.0,0.0,0.0,0.0,0.0,0.0,0.0,0.0,0.0,0.0,0.0,0.0,0.0,0.0,0.0,0.0,0.0,0.0,0.0,0.0,0.0,0.0,0.0,0.0,0.0,0.0,0.0,0.0,0.0,0.0,15.4532,15.5124,15.6743,15.6546,15.9768,16.5356,16.0582,16.0122,16.2029,15.3612,0.0,0.0,0.0,0.0,0.0,0.0,0.0,0.0,0.0,0.0,0.0,0.0,0.0,0.0,0.0,0.0,0.0,0.0,0.0,0.0,0.0,0.0,16.041,15.9226,16.2529,16.4699,15.9924,0.0,0.0,0.0,0.0,0.0,0.0,0.0,0.0,0.0,0.0,0.0,16.124,16.5948,16.8736,16.7316,16.7184,16.6632,16.5356,16.5199,16.5159,16.4896,16.2661,16.045,0.0,0.0,0.0,0.0,0.0,0.0,0.0,0.0,0.0,0.0,0.0,0.0,0.0,0.0,0.0,0.0,0.0,0.0,0.0,0.0,0.0,0.0,0.0,0.0,0.0,0.0,0.0,0.0,0.0,0.0,0.0,0.0,0.0,0.0,0.0,0.0,0.0,0.0,0.0,0.0,0.0,0.0,0.0,0.0,0.0,0.0,0.0,0.0,0.0,0.0,0.0,0.0,0.0,0.0,0.0,0.0,0.0,0.0,15.4269,15.0282,0.0,0.0,0.0,0.0,0.0,0.0,0.0,0.0,0.0,0.0,0.0,0.0,0.0,0.0,0.0,0.0,0.0,0.0,0.0,0.0,0.0,0.0,0.0,0.0,0.0,0.0,0.0,0.0,0.0,0.0,0.0,0.0,0.0,0.0,0.0,0.0,0.0,0.0,0.0,0.0,15.8938,16.4199,16.7224,16.5711,16.558,16.5291,16.4476,16.4476,16.3818,16.2332,16.0253,0.0,0.0,0.0,0.0,0.0,0.0,0.0,0.0,0.0,0.0,0.0,0.0,0.0,0.0,0.0,0.0,0.0,0.0,0.0,0.0,0.0,0.0,0.0,0.0,0.0,0.0,0.0,0.0,0.0,0.0,0.0,0.0,0.0,0.0,0.0,0.0,0.0,0.0,0.0,0.0,0.0,0.0,0.0,0.0,0.0,0.0,0.0,0.0,0.0,0.0,0.0,0.0,0.0,0.0,0.0,0.0,0.0,0.0,0.0,14.6862,14.0614,0.0,0.0,0.0,0.0,0.0,0.0,0.0,0.0,0.0,0.0,0.0,0.0,0.0,0.0,0.0,0.0,0.0,0.0,0.0,0.0,0.0,0.0,0.0,0.0,0.0,0.0,0.0,0.0,0.0,0.0,0.0,0.0,0.0,0.0,0.0,0.0,0.0,0.0,0.0,0.0,15.699,16.2515,16.5843,16.4567,16.4476,16.4476,16.4476,16.4476,16.3095,15.9924,15.8108,0.0,0.0,0.0,0.0,0.0,0.0,0.0,0.0,0.0,0.0,0.0,0.0,0.0,0.0,0.0,0.0,0.0,0.0,0.0,0.0,0.0,0.0,0.0,0.0,0.0,0.0,0.0,0.0,0.0,0.0,0.0,0.0,0.0,0.0,0.0,0.0,0.0,0.0,0.0,0.0,0.0,0.0,0.0,0.0,0.0,0.0,0.0,0.0,0.0,0.0,0.0,0.0,0.0,0.0,0.0,0.0,0.0,0.0,0.0,0.0,0.0,0.0,0.0,0.0,0.0,0.0,0.0,0.0,0.0,0.0,0.0,0.0,0.0,0.0,0.0,0.0,0.0,0.0,0.0,0.0,0.0,0.0,0.0,0.0,0.0,0.0,0.0,0.0,0.0,0.0,0.0,0.0,0.0,0.0,0.0,0.0,0.0,0.0,0.0,0.0,0.0,15.4113,16.0294,16.4607,16.4476,16.4476,16.4476,16.4476,16.4476,16.2661,15.8503,0.0,0.0,0.0,0.0,0.0,0.0,0.0,0.0,0.0,0.0,0.0,0.0,0.0,0.0,0.0,0.0,0.0,0.0,0.0,0.0,0.0,0.0,0.0,0.0,0.0,0.0,0.0,0.0,0.0,0.0,0.0,0.0,0.0,0.0,0.0,0.0,0.0,0.0,0.0,0.0,0.0,0.0,0.0,0.0,0.0,0.0,0.0,0.0,0.0,0.0,0.0,0.0,0.0,0.0,0.0,0.0,0.0,0.0,0.0,0.0,0.0,0.0,0.0,0.0,0.0,0.0,0.0,0.0,0.0,0.0,0.0,0.0,0.0,0.0,0.0,0.0,0.0,0.0,0.0,0.0,0.0,0.0,0.0,0.0,0.0,0.0,0.0,0.0,0.0,0.0,0.0,0.0,0.0,0.0,0.0,0.0,0.0,0.0,0.0,0.0,0.0,0.0,15.3653,16.0031,16.4476,16.4476,16.4476,16.4476,16.4476,16.4476,16.1872,15.5847,0.0,0.0,0.0,0.0,0.0,0.0,0.0,0.0,0.0,0.0,0.0,0.0,0.0,0.0,0.0,0.0,0.0,0.0,0.0,0.0,0.0,0.0,0.0,0.0,0.0,0.0,0.0,0.0,0.0,0.0,0.0,0.0,0.0,0.0,0.0,0.0,0.0,0.0,0.0,0.0,0.0,0.0,0.0,0.0,0.0,0.0,0.0,0.0,0.0,0.0,0.0,0.0,0.0,0.0,0.0,0.0,0.0,0.0,0.0,0.0,0.0,0.0,0.0,0.0,0.0,0.0,0.0,0.0,0.0,0.0,0.0,0.0,0.0,0.0,0.0,0.0,0.0,0.0,0.0,0.0,0.0,0.0,0.0,0.0,0.0,0.0,0.0,0.0,0.0,0.0,0.0,0.0,0.0,0.0,0.0,0.0,0.0,0.0,0.0,0.0,0.0,0.0,15.302,15.9768,16.4476,16.4476,16.4476,16.4476,16.4476,16.4476,16.1189,15.3587,0.0,0.0,0.0,0.0,0.0,0.0,0.0,0.0,0.0,0.0,0.0,0.0,0.0,0.0,0.0,0.0,0.0,0.0,0.0,0.0,0.0,0.0,0.0,0.0,0.0,0.0,0.0,0.0,0.0,0.0,0.0,0.0,0.0,0.0,0.0,0.0,0.0,0.0,0.0,0.0,0.0,0.0,0.0,0.0,0.0,0.0,0.0,0.0,0.0,0.0,0.0,0.0,0.0,0.0,0.0,0.0,0.0,0.0,0.0,0.0,0.0,0.0,0.0,0.0,0.0,0.0,0.0,0.0,0.0,0.0,0.0,0.0,0.0,0.0,0.0,0.0,0.0,0.0,0.0,0.0,0.0,0.0,0.0,0.0,0.0,0.0,0.0,0.0,0.0,0.0,0.0,0.0,0.0,0.0,0.0,0.0,0.0,0.0,0.0,0.0,0.0,0.0,15.1663,15.911,16.4476,16.4476,16.4476,16.4476,16.4476,16.4476,16.082,0.0,0.0,0.0,0.0,0.0,0.0,0.0,0.0,0.0,0.0,0.0,0.0,0.0,0.0,0.0,0.0,0.0,0.0,0.0,0.0,0.0,0.0,0.0,0.0,0.0,0.0,0.0,0.0,0.0,0.0,0.0,0.0,0.0,0.0,0.0,0.0,0.0,0.0,0.0,0.0,0.0,0.0,0.0,0.0,0.0,0.0,0.0,0.0,0.0,0.0,0.0,0.0,0.0,0.0,0.0,0.0,0.0,0.0,0.0,0.0,0.0,0.0,0.0,0.0,0.0,0.0,0.0,0.0,0.0,0.0,0.0,0.0,0.0,0.0,0.0,0.0,0.0,0.0,0.0,0.0,0.0,0.0,0.0,0.0,0.0,0.0,0.0,0.0,0.0,0.0,0.0,0.0,0.0,0.0,0.0,0.0,0.0,0.0,0.0,0.0,0.0,0.0,0.0,15.1202,15.6595,16.124,0.0,16.4476,16.4476,16.4476,16.4476,16.0754,15.2189,0.0,0.0,0.0,0.0,0.0,0.0,0.0,0.0,0.0,0.0,0.0,0.0,0.0,0.0,0.0,0.0,0.0,0.0,0.0,0.0,0.0,0.0,0.0,0.0,0.0,0.0,0.0,0.0,0.0,0.0,0.0,0.0,0.0,0.0,0.0,0.0,0.0,0.0,0.0,0.0,0.0,0.0,0.0,0.0,0.0,0.0,0.0,0.0,0.0,0.0,0.0,0.0,0.0,0.0,0.0,0.0,0.0,0.0,0.0,0.0,0.0,0.0,0.0,0.0,0.0,0.0,0.0,0.0,0.0,0.0,0.0,0.0,0.0,0.0,0.0,0.0,0.0,0.0,0.0,0.0,0.0,0.0,0.0,0.0,0.0,0.0,0.0,0.0,0.0,0.0,0.0,0.0,0.0,0.0,0.0,0.0,0.0,0.0,0.0,0.0,0.0,0.0,0.0,15.6793,16.1503,0.0,16.4476,16.4476,16.4476,16.4476,16.0754,15.2189,0.0,0.0,0.0,0.0,0.0,0.0,0.0,0.0,0.0,0.0,0.0,0.0,0.0,0.0,0.0,0.0,0.0,0.0,0.0,0.0,0.0,0.0,0.0,0.0,0.0,0.0,0.0,0.0,0.0,0.0,0.0,0.0,0.0,0.0,0.0,0.0,0.0,0.0,0.0,0.0,0.0,0.0,0.0,0.0,0.0,0.0,0.0,0.0,0.0,0.0,0.0,0.0,0.0,0.0,0.0,0.0,0.0,0.0,0.0,0.0,0.0,0.0,0.0,0.0,0.0,0.0,0.0,0.0,0.0,0.0,0.0,0.0,0.0,0.0,0.0,0.0,0.0,0.0,0.0,0.0,0.0,0.0,0.0,0.0,0.0,0.0,0.0,0.0,0.0,0.0,0.0,0.0,0.0,0.0,0.0,0.0,0.0,0.0,0.0,0.0,0.0,0.0,0.0,15.8609,16.3753,16.441,16.4476,16.4476,16.4476,16.4476,16.0754,15.2189,15.1531,0.0,0.0,0.0,0.0,0.0,0.0,0.0,0.0,0.0,0.0,0.0,0.0,0.0,0.0,0.0,0.0,0.0,0.0,0.0,0.0,0.0,0.0,0.0,0.0,0.0,0.0,0.0,0.0,0.0,0.0,0.0,0.0,0.0,0.0,0.0,0.0,0.0,0.0,0.0,0.0,0.0,0.0,0.0,0.0,0.0,0.0,0.0,0.0,0.0,0.0,0.0,0.0,0.0,0.0,0.0,0.0,0.0,0.0,0.0,0.0,0.0,0.0,0.0,0.0,0.0,0.0,0.0,0.0,0.0,0.0,0.0,0.0,0.0,0.0,0.0,0.0,0.0,0.0,0.0,0.0,0.0,0.0,0.0,0.0,0.0,0.0,0.0,0.0,0.0,0.0,0.0,0.0,0.0,0.0,0.0,0.0,0.0,0.0,0.0,0.0,0.0,0.0,15.3373,15.7163,16.3753,16.4476,16.4476,16.4476,16.4476,16.0754,15.2189,15.061,0.0,0.0,0.0,0.0,0.0,0.0,0.0,0.0,0.0,0.0,0.0,0.0,0.0,0.0,0.0,0.0,0.0,0.0,0.0,0.0,0.0,0.0,0.0,0.0,0.0,0.0,0.0,0.0,0.0,0.0,0.0,0.0,0.0,0.0,0.0,0.0,0.0,0.0,0.0,0.0,0.0,0.0,0.0,0.0,0.0,0.0,0.0,0.0,0.0,0.0,0.0,0.0,0.0,0.0,0.0,0.0,0.0,0.0,0.0,0.0,0.0,0.0,0.0,0.0,0.0,0.0,0.0,0.0,0.0,0.0,0.0,0.0,0.0,0.0,0.0,0.0,0.0,0.0,0.0,0.0,0.0,0.0,0.0,0.0,0.0,0.0,0.0,0.0,0.0,0.0,0.0,0.0,0.0,0.0,0.0,0.0,0.0,0.0,0.0,0.0,0.0,0.0,15.0347,15.4951,16.3555,16.4476,16.4476,16.4476,16.4476,16.0754,15.2189,14.96,0.0,0.0,0.0,0.0,0.0,0.0,0.0,0.0,0.0,0.0,0.0,0.0,0.0,0.0,0.0,0.0,0.0,0.0,0.0,0.0,0.0,0.0,0.0,0.0,0.0,0.0,0.0,0.0,0.0,0.0,0.0,0.0,0.0,0.0,0.0,0.0,0.0,0.0,0.0,0.0,0.0,0.0,0.0,0.0,0.0,0.0,0.0,0.0,0.0,0.0,0.0,0.0,0.0,0.0,0.0,0.0,0.0,0.0,0.0,0.0,0.0,0.0,0.0,0.0,0.0,0.0,0.0,0.0,0.0,0.0,0.0,0.0,0.0,0.0,0.0,0.0,0.0,0.0,0.0,0.0,0.0,0.0,0.0,0.0,0.0,0.0,0.0,0.0,0.0,0.0,0.0,0.0,0.0,0.0,0.0,0.0,0.0,0.0,0.0,0.0,0.0,0.0,0.0,15.4466,16.1978,16.4239,16.4936,16.4476,16.4673,16.0951,15.186,0.0,0.0,0.0,0.0,0.0,0.0,0.0,0.0,0.0,0.0,0.0,0.0,0.0,0.0,0.0,0.0,0.0,0.0,0.0,0.0,0.0,0.0,0.0,0.0,0.0,0.0,0.0,0.0,0.0,0.0,0.0,0.0,0.0,0.0,0.0,0.0,0.0,0.0,0.0,0.0,0.0,0.0,0.0,0.0,0.0,0.0,0.0,0.0,0.0,0.0,0.0,0.0,0.0,0.0,0.0,0.0,0.0,0.0,0.0,0.0,0.0,0.0,0.0,0.0,0.0,0.0,0.0,0.0,0.0,0.0,0.0,0.0,0.0,0.0,0.0,0.0,0.0,0.0,0.0,0.0,0.0,0.0,0.0,0.0,0.0,0.0,0.0,0.0,0.0,0.0,0.0,0.0,0.0,0.0,0.0,0.0,0.0,0.0,0.0,0.0,0.0,0.0,0.0,0.0,0.0,15.5165,16.3121,16.7197,16.4673,16.5645,16.166,15.0521,0.0,0.0,0.0,0.0,0.0,0.0,0.0,0.0,0.0,0.0,0.0,0.0,0.0,0.0]}],[{"header":{"parameterUnit":"kt","parameterCategory":2,"dx":1,"dy":1,"la1":29.285339999999998,"la2":30.599998999999997,"lo1":-89.70041500000002,"lo2":-87.6738589999976,"nx":112,"ny":82,"refTime":"2022-09-24T12:00:00:Z","depth":0,"parameterNumber":2,"parameterNumberName":"V-component_of_WINDS"},"data":[11.6663,11.3972,11.237,11.1429,11.0974,0.0,11.048,0.0,0.0,0.0,0.0,0.0,0.0,0.0,0.0,0.0,0.0,0.0,0.0,11.509,11.509,11.509,11.509,11.5204,11.5491,12.1691,12.5549,12.4925,13.6512,13.8613,12.7128,14.3499,14.8791,13.9074,15.1323,15.8513,15.958,16.0361,15.8849,15.5004,15.6917,15.7914,15.8172,16.024,16.3377,16.7166,16.7166,16.7166,16.7166,16.7166,16.7166,16.7166,16.7166,16.7166,16.7166,16.7166,16.7166,16.7166,16.7166,16.7166,16.7166,16.7166,16.7166,16.7166,16.7166,16.7166,16.7166,16.7166,16.7166,16.7166,16.7166,16.7166,16.7166,16.7166,16.7166,16.7166,16.7166,16.7166,16.7166,16.7166,16.7166,16.7258,16.7654,16.7703,16.7703,16.7703,16.8338,16.8826,16.9222,17.0199,17.1175,17.1949,17.2347,17.2835,17.356,17.356,17.356,17.356,17.356,17.356,17.356,17.356,17.356,17.356,17.356,17.356,17.356,17.4626,17.5171,17.5171,17.5171,17.4772,11.3376,11.1201,11.1011,11.0176,0.0,0.0,0.0,0.0,0.0,0.0,0.0,0.0,0.0,0.0,0.0,0.0,0.0,0.0,0.0,11.4352,11.509,11.509,11.509,11.515,11.5432,11.9989,12.2852,12.2521,13.3603,13.5773,12.5116,14.1995,14.8016,13.9403,15.1014,15.8132,15.9481,16.0347,15.8796,15.485,15.6762,15.6536,15.4561,15.9003,16.1919,16.3714,16.6107,16.7166,16.7166,16.7166,16.7166,16.7166,16.7166,16.7166,16.7166,16.7166,16.7166,16.7166,16.7166,16.7166,16.7166,16.7166,16.7166,16.7166,16.7166,16.7166,16.7166,16.7166,16.7166,16.7166,16.7166,16.7166,16.7166,16.7166,16.7166,16.7166,16.7166,16.7166,16.7166,16.7166,16.7166,16.7166,16.7166,16.7166,16.7166,16.7166,16.7758,16.8191,16.8191,16.9119,17.0052,17.0834,17.1224,17.1859,17.2982,17.3072,17.3218,17.356,17.356,17.356,17.356,17.356,17.356,17.356,17.356,17.356,17.356,17.43,17.4577,17.4577,17.4577,17.4195,11.083,0.0,0.0,10.7708,0.0,0.0,0.0,0.0,10.8872,0.0,0.0,0.0,0.0,0.0,0.0,0.0,0.0,0.0,0.0,11.3024,11.509,11.509,11.515,11.5437,11.6196,11.7048,11.7901,11.8943,12.8187,12.9762,12.0651,13.949,14.7336,14.0409,15.138,15.8414,16.049,16.0683,16.0671,16.0515,16.2558,15.9972,15.3698,16.27,16.3235,15.7365,16.4193,16.7166,16.7166,16.7166,16.7166,16.7166,16.7166,16.7166,16.7166,16.7166,16.7166,16.7166,16.7166,16.7166,16.7166,16.7166,16.7166,16.7166,16.7166,16.7166,16.7166,16.7166,16.7166,16.7166,16.7166,16.7166,16.7166,16.7166,16.7166,16.7166,16.7166,16.7166,16.7166,16.7166,16.7166,16.7166,16.7166,16.7166,16.7166,16.7166,16.7166,16.7166,16.7166,16.7996,16.8679,16.8734,16.9607,17.0687,17.1859,17.2005,17.2494,17.347,17.356,17.356,17.356,17.356,17.356,17.356,17.356,17.356,17.356,17.356,17.356,17.356,17.356,17.356,10.8861,0.0,0.0,0.0,0.0,0.0,0.0,0.0,0.0,0.0,0.0,0.0,0.0,0.0,11.0366,0.0,0.0,11.3502,11.2818,11.458,11.5947,11.5947,11.6424,11.6879,11.7069,11.8415,12.0502,12.3595,12.7488,12.8559,12.6011,13.7773,14.3166,13.9969,15.0497,15.7181,15.9319,16.0143,15.8461,15.4269,15.5423,15.5453,15.4608,15.7774,16.1098,16.4399,16.6313,16.7166,16.7166,16.7166,16.7166,16.7166,16.7166,16.7166,16.7166,16.7166,16.7166,16.7166,16.7166,16.7166,16.7166,16.7166,16.7166,16.7166,16.7166,16.7166,16.7166,16.7166,16.7166,16.7166,16.7166,16.7166,16.7166,16.7166,16.7166,16.7166,16.7166,16.7166,16.7166,16.7166,16.7166,16.7166,16.7166,16.7166,16.7166,16.7166,16.7166,16.7166,16.7166,16.7416,16.7904,16.8631,16.8972,16.9564,17.0687,17.1517,17.2152,17.2437,17.3177,17.356,17.356,17.356,17.356,17.356,17.356,17.356,17.356,17.356,17.356,17.356,17.356,17.356,0.0,0.0,0.0,0.0,0.0,0.0,0.0,0.0,10.7329,0.0,0.0,0.0,0.0,0.0,0.0,0.0,11.1718,11.322,11.1794,11.458,11.6765,11.6765,11.7162,11.741,11.741,12.0029,12.2223,12.322,12.7466,12.8557,12.5409,13.4574,14.0114,14.0401,14.8727,15.5434,16.008,16.0391,15.7879,15.2463,15.2947,15.2014,14.9995,15.4455,15.822,16.1568,16.5453,16.6873,16.6429,16.6966,16.7166,16.7166,16.7166,16.7166,16.7166,16.7166,16.7166,16.7166,16.7166,16.7166,16.7166,16.7166,16.7166,16.7166,16.7166,16.7166,16.7166,16.7166,16.7166,16.7166,16.7166,16.7166,16.7166,16.7166,16.7166,16.7166,16.7166,16.7166,16.7166,16.7166,16.7166,16.7166,16.7166,16.7166,16.7166,16.7166,16.7166,16.7166,16.7166,16.7166,16.7416,16.7996,16.8099,16.8484,16.9564,17.0248,17.0834,17.1266,17.2347,17.2926,17.2926,17.3365,17.356,17.356,17.356,17.356,17.356,17.356,17.356,17.356,17.356,17.356,0.0,0.0,0.0,0.0,10.4849,0.0,0.0,0.0,10.7364,10.8557,0.0,10.9718,11.0204,0.0,0.0,10.7417,11.0974,11.2932,10.9821,11.4185,11.7638,11.7562,11.7638,11.7731,11.7731,12.1414,12.327,12.1682,12.7518,12.8762,12.328,13.1159,13.7297,14.0357,14.6054,15.2506,15.9791,15.9877,15.7645,15.3342,15.4188,15.0891,14.4501,15.3498,15.6279,15.4418,16.3308,16.6575,16.5692,16.677,16.7166,16.7166,16.7166,16.7166,16.7166,16.7166,16.7166,16.7166,16.7166,16.7166,16.7166,16.7166,16.7166,16.7166,16.7166,16.7166,16.7166,16.7166,16.7166,16.7166,16.7166,16.7166,16.7166,16.7166,16.7166,16.7166,16.7166,16.7166,16.7166,16.7166,16.7166,16.7166,16.7166,16.7166,16.7166,16.7166,16.7166,16.7166,16.7166,16.7166,16.7166,16.7166,16.7166,16.7508,16.8484,16.8631,16.9119,17.0052,17.1322,17.2005,17.2005,17.3087,17.356,17.356,17.356,17.356,17.356,17.356,17.356,17.356,17.356,17.356,0.0,0.0,0.0,0.0,0.0,10.5191,0.0,0.0,0.0,10.9949,11.2532,11.4349,11.2433,11.2051,11.19,11.1406,11.3821,11.5285,11.4011,11.7048,11.9232,11.8549,11.906,11.9459,11.9459,12.0229,12.3724,13.0721,12.5735,12.5592,13.3098,13.1935,13.2325,13.5112,14.0745,14.4917,14.7311,15.2877,15.4769,15.317,15.9029,15.8505,15.2508,16.0214,16.1281,15.7367,16.4167,16.702,16.6873,16.7074,16.7166,16.7166,16.7166,16.7166,16.7166,16.7166,16.7166,16.7166,16.7166,16.7166,16.7166,16.7166,16.7166,16.7166,16.7166,16.7166,16.7166,16.7166,16.7166,16.7166,16.7166,16.7166,16.7166,16.7166,16.7166,16.7166,16.7166,16.7166,16.7166,16.7166,16.7166,16.7166,16.7166,16.7166,16.7166,16.7166,16.7166,16.7166,16.7166,16.7166,16.7166,16.7166,16.7166,16.7269,16.7453,16.8246,16.8826,16.8972,17.0938,17.2005,17.2005,17.3087,17.356,17.356,17.356,17.356,17.356,17.356,17.356,17.356,17.356,17.356,0.0,0.0,0.0,10.3049,0.0,0.0,0.0,10.7621,10.9421,10.9386,11.1401,11.3053,11.2627,11.2545,11.2712,11.3077,11.4868,11.6403,11.682,11.8699,11.9801,11.9402,11.9687,11.9971,11.9971,11.9971,12.2845,12.9886,12.8738,12.8212,12.9355,12.9967,13.1426,13.37,13.653,14.0202,14.4679,14.7706,14.794,14.5512,15.1237,15.259,15.0388,15.7112,16.0459,16.1091,16.5381,16.6873,16.6337,16.6917,16.6825,16.6282,16.6282,16.5941,16.5556,16.5556,16.5848,16.6282,16.6282,16.6678,16.7166,16.7166,16.7166,16.7166,16.7166,16.7166,16.7166,16.7166,16.7166,16.7166,16.7166,16.7166,16.7166,16.7166,16.7166,16.7166,16.7166,16.7166,16.7166,16.7166,16.7166,16.7166,16.7166,16.7166,16.7166,16.7166,16.7166,16.7166,16.7166,16.7166,16.7166,16.7166,16.7166,16.7166,16.7166,16.7654,16.7953,16.7953,16.946,17.0645,17.112,17.2257,17.3072,17.356,17.356,17.356,17.356,17.3072,17.3072,17.356,17.356,17.356,0.0,0.0,0.0,0.0,0.0,0.0,10.5001,10.665,10.8123,10.9192,11.0661,11.1982,11.2857,11.3054,11.3305,11.4071,11.5491,11.7048,11.8756,11.9516,11.9971,11.9971,11.9971,11.9971,11.9971,11.9971,12.1611,12.5505,13.0902,13.1126,12.4401,12.7576,13.0355,13.2006,13.2184,13.5361,14.1731,14.2408,14.1031,13.7792,14.3862,14.6483,14.6259,15.3838,15.9276,16.2867,16.5849,16.6624,16.5795,16.677,16.6429,16.5453,16.5453,16.4819,16.3843,16.3843,16.4384,16.5111,16.5111,16.5897,16.6825,16.6825,16.6966,16.7166,16.7166,16.7166,16.7166,16.7166,16.7166,16.7166,16.7166,16.7166,16.7166,16.7166,16.7166,16.7166,16.7166,16.7166,16.7166,16.7166,16.7166,16.7166,16.7166,16.7166,16.7166,16.7166,16.7166,16.7166,16.7166,16.7166,16.7166,16.7166,16.7166,16.7166,16.7166,16.7166,16.7166,16.7166,16.8142,16.9076,16.9948,17.1029,17.2096,17.2926,17.2982,17.3072,17.3275,17.2437,17.2598,17.356,17.356,17.356,9.8804,0.0,0.0,10.134,10.1976,0.0,10.6494,11.0289,11.2891,11.2284,11.5158,11.7175,11.5146,11.4786,11.5036,11.5833,11.6706,11.7866,11.9573,11.9857,11.9971,11.9971,11.9971,11.9971,11.9971,11.9971,12.0502,12.1834,12.6272,12.9186,12.972,12.6466,12.5006,12.5982,12.6628,12.7444,12.8272,13.5219,13.7977,13.6777,15.001,15.2976,14.7248,15.9987,16.3145,15.8816,16.4633,16.7112,16.702,16.7112,16.6429,16.5453,16.5453,16.4819,16.3843,16.3843,16.3945,16.4038,16.4038,16.4716,16.5599,16.5599,16.6282,16.7166,16.7166,16.7166,16.7166,16.7166,16.7166,16.7166,16.7166,16.7166,16.7166,16.7166,16.7166,16.7166,16.7166,16.7166,16.7166,16.7166,16.7166,16.7166,16.7166,16.7166,16.7166,16.7166,16.7166,16.7166,16.7166,16.7166,16.7166,16.7166,16.7166,16.7166,16.7166,16.7166,16.7166,16.7166,16.8142,16.8783,16.8929,16.9948,17.0541,17.0632,17.0632,17.1175,17.2201,17.211,17.2598,17.356,17.356,17.356,9.8065,9.8293,9.909,10.1368,0.0,0.0,10.6038,10.8899,11.1012,11.1659,11.3554,11.5142,11.5073,11.509,11.5491,11.6765,11.722,11.781,11.906,11.963,11.9971,11.9971,11.9971,11.9971,11.9971,11.9971,12.0085,12.0484,12.2261,12.5279,12.978,12.9182,12.7554,12.508,12.5303,12.5721,12.6176,12.9431,13.1149,13.1365,14.0892,14.4113,14.2045,15.1199,15.6302,15.7987,16.0581,16.3803,16.6846,16.2584,16.1888,16.3603,16.3603,16.2969,16.2041,16.2041,16.2432,16.2969,16.2969,16.3648,16.4477,16.4477,16.5307,16.6136,16.6136,16.6624,16.7166,16.7166,16.7166,16.7166,16.7166,16.7166,16.7166,16.7166,16.7166,16.7166,16.7166,16.7166,16.7166,16.7166,16.7166,16.7166,16.7166,16.7166,16.7166,16.7166,16.7166,16.7166,16.7166,16.7166,16.7166,16.7166,16.7166,16.7166,16.7166,16.7166,16.7166,16.7166,16.7611,16.8099,16.8734,16.9119,16.9655,17.029,17.029,17.0541,17.1029,17.0394,17.0632,17.1698,17.2982,17.356,9.7268,0.0,0.0,0.0,0.0,0.0,10.5848,10.7658,10.9213,11.1163,11.2089,11.3077,11.4786,11.509,11.5546,11.6879,11.7107,11.7504,11.8605,11.9232,11.9687,11.9915,11.9971,11.9971,11.9971,11.9971,12.0029,12.0313,12.0313,12.2555,12.7782,12.9244,12.8351,12.508,12.5021,12.5265,12.5835,12.6062,12.6518,12.7245,13.3537,13.6958,13.7865,14.4171,14.9915,15.4942,15.5159,15.7587,16.0885,15.5589,15.5007,15.7528,15.9175,15.9236,15.8485,16.0152,16.1264,16.1899,16.1899,16.2578,16.3457,16.3457,16.4136,16.4965,16.4965,16.5546,16.6282,16.6624,16.6678,16.677,16.7112,16.7166,16.7166,16.7166,16.7166,16.7166,16.7166,16.7166,16.7166,16.7166,16.7166,16.7166,16.7166,16.7166,16.7166,16.7166,16.7166,16.7166,16.7166,16.7166,16.7166,16.7166,16.7166,16.7166,16.7166,16.7166,16.7166,16.7166,16.7166,16.7508,16.8246,16.8338,16.8631,16.9405,16.946,16.946,16.946,16.8972,16.9076,16.9948,17.2152,17.3177,0.0,0.0,0.0,10.0694,10.1862,10.3304,10.6683,10.8075,10.9365,11.1976,11.2507,11.3077,11.4786,11.509,11.5318,11.6137,11.6289,11.682,11.8529,11.8813,11.906,11.9857,11.9971,11.9971,11.9971,11.9971,12.0313,12.1168,12.1281,12.2023,12.3888,12.406,12.4361,12.4962,12.5021,12.5021,12.5021,12.5721,12.6176,12.6274,13.3434,13.6848,13.7105,14.4145,14.745,14.7665,14.844,14.7971,14.6564,14.6363,14.5738,14.5535,15.1384,15.3011,15.2769,15.8638,16.0776,16.0776,16.0776,16.1508,16.2334,16.2334,16.3066,16.3896,16.3896,16.3945,16.4184,16.5214,16.5453,16.5692,16.6873,16.7166,16.7166,16.7166,16.7166,16.7166,16.7166,16.7166,16.7166,16.7166,16.7166,16.7166,16.7166,16.7166,16.7166,16.7166,16.7166,16.7166,16.7166,16.7166,16.7166,16.7166,16.7166,16.7166,16.7166,16.7166,16.7166,16.7166,16.7166,16.7166,16.7215,16.7215,16.7215,16.7258,16.7258,16.7258,16.7258,16.8246,16.8734,16.8826,17.1029,17.211,9.6159,9.9205,10.2422,10.286,10.555,10.8025,10.7593,10.8582,11.0138,11.2127,11.2545,11.3077,11.4786,11.509,11.515,11.5432,11.5909,11.6424,11.7048,11.8073,11.887,11.9154,11.963,11.9971,11.9971,11.9971,12.0085,12.0332,12.037,12.0883,12.2079,12.2667,12.335,12.4206,12.4679,12.5021,12.5021,12.5249,12.5379,12.5379,12.8338,12.9753,12.9851,13.281,13.6435,14.0383,14.0659,14.0,13.8774,13.8774,14.2907,14.9515,15.1566,15.4545,15.801,16.0047,16.0776,16.0776,16.0776,16.0971,16.1313,16.1313,16.1944,16.2822,16.2822,16.3364,16.3945,16.4331,16.4384,16.4624,16.5692,16.6044,16.619,16.6966,16.7166,16.7166,16.7166,16.7166,16.7166,16.7166,16.7166,16.7166,16.7166,16.7166,16.7166,16.7166,16.7166,16.7166,16.7166,16.7166,16.7166,16.7166,16.7166,16.7166,16.7166,16.7166,16.7166,16.7166,16.7166,16.7166,16.7166,16.7166,16.7166,16.7166,16.7166,16.7166,16.7166,16.7508,16.7996,16.8734,16.946,17.0199,9.6159,9.9346,10.2716,10.3233,10.6354,10.9013,10.7784,10.8809,11.0418,11.1786,11.2317,11.2963,11.4352,11.458,11.4694,11.5036,11.5491,11.5947,11.6196,11.7162,11.7959,11.8207,11.9004,11.9516,11.9516,11.9744,11.9971,11.9971,11.9971,12.0313,12.1224,12.1756,12.2611,12.3768,12.4279,12.4679,12.5021,12.5021,12.5021,12.5021,12.5493,12.5721,12.5721,12.6631,12.925,13.2983,13.2723,13.2146,13.1475,13.1475,13.7008,14.561,14.7751,15.2285,15.7852,15.9946,16.0776,16.0776,16.0776,16.0776,16.0776,16.0776,16.1215,16.17,16.17,16.2188,16.2822,16.3209,16.3262,16.3603,16.457,16.4872,16.516,16.6282,16.6532,16.6532,16.6532,16.6873,16.7166,16.7166,16.7166,16.7166,16.7166,16.7166,16.7166,16.7166,16.7166,16.7166,16.7166,16.7166,16.7166,16.7166,16.7166,16.7166,16.7166,16.7166,16.7166,16.7166,16.7166,16.7166,16.7166,16.7166,16.7166,16.7166,16.7166,16.7166,16.7166,16.7166,16.7508,16.8191,16.8588,16.9076,9.6084,9.7748,9.9752,10.2024,10.4629,10.6833,10.738,10.8809,11.0214,11.1049,11.1847,11.2682,11.3441,11.3669,11.4011,11.4862,11.5036,11.5318,11.6116,11.6196,11.6537,11.7241,11.8187,11.8719,11.8756,11.9402,11.9915,11.9971,11.9971,12.0313,12.1168,12.1281,12.2041,12.3636,12.3768,12.4206,12.4907,12.4962,12.5021,12.5021,12.5021,12.5021,12.5021,12.5721,12.6062,12.6062,12.5362,12.5021,12.5021,12.5316,12.878,13.4553,14.0506,14.6555,15.25,15.8169,16.0466,16.0776,16.0776,16.0776,16.0776,16.0776,16.0776,16.0776,16.0776,16.0776,16.0971,16.1944,16.2237,16.2481,16.3501,16.375,16.4038,16.5058,16.5307,16.535,16.5399,16.6282,16.702,16.7074,16.7112,16.7166,16.7166,16.7166,16.7166,16.7166,16.7166,16.7166,16.7166,16.7166,16.7166,16.7166,16.7166,16.7166,16.7166,16.7166,16.7166,16.7166,16.7166,16.7166,16.7166,16.7166,16.7166,16.7166,16.7166,16.7166,16.7166,16.7166,16.7166,16.7166,16.8191,16.8631,9.7382,10.153,10.5,10.4456,10.8034,11.0922,10.8152,10.8809,11.0214,11.1049,11.1391,11.1581,11.1756,11.2818,11.3789,11.4011,11.4634,11.515,11.5378,11.5854,11.631,11.6537,11.7276,11.8073,11.8699,11.8946,11.9288,11.9915,11.9971,12.0029,12.0256,12.094,12.1509,12.1965,12.3181,12.392,12.411,12.4679,12.5021,12.5021,12.5021,12.5021,12.5021,12.5189,12.5265,12.5265,12.5076,12.5021,12.5316,12.9809,13.2526,13.4553,14.0506,14.6555,15.1977,15.352,15.6911,16.0776,16.0776,16.0776,16.0776,16.0776,16.0776,16.0776,16.0776,16.0776,16.0825,16.1069,16.1166,16.1411,16.2432,16.2676,16.2969,16.3989,16.4229,16.4477,16.5204,16.5068,16.4965,16.5692,16.6575,16.7166,16.7166,16.7166,16.7166,16.7166,16.7166,16.7166,16.7166,16.7166,16.7166,16.7166,16.7166,16.7166,16.7166,16.7166,16.7166,16.7166,16.7166,16.7166,16.7166,16.7166,16.7166,16.7166,16.7166,16.7166,16.7166,16.7166,16.7166,16.7166,16.7405,16.7562,9.7108,10.1087,10.4713,10.4909,10.767,10.9816,10.7912,10.8506,10.9683,11.0518,11.067,11.0784,11.1163,11.1946,11.2818,11.3615,11.4125,11.458,11.5036,11.5437,11.5719,11.5719,11.6424,11.7107,11.7618,11.7959,11.8529,11.9345,11.9402,11.9573,11.9915,12.0427,12.0883,12.1281,12.2553,12.3426,12.3806,12.4565,12.5021,12.5021,12.5021,12.5021,12.5021,12.5021,12.5021,12.5021,12.5021,12.5021,12.5219,12.8585,13.3159,13.8169,14.16,14.8124,15.5749,15.5749,15.7905,16.0776,16.0776,16.0776,16.0776,16.0776,16.0776,16.0776,16.0776,16.0776,16.0776,16.0776,16.0776,16.0874,16.1508,16.1655,16.1846,16.292,16.316,16.3355,16.3945,16.3603,16.3501,16.4526,16.5648,16.6375,16.6375,16.6825,16.7166,16.7166,16.7166,16.7166,16.7166,16.7166,16.7166,16.7166,16.7166,16.7166,16.7166,16.7166,16.7166,16.7166,16.7166,16.7166,16.7166,16.7166,16.7166,16.7166,16.7166,16.7166,16.7166,16.7166,16.7166,16.7166,16.7166,16.7166,9.6463,9.8711,10.1606,10.4128,10.5582,10.6494,10.7177,10.7999,10.8872,10.9683,10.9835,11.0062,11.0898,11.1125,11.1642,11.316,11.3562,11.3957,11.4808,11.4976,11.509,11.509,11.5681,11.6137,11.6196,11.6879,11.7638,11.8529,11.8699,11.906,11.9744,11.9857,12.0313,12.1054,12.187,12.2723,12.3636,12.4451,12.4907,12.5021,12.5021,12.5021,12.5021,12.5021,12.5021,12.5021,12.5021,12.5021,12.5021,12.5867,13.1816,14.0549,14.1346,14.8025,15.7276,15.8063,15.8901,15.9684,16.0466,16.0776,16.0776,16.0776,16.0776,16.0776,16.0776,16.0776,16.0776,16.0776,16.0776,16.0776,16.0776,16.0776,16.0971,16.1846,16.209,16.209,16.209,16.209,16.2383,16.3457,16.4384,16.5058,16.5204,16.619,16.6917,16.6917,16.7074,16.7166,16.7166,16.7166,16.7166,16.7166,16.7166,16.7166,16.7166,16.7166,16.7166,16.7166,16.7166,16.7166,16.7166,16.7166,16.7166,16.7166,16.7166,16.7166,16.7166,16.7166,16.7166,16.7166,16.7166,16.7166,9.7761,9.8749,9.9963,10.3201,10.5176,10.6392,10.6506,10.7671,10.872,10.8872,10.891,10.9138,11.0062,11.0746,11.1315,11.1619,11.2818,11.3783,11.3957,11.458,11.509,11.509,11.5204,11.5546,11.6175,11.6365,11.6765,11.7618,11.8321,11.8832,11.8946,11.9573,11.9991,12.0199,12.1054,12.187,12.2685,12.3578,12.4337,12.5021,12.5021,12.5021,12.5021,12.5021,12.5021,12.5021,12.5021,12.5021,12.5375,13.035,13.0698,12.8585,13.3538,13.6695,13.9143,14.4129,14.9061,15.4102,15.9006,16.0776,16.0776,16.0776,16.0776,16.0776,16.0776,16.0776,16.0776,16.0776,16.0776,16.0776,16.0776,16.0776,16.0776,16.0971,16.102,16.102,16.102,16.102,16.1362,16.2383,16.2725,16.3115,16.3989,16.5014,16.5692,16.5692,16.6532,16.7166,16.7166,16.7166,16.7166,16.7166,16.7166,16.7166,16.7166,16.7166,16.7166,16.7166,16.7166,16.7166,16.7166,16.7166,16.7166,16.7166,16.7166,16.7166,16.7166,16.7166,16.7166,16.7166,16.7166,16.7166,9.7154,9.836,9.9888,10.1948,10.4075,10.5734,10.619,10.6911,10.7443,10.7443,10.8075,10.8796,10.9213,11.0024,11.0708,11.1163,11.1832,11.2568,11.3024,11.3821,11.4352,11.4352,11.4808,11.5204,11.5605,11.566,11.5947,11.6765,11.722,11.7845,11.8719,11.9154,11.9516,11.9915,12.0826,12.1642,12.2457,12.335,12.4224,12.5021,12.5021,12.5021,12.5021,12.5021,12.5021,12.5021,12.5021,12.5021,12.5219,12.8099,12.942,12.9904,13.2814,13.5841,13.8917,14.1849,14.6655,15.2231,15.5117,15.8116,16.0776,16.0776,16.0776,16.0776,16.0776,16.0776,16.0776,16.0776,16.0776,16.0776,16.0776,16.0776,16.0776,16.0776,16.0776,16.0776,16.0776,16.0776,16.0922,16.1411,16.1508,16.1797,16.2871,16.3457,16.3989,16.4526,16.5058,16.5453,16.5453,16.5941,16.6282,16.6282,16.677,16.7166,16.7166,16.7166,16.7166,16.7166,16.7166,16.7166,16.7166,16.7166,16.7166,16.7166,16.7166,16.7166,16.7166,16.7166,16.7166,16.7166,16.7166,16.7166,9.6653,9.8057,9.9736,10.0951,10.2735,10.447,10.5734,10.6,10.6076,10.6316,10.7443,10.8455,10.8644,10.9417,11.0214,11.086,11.1087,11.1429,11.2165,11.2963,11.3502,11.3729,11.4352,11.4862,11.5036,11.509,11.5318,11.5947,11.6137,11.682,11.8187,11.8377,11.8832,11.963,12.037,12.1224,12.2211,12.3123,12.3978,12.4734,12.4907,12.5021,12.5021,12.5021,12.5021,12.5021,12.5021,12.5021,12.5021,12.5021,12.7748,13.2007,13.2007,13.4896,13.9199,14.0479,14.3951,14.8343,15.0951,15.485,15.9059,16.0361,16.0776,16.0776,16.0776,16.0776,16.0776,16.0776,16.0776,16.0776,16.0776,16.0776,16.0776,16.0776,16.0776,16.0776,16.0776,16.0776,16.0776,16.0776,16.0776,16.102,16.185,16.1996,16.2334,16.3355,16.375,16.3843,16.3843,16.457,16.5058,16.5058,16.6087,16.677,16.677,16.702,16.7166,16.7166,16.7166,16.7166,16.7166,16.7166,16.7166,16.7166,16.7166,16.7166,16.7166,16.7166,16.7166,16.7166,16.7166,16.7166,9.8141,9.8141,9.8377,10.0694,10.1454,10.2203,10.4546,10.5077,10.5305,10.6114,10.6987,10.7809,10.853,10.9417,11.0076,11.01,11.0708,11.1239,11.1315,11.2075,11.291,11.3615,11.3789,11.4185,11.4976,11.509,11.509,11.515,11.5833,11.631,11.6424,11.7162,11.7959,11.8832,11.8946,11.9744,12.1395,12.2211,12.3026,12.3978,12.4679,12.5021,12.5021,12.5021,12.5021,12.5021,12.5021,12.5021,12.5021,12.5021,12.5316,12.5808,12.5808,12.6162,12.7259,13.2716,13.5125,13.7107,14.8025,15.2131,15.352,15.9006,16.0776,16.0776,16.0776,16.0776,16.0776,16.0776,16.0776,16.0776,16.0776,16.0776,16.0776,16.0776,16.0776,16.0776,16.0776,16.0776,16.0776,16.0776,16.0776,16.0776,16.0874,16.0874,16.1264,16.2285,16.3262,16.3843,16.3843,16.3936,16.3989,16.3989,16.4965,16.5546,16.5546,16.6532,16.7166,16.7166,16.7166,16.7166,16.7166,16.7166,16.7166,16.7166,16.7166,16.7166,16.7166,16.7166,16.7166,16.7166,16.7166,16.7166,9.6326,9.7048,9.7808,9.8795,10.0163,10.1682,10.3153,10.3445,10.3825,10.5241,10.5772,10.6064,10.6405,10.7923,10.9075,10.8582,10.9607,11.048,11.048,11.1201,11.1847,11.2135,11.2682,11.3365,11.4185,11.4239,11.4466,11.5036,11.5378,11.5719,11.6196,11.6537,11.7107,11.7903,11.8491,11.9288,12.0484,12.1812,12.2913,12.3806,12.4662,12.5021,12.5021,12.5021,12.5021,12.5021,12.5021,12.5021,12.5021,12.5021,12.5021,12.5021,12.5021,12.5021,12.5202,12.7107,13.0151,13.3822,13.8062,14.2217,14.5999,14.8369,15.1996,15.5383,15.5383,15.7905,16.0776,16.0776,16.0776,16.0776,16.0776,16.0776,16.0776,16.0776,16.0776,16.0776,16.0776,16.0776,16.0776,16.0776,16.0776,16.0776,16.0776,16.0776,16.0874,16.1313,16.1752,16.2045,16.2045,16.253,16.292,16.292,16.3843,16.4477,16.4477,16.5453,16.6136,16.6136,16.677,16.6873,16.6136,16.677,16.7166,16.7166,16.7166,16.7166,16.7166,16.7166,16.7166,16.7166,16.7166,16.7166,9.5339,9.6288,9.723,9.7542,9.8909,10.0542,10.1786,10.209,10.2583,10.4292,10.4812,10.4963,10.4963,10.6595,10.7847,10.7557,10.8696,10.9721,10.9948,11.048,11.0936,11.1163,11.1733,11.2454,11.3274,11.3562,11.3957,11.4634,11.4922,11.5318,11.5888,11.5854,11.6251,11.7013,11.7676,11.8415,11.9174,12.0901,12.2154,12.3067,12.411,12.4734,12.5021,12.5021,12.5021,12.5021,12.5021,12.5021,12.5021,12.5021,12.5021,12.4962,12.4734,12.462,12.4565,12.375,12.6116,13.0108,13.2981,13.7045,14.1648,14.5112,14.9717,15.3947,15.3947,15.7142,16.0776,16.0776,16.0776,16.0776,16.0776,16.0776,16.0776,16.0776,16.0776,16.0776,16.0776,16.0776,16.0776,16.0776,16.0776,16.0776,16.0776,16.0776,16.0776,16.0776,16.0776,16.0776,16.0776,16.1411,16.1797,16.1797,16.2774,16.3408,16.3408,16.4331,16.4965,16.4965,16.6044,16.6136,16.5014,16.6044,16.6624,16.6624,16.702,16.7166,16.7166,16.7166,16.7166,16.7166,16.7166,16.7166,9.6015,9.6235,9.6463,9.7344,9.7618,9.8263,10.0732,10.1302,10.1758,10.3478,10.4443,10.4963,10.4963,10.5734,10.657,10.7367,10.8151,10.8986,10.9873,10.9986,11.029,11.1125,11.1149,11.1543,11.2484,11.3251,11.3729,11.3729,11.458,11.509,11.509,11.509,11.5432,11.6196,11.6251,11.6651,11.741,11.9118,12.0427,12.1339,12.3009,12.4224,12.5021,12.5021,12.5021,12.5021,12.5021,12.5021,12.5021,12.5021,12.5021,12.4907,12.411,12.3864,12.375,12.2799,12.2553,12.4209,13.5833,13.9912,14.1869,15.3544,15.8031,15.8912,15.8912,15.9744,16.0776,16.0776,16.0776,16.0776,16.0776,16.0776,16.0776,16.0776,16.0776,16.0776,16.0776,16.0776,16.0776,16.0776,16.0776,16.0776,16.0776,16.0776,16.0776,16.0776,16.0776,16.0776,16.0776,16.0776,16.0776,16.0776,16.1752,16.2334,16.2334,16.3262,16.3896,16.3896,16.4872,16.4965,16.3945,16.4863,16.5453,16.5453,16.6575,16.7166,16.7166,16.7166,16.7166,16.7166,16.7166,16.7166,9.5187,9.5825,9.6159,9.5908,9.6706,9.796,9.9242,9.9546,10.0001,10.172,10.2697,10.3218,10.3218,10.4937,10.643,10.6645,10.7771,10.8986,10.9873,11.0038,11.01,11.0328,11.0366,11.0708,11.1543,11.1847,11.2477,11.3615,11.3957,11.4412,11.5036,11.509,11.5204,11.5432,11.6002,11.6365,11.6592,11.8301,11.9857,12.1281,12.1186,12.187,12.3254,12.3882,12.4451,12.5021,12.5021,12.5021,12.5021,12.5021,12.4679,12.411,12.3236,12.2895,12.2799,12.1984,12.1642,12.2102,12.5173,12.6643,12.7796,13.1492,13.919,14.7031,14.7031,15.3465,16.0776,16.0776,16.0776,16.0776,16.0776,16.0776,16.0776,16.0776,16.0776,16.0776,16.0776,16.0776,16.0776,16.0776,16.0776,16.0776,16.0776,16.0776,16.0776,16.0776,16.0776,16.0776,16.0776,16.0776,16.0776,16.0776,16.1069,16.1264,16.1264,16.2188,16.2822,16.2822,16.3115,16.3115,16.2822,16.3843,16.4331,16.4331,16.4726,16.5307,16.5941,16.5941,16.6375,16.7166,16.7166,16.7166,9.4313,9.4876,9.5211,9.5073,9.5878,9.682,9.761,9.8065,9.8673,10.0087,10.1216,10.1976,10.1976,10.357,10.4937,10.5328,10.6721,10.8151,10.9341,10.9797,11.0038,11.0038,11.0038,11.0176,11.0708,11.1049,11.1604,11.2705,11.3046,11.3669,11.452,11.458,11.4694,11.5036,11.5546,11.5795,11.5795,11.7162,11.8491,11.9838,11.9232,12.0085,12.204,12.2611,12.3464,12.4565,12.4565,12.4565,12.4565,12.4565,12.4092,12.3236,12.2685,12.2267,12.1926,12.1072,12.0769,12.1338,12.5051,12.6786,12.7673,12.9839,13.8021,14.6541,14.4395,15.1419,16.0092,16.0092,16.0434,16.0581,15.9699,15.9503,15.9503,15.9503,15.9796,16.0092,16.0092,16.0434,16.0776,16.0776,16.0776,16.0776,16.0776,16.0776,16.0776,16.0776,16.0776,16.0776,16.0776,16.0776,16.0776,16.0776,16.0776,16.0776,16.0776,16.1362,16.1752,16.1752,16.1752,16.1752,16.1752,16.2725,16.3262,16.3262,16.3648,16.4184,16.4819,16.4819,16.5399,16.6532,16.6532,16.677,9.3471,9.3737,9.3965,9.4807,9.5004,9.5187,9.6008,9.6888,9.7732,9.8483,9.9926,10.115,10.114,10.1862,10.2773,10.3809,10.5252,10.6759,10.8341,10.9303,10.9886,10.9962,10.991,10.991,11.0038,11.067,11.1163,11.1201,11.1976,11.2796,11.3615,11.3675,11.4125,11.4976,11.5036,11.509,11.509,11.5795,11.6537,11.722,11.7296,11.8605,12.1054,12.1168,12.2079,12.3636,12.3692,12.375,12.375,12.375,12.3236,12.2381,12.2381,12.187,12.1111,12.0218,11.9971,12.146,13.2165,13.5915,13.6923,14.2684,14.912,15.376,14.883,15.2734,15.8918,15.8918,15.965,15.9992,15.7988,15.7451,15.7451,15.7451,15.8183,15.8918,15.8918,15.9796,16.0629,16.0629,16.0678,16.0776,16.0776,16.0776,16.0776,16.0776,16.0776,16.0776,16.0776,16.0776,16.0776,16.0776,16.0776,16.0776,16.0776,16.0776,16.0776,16.0776,16.0776,16.0776,16.0776,16.1704,16.2188,16.2188,16.3115,16.3648,16.375,16.375,16.4331,16.5307,16.5307,16.5941,9.3471,9.4193,9.4769,9.5004,9.4541,9.4421,9.5894,9.6387,9.6767,9.7648,9.8635,9.9546,10.0106,10.1482,10.3153,10.5404,10.5469,10.5836,10.7506,10.7974,10.8316,10.891,10.8986,10.9265,11.0,11.0176,11.0518,11.1163,11.1391,11.1885,11.2773,11.3388,11.3843,11.4017,11.4694,11.509,11.509,11.5264,11.5432,11.5605,11.6196,11.7162,11.8321,11.963,12.0883,12.1965,12.2553,12.2741,12.2741,12.2741,12.2325,12.1566,12.1566,12.1054,12.0199,11.9991,11.9971,12.0311,12.3031,12.3983,12.4965,13.0719,13.7219,14.3338,14.6437,15.226,15.7841,15.7841,15.7988,15.8085,15.7598,15.7451,15.7451,15.7451,15.7646,15.7841,15.7841,15.8622,15.9406,15.9406,16.0089,16.0776,16.0776,16.0776,16.0776,16.0776,16.0776,16.0776,16.0776,16.0776,16.0776,16.0776,16.0776,16.0776,16.0776,16.0776,16.0776,16.0776,16.0776,16.0776,16.0776,16.0971,16.1118,16.1118,16.1362,16.1899,16.2676,16.2676,16.3209,16.4238,16.4238,16.4819,9.3016,9.3737,9.4541,9.4966,9.4655,9.4579,9.5484,9.5673,9.5833,9.6326,9.739,9.8445,9.9233,10.041,10.19,10.3684,10.4508,10.5419,10.6759,10.7936,10.8658,10.8682,10.9024,10.9341,10.9417,10.9759,11.0176,11.0632,11.0632,11.1011,11.1847,11.234,11.2743,11.3191,11.4011,11.4466,11.4466,11.4466,11.4694,11.509,11.5491,11.6082,11.6879,11.7845,11.9118,12.0712,12.1129,12.13,12.13,12.13,12.056,11.9516,11.9971,11.9838,11.9458,11.9801,11.9971,12.0311,12.2975,12.5577,12.7823,12.8334,13.6422,14.5493,14.3243,14.9246,15.6719,15.6719,15.6378,15.5987,15.5987,15.5987,15.5987,15.5987,15.6378,15.6719,15.6719,15.7549,15.8281,15.8281,15.9211,15.9995,15.9995,16.0434,16.0776,16.0776,16.0776,16.0776,16.0776,16.0776,16.0776,16.0776,16.0776,16.0776,16.0776,16.0776,16.0776,16.0776,16.0776,16.0776,16.0776,16.0776,16.0776,16.0776,16.0776,16.102,16.1606,16.1606,16.209,16.3115,16.3115,16.3989,9.2528,9.3212,9.4079,9.489,9.508,9.508,9.508,9.508,9.508,9.508,9.6288,9.761,9.8407,9.9309,10.0144,10.0913,10.3077,10.4925,10.5962,10.8177,10.9379,10.8758,10.9341,10.9569,10.891,10.9569,11.0038,11.0038,11.0038,11.029,11.0974,11.1163,11.1543,11.2317,11.3138,11.3448,11.3327,11.3562,11.4125,11.4862,11.5014,11.5432,11.6061,11.6175,11.739,11.9345,11.9516,11.9573,11.9573,11.9573,11.8719,11.7468,11.8263,11.8585,11.8643,11.9288,11.9573,12.0287,12.5099,13.0047,13.3699,13.0774,13.9751,15.0247,14.2114,14.7176,15.5696,15.5696,15.5013,15.433,15.433,15.433,15.433,15.433,15.5013,15.5696,15.5696,15.6475,15.7207,15.7207,15.8037,15.8771,15.8771,15.9699,16.0483,16.0483,16.0629,16.0776,16.0776,16.0776,16.0776,16.0776,16.0776,16.0776,16.0776,16.0776,16.0776,16.0776,16.0776,16.0776,16.0776,16.0776,16.0776,16.0776,16.0776,16.0776,16.0776,16.0776,16.1215,16.2041,16.2041,16.3115,9.2528,9.3629,9.489,9.5042,9.508,9.508,9.508,9.508,9.508,9.508,9.5787,9.6736,9.7618,9.8938,9.9954,10.0106,10.1624,10.337,10.4963,10.6759,10.8088,10.8606,10.8796,10.91,10.9721,10.9962,11.0038,11.0038,11.0038,11.0114,11.0176,11.0822,11.1277,11.1391,11.2279,11.234,11.1566,11.3024,11.3789,11.3957,11.4694,11.515,11.5264,11.5947,11.6424,11.682,11.7524,11.779,11.779,11.779,11.7638,11.741,11.7562,11.7638,11.7638,11.7752,11.779,11.7901,11.8752,12.0213,12.3128,13.263,13.7627,14.1318,14.9281,15.3022,15.4574,15.4574,15.4427,15.433,15.433,15.433,15.433,15.433,15.4427,15.4574,15.4574,15.5404,15.6085,15.6085,15.6963,15.7695,15.7695,15.8625,15.9259,15.9259,16.0089,16.0776,16.0776,16.0776,16.0776,16.0776,16.0776,16.0776,16.0776,16.0776,16.0776,16.0776,16.0776,16.0776,16.0776,16.0776,16.0776,16.0776,16.0776,16.0776,16.0776,16.0776,16.0825,16.0971,16.0971,16.1602,9.2528,9.3402,9.4427,9.4966,9.508,9.508,9.508,9.508,9.508,9.508,9.5673,9.6501,9.7428,9.8521,9.9423,9.984,10.0561,10.1662,10.3332,10.5836,10.7671,10.7961,10.8796,10.9189,10.8696,10.9455,11.0038,11.0038,11.0038,11.0038,11.0038,11.0366,11.0556,11.0556,11.1353,11.1619,11.1201,11.1946,11.2591,11.31,11.3897,11.4352,11.4352,11.5264,11.5833,11.6251,11.6651,11.6765,11.6765,11.6765,11.6537,11.6175,11.6592,11.6765,11.6786,11.7241,11.741,11.741,11.741,11.7676,11.9041,12.5133,13.1368,13.7554,14.3234,14.4972,14.4972,14.4972,14.4972,14.4972,14.4972,14.734,14.969,14.969,15.2069,15.433,15.433,15.472,15.5062,15.5062,15.5941,15.6622,15.6622,15.7451,15.8329,15.8918,15.9455,15.9992,16.0678,16.0776,16.0776,16.0776,16.0776,16.0776,16.0776,16.0776,16.0776,16.0776,16.0776,16.0776,16.0776,16.0776,16.0776,16.0776,16.0776,16.0776,16.0776,16.0776,16.0776,16.0776,16.0776,16.1313,9.2224,0.0,9.332,9.4237,9.4624,9.4776,0.0,9.4883,9.508,9.508,9.5484,9.6281,9.739,9.8065,9.8787,9.9764,9.9916,10.0523,10.2241,10.4709,10.6405,10.6873,10.824,10.862,10.7329,10.8734,10.9683,10.9683,10.9873,11.0038,11.0038,11.0038,11.0038,11.0038,11.0594,11.0936,11.0936,11.1125,11.1543,11.2241,11.3077,11.3555,11.3729,11.4412,11.5204,11.6002,11.6002,11.6002,11.6002,11.6002,11.5605,11.515,11.5719,11.6002,11.6061,11.6651,11.6879,11.6879,11.6879,11.6993,11.7276,11.7959,12.5343,13.4195,13.6154,13.5827,13.5045,13.6361,13.6909,13.704,13.704,14.0377,14.3723,14.3723,14.7083,15.0654,15.2069,15.2322,15.2774,15.408,15.4964,15.555,15.555,15.6378,15.7354,15.8186,15.8723,15.9357,16.0239,16.0581,16.0776,16.0776,16.0776,16.0776,16.0776,16.0776,16.0776,16.0776,16.0776,16.0776,16.0776,16.0776,16.0776,16.0776,16.0776,16.0776,16.0776,16.0776,16.0776,16.0776,16.0776,16.1166,0.0,9.1302,9.1568,9.249,9.3244,9.3813,9.3813,9.4465,0.0,9.508,9.5118,9.5605,9.7276,9.7618,9.8187,9.9689,9.9916,10.0523,10.2241,10.2659,10.3418,10.4963,10.6,10.6544,10.643,10.7809,10.8758,10.8758,10.9531,11.0038,11.0038,11.0038,11.0038,11.0038,11.0114,11.0062,11.0062,11.0822,11.1239,11.1315,11.2203,11.3024,11.3729,11.3751,11.4298,11.515,11.515,11.515,11.515,11.515,11.5128,11.509,11.515,11.515,11.515,11.5204,11.5264,11.5264,11.5264,11.5719,11.631,11.6403,12.1664,12.8958,13.4312,13.2241,12.9136,13.4481,13.6459,13.704,13.704,13.736,13.767,13.767,13.799,13.9751,14.5226,14.6365,14.8004,15.3278,15.4379,15.4478,15.4478,15.5306,15.5987,15.6136,15.7795,15.9064,15.9113,16.0092,16.0776,16.0776,16.0776,16.0776,16.0776,16.0776,16.0776,16.0776,16.0776,16.0776,16.0776,16.0776,16.0776,16.0776,16.0776,16.0776,16.0776,16.0776,16.0776,16.0776,16.0776,16.0776,9.1037,9.1188,9.1492,9.2902,9.3471,9.3851,9.4427,9.4769,9.508,9.508,9.508,9.5377,9.6547,9.7192,9.796,9.9052,9.9613,10.0144,10.0789,10.1368,10.2128,10.3218,10.5127,10.6354,10.6354,10.7291,10.7923,10.7923,10.8682,10.9138,10.9138,10.9721,11.0038,11.0038,11.0038,11.0038,11.0038,11.029,11.0442,11.0442,11.1277,11.1847,11.2135,11.2735,11.3441,11.4239,11.4239,11.458,0.0,11.509,11.509,11.509,11.509,11.509,11.509,11.509,11.509,11.509,11.509,11.5264,11.5546,11.5546,11.7746,12.0857,12.2971,12.2141,12.0975,12.3635,12.5011,12.5679,12.5679,13.1366,13.704,13.704,14.2534,14.8415,15.0603,15.1108,15.1765,15.393,15.433,15.433,15.433,15.4671,15.516,15.5843,15.6575,15.7551,15.8869,15.9406,15.9943,16.0678,16.0776,16.0483,15.9699,16.0336,16.0776,16.0776,16.0776,16.0776,16.0776,16.0776,16.0776,16.0776,16.0776,16.0776,16.0776,16.0776,16.0776,16.0776,16.0776,16.0776,9.0885,9.0999,9.1188,9.2902,9.3509,9.3851,9.4503,9.4807,9.508,9.508,9.508,9.5301,9.6084,9.6964,9.7846,9.8635,9.9385,9.984,9.9575,10.0077,10.0647,10.1216,10.3077,10.4481,10.5013,10.6304,10.7139,10.7139,10.7847,10.8417,10.8644,10.9213,10.9455,10.9227,10.9455,10.9607,10.9607,10.9924,11.0038,10.9986,11.0556,11.0974,11.1239,11.1809,11.2568,11.3365,11.3365,11.3707,11.4239,11.4239,11.4239,11.4239,11.4239,11.4239,11.4331,11.458,11.464,11.4694,11.4976,11.509,11.509,11.509,11.5432,11.5909,11.6175,11.6061,11.6023,11.682,11.7638,11.8415,11.8699,12.4977,13.1366,13.1591,13.7724,14.3938,14.575,14.7597,14.9434,15.1261,15.3076,15.433,15.433,15.433,15.4574,15.5306,15.5696,15.6429,15.7844,15.8332,15.882,15.9601,15.9992,15.9748,15.8625,15.9259,15.9699,15.9699,15.9992,16.0239,16.0239,16.0581,16.0776,16.0776,16.0776,16.0776,16.0776,16.0776,16.0776,16.0776,16.0776,16.0776,9.0733,9.0581,9.0434,9.211,9.3092,9.3699,9.3737,9.4427,9.508,9.508,9.508,9.5263,9.6046,9.6964,9.7799,9.8597,9.9385,9.9613,9.8862,9.8749,9.8749,9.8749,9.9423,10.0561,10.2279,10.4747,10.6316,10.6316,10.7025,10.7809,10.8606,10.8644,10.8265,10.7519,10.8227,10.8644,10.8644,10.9531,11.0038,11.0038,11.0038,11.0404,11.1149,11.1149,11.1657,11.2507,11.2507,11.2545,11.2545,11.2545,11.2545,11.2545,11.2545,11.2545,11.2621,11.3388,11.3729,11.3843,11.4748,11.5036,11.5036,11.509,11.509,11.5204,11.5968,11.5719,11.5264,11.6023,11.6765,11.7618,11.8491,11.8813,11.9077,11.9838,12.0065,12.1647,12.7396,13.3112,13.8841,14.4712,15.0451,15.433,15.433,15.433,15.433,15.433,15.5208,15.5892,15.5941,15.6768,15.7451,15.7451,15.8329,15.8525,15.7549,15.7451,15.7451,15.7451,15.8378,15.9015,15.9015,16.0141,16.0727,16.0727,16.0776,16.0776,16.0776,16.0776,16.0776,16.0776,16.0776,16.0776,9.0885,9.1454,9.2072,9.3092,9.3509,9.3851,9.4503,9.489,9.508,9.508,9.508,9.5156,9.5339,9.6053,9.688,9.7761,9.8103,9.8369,9.8711,9.7715,9.7412,9.8635,9.8976,9.9774,10.1444,10.2811,10.3836,10.4493,10.5898,10.6759,10.6987,10.6405,10.595,10.5722,10.595,10.6633,10.7809,10.7557,10.8329,11.0038,10.9379,10.9531,11.0366,11.0366,11.0822,11.1581,11.1581,11.1923,11.2545,11.2545,11.2545,11.2545,11.2545,11.2545,11.2598,11.2796,11.291,11.3024,11.3843,11.4125,11.4239,11.4862,11.509,11.509,11.5378,11.5264,11.509,11.5378,11.5605,11.5947,11.6765,12.0435,12.4202,12.4958,12.8229,13.2912,13.9301,14.1957,14.492,15.0654,15.3177,15.433,15.433,15.433,15.433,15.433,15.4574,15.5062,15.5843,15.6185,15.6622,15.7402,15.7061,15.6721,15.6378,15.7012,15.7451,15.7451,15.7744,15.7939,15.7939,15.8967,15.9503,15.9503,16.0336,16.0776,16.0776,16.0776,16.0776,16.0776,16.0776,16.0776,9.1454,9.2332,9.3168,9.4047,9.4275,9.4389,9.4966,9.508,9.508,9.508,9.508,9.508,9.508,9.5673,9.6387,9.6964,9.7352,9.7656,9.7677,9.6843,9.6729,9.8103,9.8559,9.9394,10.115,10.1976,10.2659,10.3239,10.4531,10.5176,10.4785,10.4292,10.3939,10.3939,10.433,10.4975,10.6,10.624,10.7266,10.8999,10.8758,10.9138,11.0038,11.0038,11.0252,11.0708,11.0708,11.1011,11.152,11.152,11.152,11.152,11.152,11.152,11.1596,11.19,11.2014,11.2127,11.2932,11.3251,11.3365,11.4239,11.4331,11.4103,11.4103,11.4239,11.4526,11.4526,11.4808,11.5204,11.566,11.897,12.2438,12.3178,12.6026,12.9621,13.3588,13.6575,14.0166,14.5869,14.7265,14.8927,15.3578,15.2423,15.1717,15.398,15.433,15.4574,15.5208,15.5257,15.555,15.6185,15.5648,15.5257,15.5257,15.5892,15.6183,15.6183,15.6573,15.6817,15.6817,15.7841,15.8378,15.8378,15.9113,15.965,16.0092,16.0092,16.0336,16.0776,16.0776,16.0776,9.2376,9.3206,9.4003,9.4807,9.508,9.508,9.508,9.508,9.508,9.508,9.508,9.508,9.508,9.5635,9.6122,9.6197,9.685,9.7078,9.6311,9.6159,9.6471,9.7352,9.8065,9.9166,10.0884,10.1672,10.2165,10.2317,10.3125,10.3201,10.2393,10.2355,10.2317,10.2193,10.3011,10.3505,10.3657,10.5138,10.6304,10.7291,10.8075,10.8872,10.9759,10.991,11.0038,11.0038,11.0038,11.0038,11.0038,11.0038,11.0038,11.0038,11.0038,11.0038,11.0062,11.0822,11.1087,11.1201,11.2127,11.2431,11.2545,11.3365,11.3077,11.2431,11.2507,11.3077,11.3615,11.3729,11.4298,11.4976,11.5036,11.5605,11.631,11.7048,11.7276,11.7483,11.8054,12.2913,12.8929,13.4636,13.6382,14.0252,15.0816,14.8829,14.7546,15.2774,15.398,15.433,15.433,15.433,15.433,15.433,15.433,15.433,15.433,15.433,15.433,15.433,15.5208,15.5794,15.5794,15.6768,15.7305,15.7305,15.7402,15.7939,15.8869,15.8869,15.9455,16.0581,16.0581,16.0678,9.3054,9.4085,9.4769,9.5004,9.508,9.508,9.508,9.508,9.508,9.508,9.508,9.508,9.508,9.5187,9.5529,9.6122,9.5863,9.5757,9.6159,9.5673,9.5605,9.6387,9.6653,9.7412,9.9128,9.9432,10.0077,10.1406,10.172,10.172,10.152,10.152,10.1178,10.0485,10.0637,10.1406,10.2697,10.2469,10.3418,10.5533,10.6418,10.7253,10.8088,10.9379,11.0038,11.0038,11.0038,11.0038,11.0038,11.0038,11.0038,11.0038,11.0038,11.0038,11.0076,11.0176,11.0252,11.0366,11.1201,11.1467,11.1619,11.2507,11.2188,11.1619,11.237,11.2659,11.291,11.3555,11.3843,11.4185,11.4862,11.5204,11.5378,11.5546,11.6061,11.7912,12.3156,12.5417,12.8138,13.3842,13.5581,13.6869,13.9436,14.3175,14.6158,14.7443,15.1464,15.433,15.433,15.433,15.433,15.433,15.433,15.433,15.433,15.433,15.433,15.433,15.4575,15.4671,15.4671,15.5696,15.6183,15.6183,15.7061,15.7549,15.7793,15.7793,15.8329,15.9357,15.9357,15.9845,9.3313,9.4389,9.508,9.508,9.508,9.508,9.508,9.508,9.508,9.508,9.508,9.508,9.508,9.508,9.5187,9.5597,9.5301,9.5187,9.5597,9.5301,9.5339,9.6122,9.6235,9.6729,9.8065,9.8521,9.9128,10.0001,10.0419,10.0647,10.0647,10.0647,10.0372,9.9954,9.9916,10.0334,10.1206,10.1254,10.209,10.3749,10.4683,10.5974,10.7557,10.8392,10.9227,11.0038,11.0038,11.0038,11.0038,11.0038,11.0038,11.0038,11.0038,11.0038,11.0038,11.0038,11.0038,11.0114,11.048,11.0632,11.0708,11.1178,11.0974,11.0708,11.1216,11.1596,11.1961,11.2401,11.31,11.3729,11.3821,11.4498,11.4976,11.4526,11.509,11.6631,12.0094,12.1138,12.3083,12.8842,12.8359,12.878,13.4381,13.5922,13.8166,14.3598,14.7333,15.0545,15.3151,15.3988,15.433,15.433,15.433,15.433,15.433,15.433,15.433,15.433,15.433,15.433,15.433,15.4867,15.516,15.516,15.5696,15.6183,15.6719,15.6719,15.7256,15.8232,15.8232,15.8573,9.3623,9.4465,9.508,9.508,9.508,9.508,9.508,9.508,9.508,9.508,9.508,9.508,9.508,9.508,9.508,9.508,9.508,9.508,9.508,9.508,9.5301,9.5977,9.6053,9.6395,9.723,9.7913,9.8445,9.8749,9.9347,9.9727,9.9727,9.984,9.9916,9.9916,9.9916,9.9916,9.9916,10.0647,10.1368,10.2003,10.3087,10.4645,10.6645,10.6949,10.7898,10.9393,10.9393,10.9545,10.9759,10.9759,10.9924,11.0038,11.0038,11.0038,11.0038,11.0038,11.0038,11.0038,11.0038,11.0038,11.0,10.9645,10.9645,10.9759,10.9759,11.0328,11.1049,11.1163,11.2226,11.316,11.2712,11.3586,11.4444,11.3707,11.4185,11.4808,11.4808,11.5491,11.7461,12.2188,11.9912,12.0263,12.9846,12.9335,13.0682,13.9951,14.3929,14.747,15.2026,15.2458,15.2441,15.2635,15.3487,15.4086,15.4281,15.433,15.433,15.433,15.433,15.433,15.433,15.433,15.433,15.433,15.433,15.4769,15.5648,15.5648,15.6185,15.7207,15.7207,15.7305,9.4237,9.4966,9.508,9.508,9.508,9.508,9.508,9.508,9.508,9.508,9.508,9.508,9.508,9.508,9.508,9.508,9.508,9.508,9.508,9.508,9.5118,9.5187,9.5187,9.5529,9.6311,9.6501,9.7146,9.8635,9.8862,9.8938,9.8938,9.9537,9.9916,9.9916,9.9916,9.9916,9.9916,10.003,10.0144,10.0258,10.1852,10.2811,10.3191,10.4622,10.5886,10.6848,10.6848,10.7595,10.8834,10.8834,10.9341,11.0038,11.0038,11.0038,11.0038,11.0038,11.0038,11.0038,11.0038,11.0038,10.981,10.8316,10.8316,10.8834,10.8834,10.9493,11.029,11.1011,11.1339,11.1695,11.234,11.2735,11.2849,11.2735,11.3274,11.3897,11.3897,11.458,11.5443,11.6182,11.6363,11.688,11.8424,12.6805,13.374,13.5203,14.4641,15.1778,15.2473,14.7812,14.4751,14.5637,15.0022,15.3256,15.4282,15.433,15.433,15.433,15.433,15.433,15.433,15.433,15.433,15.433,15.433,15.4429,15.4575,15.4575,15.5062,15.6136,15.6136,15.6573,9.3212,9.4358,9.508,9.508,9.508,9.508,9.508,9.508,9.508,9.508,9.4655,9.4465,9.4966,9.4617,9.4465,9.4966,9.508,9.508,9.508,9.508,9.508,9.508,9.508,9.5187,9.5567,9.5932,9.6539,9.726,9.7799,9.8255,9.8749,9.9499,9.9916,9.9916,9.9916,9.9916,9.9916,9.9916,9.9916,9.9954,10.0675,10.151,10.2469,10.3229,10.428,10.5582,10.5582,10.595,10.6595,10.6595,10.7139,10.7949,10.7949,10.8468,10.9227,10.8772,10.8885,10.9176,10.8772,10.862,10.8468,10.7746,10.7746,10.7999,10.7999,10.8568,10.9289,10.9669,11.0428,11.1201,11.1178,11.1824,11.2393,11.1938,11.2454,11.3077,11.3077,11.3707,11.4298,11.4298,11.5036,11.5605,11.5605,12.001,12.4552,12.7634,13.3176,13.8089,14.1153,13.9611,13.8493,13.8897,14.385,14.7363,14.7837,15.0737,15.2719,15.3354,15.3354,15.3647,15.4331,15.433,15.433,15.433,15.433,15.433,15.433,15.433,15.4574,15.5013,15.5013,15.5257,9.2105,9.344,9.4548,9.4966,9.508,9.508,9.508,9.508,9.508,9.508,9.4503,9.4275,9.4966,9.4503,9.4275,9.4966,9.508,9.508,9.508,9.508,9.508,9.508,9.508,9.508,9.508,9.5559,9.5939,9.5939,9.6736,9.7572,9.8407,9.9157,9.9727,9.9916,9.9916,9.9916,9.9916,9.9916,9.9916,9.9916,9.9916,10.0599,10.1776,10.1776,10.2611,10.4015,10.4015,10.4242,10.4709,10.4709,10.5203,10.5962,10.5962,10.6721,10.7696,10.7329,10.7595,10.7885,10.6911,10.6532,10.657,10.6797,10.7025,10.7215,10.7215,10.7784,10.8417,10.8606,10.9555,11.048,11.01,11.095,11.1748,11.1049,11.1543,11.2203,11.2203,11.2849,11.3388,11.3388,11.3989,11.4444,11.4444,11.573,11.828,12.2576,12.532,12.7087,12.7694,12.9875,13.2074,13.3791,13.7775,14.161,14.471,14.7455,14.9922,15.2083,15.2182,15.2622,15.3451,15.35,15.3598,15.3891,15.3891,15.4037,15.433,15.433,15.433,15.433,15.433,15.433,9.1611,9.2604,9.306,9.4662,9.508,9.508,9.508,9.508,9.508,9.508,9.5042,9.5004,9.5042,9.5042,9.5004,9.5042,9.508,9.508,9.508,9.508,9.508,9.508,9.508,9.508,9.508,9.5118,9.5118,9.5118,9.5863,9.6653,9.7618,9.8369,9.9119,9.9916,9.9916,9.9916,9.9916,9.9916,9.9916,9.9916,9.9916,9.9954,10.0068,10.0068,10.0523,10.1492,10.1492,10.2366,10.3847,10.3847,10.4292,10.5039,10.5039,10.5077,10.5267,10.6076,10.643,10.624,10.4531,10.401,10.4113,10.4812,10.5696,10.6392,10.6392,10.6911,10.7746,10.8455,10.872,10.8986,10.9797,11.0062,11.0152,11.0114,11.067,11.1277,11.1277,11.1961,11.2621,11.2621,11.2621,11.2712,11.2712,11.757,12.1916,12.3034,12.8544,12.7955,11.5262,11.8847,12.496,13.1236,13.2871,13.815,14.9635,14.6112,14.5511,15.0814,15.1109,15.1157,15.1206,15.1206,15.1694,15.267,15.267,15.3256,15.433,15.433,15.433,15.433,15.433,15.433,9.013,9.1687,9.2946,9.4662,9.508,9.508,9.508,9.508,9.508,9.508,9.4579,9.4389,9.4966,9.4579,9.4389,9.4966,9.508,9.508,9.508,9.508,9.508,9.508,9.508,9.508,9.508,9.508,9.508,9.508,9.5787,9.6349,9.6653,9.8027,9.89,9.9119,9.9651,9.9916,9.9916,9.9916,9.9916,9.9916,9.9916,9.9916,9.9916,9.9916,10.0106,10.0372,10.0372,10.0761,10.133,10.133,10.1824,10.2583,10.2583,10.3229,10.4189,10.3912,10.4227,10.4531,10.3304,10.3315,10.3809,10.4151,10.4455,10.4797,10.5317,10.5646,10.6026,10.6911,10.7506,10.8075,10.891,10.9138,10.9303,10.9873,11.0214,11.0404,11.0404,11.1087,11.1657,11.1657,11.2165,11.2545,11.2545,11.4395,11.595,11.6315,11.8348,11.8071,11.3167,11.4501,11.6794,11.9186,12.2833,12.8185,13.5901,13.8073,14.1545,14.7551,14.7937,14.8522,14.9986,15.0084,15.0523,15.1597,15.1597,15.1792,15.2182,15.2182,15.2573,15.3256,15.3256,15.3647,8.8156,9.0168,9.211,9.3743,9.4662,9.508,9.508,9.508,9.508,9.508,9.4579,9.4351,9.4966,9.4541,9.4351,9.4966,9.508,9.508,9.508,9.508,9.508,9.508,9.508,9.508,9.508,9.508,9.508,9.508,9.5567,9.6091,9.666,9.7761,9.8597,9.9081,9.9651,9.9916,9.9916,9.9916,9.9916,9.9916,9.9916,9.9916,9.9916,9.9916,9.9916,9.9916,9.9916,9.9916,9.9916,9.9916,10.0258,10.0799,10.0799,10.1482,10.248,10.2165,10.2241,10.248,10.2128,10.248,10.2973,10.3239,10.3353,10.3505,10.433,10.4595,10.4823,10.5962,10.6683,10.7291,10.8037,10.8265,10.8417,10.9037,10.9151,10.9151,10.9151,10.9797,11.0314,11.0314,11.1049,11.171,11.171,11.1938,11.2089,11.2089,11.237,11.237,11.1748,11.1938,11.2829,11.4699,11.6779,12.0826,12.8015,13.0313,13.4723,14.2543,14.3022,14.4462,14.7742,14.7838,14.8327,14.94,14.94,14.9596,15.0035,15.0035,15.0328,15.106,15.1401,15.1987,8.5954,8.8194,9.0358,9.2072,9.3743,9.4966,9.4966,9.4966,9.5004,9.5042,9.508,9.508,9.508,9.508,9.508,9.508,9.508,9.508,9.508,9.508,9.508,9.508,9.508,9.508,9.508,9.508,9.508,9.508,9.508,9.5802,9.7428,9.7542,9.8255,9.9802,9.9916,9.9916,9.9916,9.9916,9.9916,9.9916,9.9916,9.9916,9.9916,9.9916,9.9916,9.9916,9.9916,9.9916,9.9916,9.9916,9.9916,9.9916,9.9916,9.9916,10.003,10.0913,10.0685,10.003,10.0913,10.1264,10.1368,10.2165,10.2431,10.2583,10.3467,10.3733,10.4124,10.5784,10.6278,10.6456,10.7253,10.7481,10.7481,10.7519,10.7519,10.7519,10.7519,10.8075,10.8644,10.8644,10.9341,10.9962,10.9962,11.0594,11.1125,11.1125,11.1862,11.1786,11.019,11.0594,11.3154,11.8568,11.5106,11.674,12.7548,12.359,12.5165,13.597,13.6649,13.9007,14.4236,14.4473,14.496,14.5986,14.5986,14.6571,14.7739,14.7739,14.7739,14.7837,14.8814,14.9351,8.8873,8.9485,8.9523,9.1155,9.237,9.306,9.2408,9.2712,9.3553,9.4814,9.508,9.508,9.508,9.508,9.508,9.508,9.508,9.508,9.508,9.508,9.508,9.508,9.508,9.5263,9.5863,9.5377,9.5263,9.5863,9.5377,9.527,9.5764,9.6896,9.7808,9.8179,9.9309,9.9916,9.9916,9.9916,9.9916,9.9916,9.9916,9.9916,9.9916,9.9916,9.9916,9.9916,9.9916,9.9916,9.9916,9.9916,9.9916,9.9916,9.9916,9.9916,9.9954,10.0182,10.0106,9.9954,10.0182,10.0723,10.134,10.152,10.1606,10.171,10.2545,10.2811,10.3039,10.4189,10.4899,10.5582,10.6418,10.6696,10.6797,10.7367,10.7519,10.7519,10.7519,10.7671,10.786,10.786,10.805,10.8202,10.8202,10.8834,10.9365,10.9365,10.9113,10.8734,10.824,10.8392,10.912,11.0663,10.967,11.1648,11.8441,11.7638,12.1211,13.1684,13.2342,13.496,14.0825,14.1103,14.1594,14.2667,14.2667,14.2814,14.3153,14.3153,14.3592,14.4469,14.5496,14.6374,8.6445,8.7131,8.7663,8.9713,9.032,9.0814,9.2446,9.237,9.2522,9.4662,9.508,9.508,9.508,9.508,9.508,9.508,9.508,9.508,9.508,9.508,9.508,9.508,9.508,9.5225,9.5673,9.5597,9.5749,9.6197,9.6129,9.6098,9.6098,9.7048,9.7732,9.8074,9.8976,9.9575,9.9916,9.9916,9.9916,9.9916,9.9916,9.9916,9.9916,9.9916,9.9916,9.9916,9.9916,9.9916,9.9916,9.9916,9.9916,9.9916,9.9916,9.9916,9.9916,9.9916,9.9916,9.9916,9.9916,10.0258,10.0723,10.0723,10.0723,10.0875,10.171,10.2203,10.2621,10.3543,10.4368,10.5077,10.562,10.5772,10.5886,10.6291,10.6405,10.6405,10.6405,10.6759,10.6987,10.6987,10.7291,10.7519,10.7519,10.7847,10.8037,10.7696,10.7595,10.7519,10.7519,10.7519,10.7519,10.7519,10.7519,10.8709,11.1809,11.2019,11.5353,12.3249,12.3726,12.7057,13.4477,13.4797,13.5993,13.8576,13.8621,13.8621,13.8621,13.8621,13.9008,13.9691,14.1249,14.174,8.1398,8.3069,8.5612,8.7742,8.7739,8.8342,0.0,9.2067,9.115,9.3667,9.4161,9.432,9.4541,9.4662,9.4738,9.5004,9.508,9.508,9.508,9.508,9.508,9.508,9.508,9.5156,9.5346,9.5787,9.6197,9.6501,9.7078,9.7466,9.758,9.7656,9.7989,9.8749,9.8862,9.9195,9.9916,9.9916,9.9916,9.9916,9.9916,9.9916,9.9916,9.9916,9.9916,9.9916,9.9916,9.9916,9.9916,9.9916,9.9916,9.9916,9.9916,9.9916,9.9916,9.9916,9.9916,9.9916,9.9916,9.9916,9.9916,9.9916,9.9916,10.0106,10.0989,10.1824,10.2621,10.3543,10.4368,10.4963,10.4963,10.4963,10.4963,10.4963,10.4963,10.4963,10.4963,10.562,10.6152,10.6152,10.6721,10.7215,10.7215,10.7291,10.7101,10.6266,10.6759,10.7215,10.7215,10.7215,10.7215,10.7215,10.7215,10.7215,10.7215,10.7139,10.9004,11.3533,11.3709,11.7815,12.7162,12.7569,12.9772,13.4436,13.4524,13.4524,13.4524,13.4524,13.4524,13.4622,13.6808,13.6661,0.0,0.0,0.0,0.0,0.0,0.0,0.0,8.6109,8.6673,8.8532,8.8953,8.9557,9.153,9.1909,9.2598,9.4693,9.508,9.508,9.508,9.508,9.508,9.508,9.508,9.5612,9.6934,9.5984,9.6098,9.8103,9.7146,9.6812,9.7542,9.8179,9.8597,9.8749,9.9347,9.9764,9.9916,9.9916,9.9916,9.9916,9.9916,9.9916,9.9916,9.9916,9.9916,9.9916,9.9916,9.9916,9.9916,9.9916,9.9916,9.9916,9.9916,9.9916,9.9916,9.9916,9.9916,9.9916,9.9916,9.9916,9.9916,9.9916,9.9916,10.0106,10.0989,10.1824,10.2621,10.3543,10.4368,10.4963,10.4963,10.4963,10.4963,10.4963,10.4963,10.4963,10.4963,10.5115,10.5229,10.5229,10.5343,10.5457,10.5457,10.6076,10.6228,10.5343,10.5343,10.5457,10.5457,10.5457,10.5457,10.5457,10.5457,10.5457,10.5457,10.4911,10.6598,11.1472,11.116,11.5172,12.4814,12.5214,12.7472,13.2329,13.2415,13.2415,13.2415,13.2415,13.2415,13.2464,13.4568,13.4421,0.0,0.0,0.0,0.0,0.0,0.0,0.0,0.0,0.0,0.0,0.0,8.7849,8.9101,0.0,9.1606,9.2902,9.4199,9.508,9.508,9.508,9.508,9.508,9.508,9.5384,9.6212,9.6288,9.682,9.8065,9.8095,9.8095,9.8141,9.8521,9.8749,9.8749,9.9166,9.9537,9.9916,9.9916,9.9916,9.9916,9.9916,9.9916,9.9916,9.9916,9.9916,9.9916,9.9916,9.9916,9.9916,9.9916,9.9916,9.9916,9.9916,9.9916,9.9916,9.9916,9.9916,9.9916,9.9916,9.9916,9.9916,9.9916,9.9916,9.9992,10.0495,10.1178,10.2014,10.2897,10.3722,10.4481,10.4849,10.4963,10.4849,10.4481,10.4368,10.4254,10.3787,10.3711,10.3711,10.3711,10.4102,10.4368,10.4368,10.4368,10.4254,10.3749,10.4102,10.4368,10.4368,10.4747,10.466,10.3787,10.3711,10.3521,10.3153,10.3115,10.4205,10.6693,10.6057,10.8738,11.5583,11.814,12.1727,12.6565,12.8928,13.017,13.017,13.017,13.017,13.0219,13.183,13.2025,0.0,0.0,0.0,0.0,0.0,0.0,0.0,0.0,0.0,0.0,0.0,0.0,0.0,0.0,0.0,9.1112,9.3364,9.508,9.508,9.508,9.508,9.508,9.508,9.5118,9.5263,9.6364,9.7276,9.777,9.8862,9.9309,9.9014,9.8976,9.8976,9.8976,9.8976,9.9271,9.9916,9.9916,9.9916,9.9916,9.9916,0.0,9.9916,9.9916,9.9916,9.9916,9.9916,9.9916,9.9916,9.9916,9.9916,9.9916,9.9916,9.9916,9.9916,9.9916,9.9916,9.9916,9.9916,9.9916,9.9916,9.9916,9.9916,9.9954,10.0106,10.0685,0.0,10.2241,10.2963,10.3695,10.428,10.447,10.4318,10.3695,10.3543,10.3353,10.2621,10.2469,10.2469,10.2469,10.3049,10.3543,10.3543,10.2925,10.2393,10.2241,10.2973,10.3467,10.3315,10.3988,10.3939,10.2621,10.2469,10.2203,10.152,10.1938,10.2241,10.2241,10.1444,10.2765,10.6707,11.0621,11.5349,12.111,12.4918,12.7431,12.8469,12.8469,12.8469,12.8469,12.8364,12.8699,0.0,0.0,0.0,0.0,0.0,0.0,0.0,0.0,0.0,0.0,0.0,0.0,0.0,0.0,0.0,0.0,9.3364,9.508,9.508,9.508,9.508,9.508,9.508,9.5339,9.6008,9.5643,9.625,9.8445,9.815,9.8407,9.9727,9.9802,0.0,0.0,0.0,9.984,9.9916,9.9916,9.9916,9.9916,9.9916,9.9916,9.9916,9.9916,9.9916,9.9916,9.9916,9.9916,9.9916,9.9916,9.9916,9.9916,9.9916,9.9916,9.9916,9.9916,9.9916,9.9916,9.9916,0.0,0.0,9.9916,9.9916,10.0068,10.0875,10.1226,10.1406,10.2241,10.2545,10.2621,10.2686,10.2735,10.2735,10.2621,10.2583,10.2583,10.2469,10.2469,10.2469,10.2469,10.2545,10.2583,10.2583,10.2545,10.2203,10.1482,10.209,10.2355,10.1644,10.2241,10.2659,10.2469,10.2469,0.0,10.2317,10.1748,10.1416,10.1416,10.0523,10.1872,10.5902,10.6586,11.1118,12.0133,12.0814,12.3492,12.8469,12.8469,12.8469,12.8371,12.3776,12.3142,0.0,0.0,0.0,0.0,0.0,0.0,0.0,0.0,0.0,0.0,0.0,0.0,0.0,0.0,0.0,0.0,9.1155,9.2788,9.2788,9.4085,9.508,9.508,9.508,9.5194,9.5484,9.5635,9.6167,9.7184,9.7913,9.8559,9.9195,9.9689,9.9916,9.9916,9.9916,9.9916,9.9916,9.9916,9.9916,9.9916,9.9916,9.9916,9.9916,9.9916,9.9916,9.9916,9.9916,9.9916,9.9916,9.9916,9.9916,9.9916,0.0,0.0,0.0,0.0,9.9916,9.9916,9.9916,9.9916,9.9916,9.9916,9.9916,9.9992,10.0334,10.0448,10.0685,10.152,10.209,10.2583,10.3125,10.3239,10.3125,10.2583,10.209,10.1596,10.1055,10.0979,10.0979,10.0979,10.1406,0.0,10.1055,10.0979,10.0865,10.0523,10.1216,10.1634,10.134,10.1938,10.209,10.1055,10.0979,10.0789,10.0343,10.0419,0.0,0.0,0.0,10.1213,10.2391,10.2444,0.0,0.0,0.0,11.8719,12.5777,12.1954,0.0,0.0,12.0598,12.1141,0.0,0.0,0.0,0.0,0.0,0.0,0.0,0.0,0.0,0.0,0.0,0.0,0.0,0.0,0.0,0.0,8.9101,9.0961,9.0278,9.237,9.3743,9.306,9.4161,9.4776,9.4047,9.5142,9.6084,9.6539,9.7488,9.8255,9.8749,9.9271,9.9613,9.9613,9.9802,9.9916,9.9916,9.9916,9.9916,9.9916,9.9916,9.9916,9.9916,9.9916,9.9916,9.9916,9.9916,9.9916,9.9916,9.9916,9.9916,9.9916,9.9916,9.9916,9.9916,9.9916,9.9916,9.9916,9.9916,9.9916,9.9916,9.9916,9.9916,9.9916,9.9916,9.9916,10.0068,10.0723,10.133,10.19,10.2594,10.2746,10.2545,10.19,10.133,10.0723,10.0068,9.9916,9.9916,9.9916,10.041,10.0685,10.003,9.9916,9.984,9.9613,10.0343,10.0799,10.0618,10.1254,10.1282,10.0068,9.9916,9.9689,9.9081,9.9385,9.9689,9.9916,10.0343,10.0381,9.9954,9.9727,10.2873,10.986,11.1354,11.4757,0.0,0.0,0.0,0.0,0.0,0.0,0.0,0.0,0.0,0.0,0.0,0.0,0.0,0.0,0.0,0.0,0.0,0.0,0.0,0.0,0.0,0.0,0.0,0.0,8.7925,8.9746,9.0391,8.8001,9.2072,9.4047,9.153,9.3591,9.5757,9.7428,9.6729,9.6994,9.8673,9.8787,9.8787,9.8787,9.9537,9.9916,9.9916,9.9916,9.9916,9.9916,9.9916,9.9916,9.9916,9.9916,9.9916,9.9916,9.9916,9.9916,9.9916,9.9916,9.9916,9.9916,9.9916,9.9916,9.9916,9.9916,9.9916,9.9916,9.9916,9.9916,9.9916,9.9916,9.9916,9.9916,9.9916,9.9916,9.9916,9.9954,9.9992,9.9992,10.003,10.003,10.003,9.9992,9.9992,9.9954,9.9916,9.9916,9.9916,9.9916,9.9954,9.9954,9.9916,9.9916,9.9651,9.89,9.9423,0.0,9.8938,9.9499,9.9992,9.9916,9.9916,9.9916,9.9878,9.9242,9.9128,9.9878,9.9195,9.9119,9.9878,9.9204,9.8927,9.9253,10.8229,11.2278,11.1039,0.0,0.0,0.0,0.0,0.0,0.0,0.0,0.0,0.0,0.0,0.0,0.0,0.0,0.0,0.0,0.0,0.0,0.0,0.0,0.0,0.0,0.0,0.0,0.0,8.819,9.0278,8.7773,9.0429,9.1497,8.8987,9.0961,9.2712,9.3275,9.5135,9.6463,9.7032,9.7648,9.7951,9.7951,9.8217,9.8635,9.9119,9.9119,9.9385,9.9916,9.9916,9.9916,9.9916,9.9916,9.9916,9.9916,9.9916,9.9916,9.9916,9.9916,9.9916,9.9916,9.9916,9.9916,9.9916,9.9916,9.9916,9.9916,9.9916,9.9916,9.9916,9.9916,9.9916,9.9916,9.9916,9.9916,9.9916,9.9916,10.0334,10.0799,10.0799,10.0799,10.0799,10.0799,10.0334,9.9916,9.9916,9.9916,9.9916,9.9916,9.909,9.8369,9.8369,9.9195,9.9461,9.8141,9.909,9.984,9.9537,9.9764,9.9916,9.9916,9.9916,9.9916,9.9916,9.9689,9.9651,9.9916,9.9689,9.9651,9.9916,9.9651,9.9537,9.9537,10.5817,10.5592,9.8625,0.0,0.0,0.0,0.0,0.0,0.0,0.0,0.0,0.0,0.0,0.0,0.0,0.0,0.0,0.0,0.0,0.0,0.0,0.0,0.0,0.0,0.0,0.0,0.0,0.0,0.0,8.7735,8.967,0.0,8.7697,8.8911,8.9974,9.0278,9.2061,9.3769,9.5249,9.5863,9.663,9.7542,9.7884,9.8065,9.8331,9.8331,9.8749,9.9499,9.9195,9.9195,9.9499,9.9195,9.9233,9.9499,9.9499,9.9651,9.9916,9.9916,9.9423,9.8588,9.8588,9.8057,9.7374,9.8285,9.8588,9.874,9.9613,9.9916,9.9802,9.8892,9.7981,9.7412,9.8322,9.7981,9.745,9.836,9.9006,9.966,10.0571,10.0799,10.0799,10.0799,10.0334,9.9916,9.9916,9.9461,9.9233,9.9802,9.9081,9.8217,9.7694,9.8407,9.8749,9.7732,9.8445,9.9271,9.984,9.9916,9.9916,9.9916,9.9916,9.9916,9.9916,9.9916,9.9802,9.9499,9.9499,9.9347,9.9081,9.9043,9.8825,9.8217,10.093,9.9756,0.0,0.0,0.0,0.0,0.0,0.0,0.0,0.0,0.0,0.0,0.0,0.0,0.0,0.0,0.0,0.0,0.0,0.0,0.0,0.0,0.0,0.0,0.0,0.0,0.0,0.0,0.0,8.7356,8.9253,0.0,0.0,0.0,0.0,8.8502,8.789,8.9215,9.3206,9.3395,9.4572,9.72,9.8027,9.8141,9.758,9.758,9.7951,9.8749,9.796,9.7951,9.8749,9.7951,9.8065,9.8825,9.8825,9.9195,9.9916,9.9764,9.8285,9.6159,9.597,9.4496,9.268,9.5021,9.5932,9.6273,9.8778,9.9689,9.9271,9.6918,9.4572,9.3016,9.5249,9.4269,0.0,0.0,9.5932,9.6539,9.9043,9.9689,9.9764,9.9878,9.9916,9.9916,9.9916,9.8749,9.8065,9.9461,9.9689,9.9081,9.7504,0.0,9.7352,9.7276,9.7466,9.8103,9.9613,9.9878,9.9916,9.9878,9.9878,9.984,9.9802,9.9802,9.9461,9.8749,9.8711,9.8331,9.7618,9.7504,9.6668,9.5042,9.4041,0.0,0.0,0.0,0.0,0.0,0.0,0.0,0.0,0.0,0.0,0.0,0.0,0.0,0.0,0.0,0.0,0.0,0.0,0.0,0.0,0.0,0.0,0.0,0.0,0.0,0.0,8.136,8.269,8.2841,8.341,8.303,0.0,0.0,0.0,0.0,0.0,0.0,8.9025,8.9063,9.0202,9.2706,9.3661,9.5263,9.758,9.758,9.7951,9.8749,9.796,9.7951,9.8749,9.8521,9.89,9.9613,9.9613,9.9727,9.9727,9.726,9.5939,9.5059,9.2598,9.1231,9.07,9.1383,9.1611,9.2067,9.5225,9.6288,9.6212,9.5567,9.4921,9.4047,9.2143,0.0,0.0,0.0,0.0,9.3048,9.5643,9.6736,9.7639,9.9499,9.9916,9.9916,9.9916,9.9613,9.8892,9.745,9.6159,9.4572,9.2332,9.3471,0.0,9.2972,9.5522,9.7732,9.8103,9.9157,9.9689,9.9128,9.9006,9.8825,9.8217,9.8179,9.8065,9.7922,9.7884,9.7808,9.758,9.6364,9.5149,9.4041,0.0,0.0,0.0,0.0,0.0,0.0,0.0,0.0,0.0,0.0,0.0,0.0,0.0,0.0,0.0,0.0,0.0,0.0,0.0,0.0,0.0,0.0,0.0,0.0,0.0,0.0,0.0,7.8855,8.1057,8.2234,8.1437,8.0487,0.0,0.0,0.0,0.0,0.0,0.0,0.0,0.0,0.0,9.0092,9.0667,9.1654,9.313,9.4231,9.537,9.6547,9.685,9.761,9.8749,9.8407,9.8673,9.9385,9.9385,9.8778,9.7639,9.5787,9.3553,9.1042,0.0,0.0,0.0,0.0,8.8384,8.8802,9.1806,9.2832,9.2642,9.1578,0.0,0.0,0.0,0.0,0.0,0.0,0.0,9.1758,9.4351,9.6433,9.8209,9.9575,9.9916,9.9916,9.9916,9.7639,9.5135,9.3769,9.2706,9.1535,8.9789,0.0,0.0,0.0,0.0,9.6129,9.6888,9.836,9.9081,9.8331,9.8217,9.8074,9.7618,9.758,9.7428,9.7002,9.7002,9.6471,9.5415,9.4041,9.2408,0.0,0.0,0.0,0.0,0.0,0.0,0.0,0.0,0.0,0.0,0.0,0.0,0.0,0.0,0.0,0.0,0.0,0.0,0.0,0.0,0.0,0.0,0.0,0.0,0.0,0.0,0.0,0.0,0.0,8.0867,8.2576,0.0,0.0,0.0,0.0,0.0,0.0,0.0,0.0,0.0,0.0,0.0,0.0,0.0,8.7966,8.7659,8.9784,9.1568,9.3054,9.4414,9.5894,9.742,9.6744,9.7078,9.8217,9.7799,0.0,9.48,9.4047,0.0,0.0,0.0,0.0,0.0,0.0,0.0,0.0,0.0,0.0,0.0,0.0,0.0,0.0,0.0,0.0,0.0,0.0,0.0,0.0,0.0,0.0,9.874,9.8626,9.893,9.9157,9.8702,9.4072,8.9903,8.9561,8.9523,8.9181,0.0,0.0,0.0,0.0,0.0,0.0,9.5552,9.742,9.8293,9.7504,9.7428,9.739,9.7276,9.7238,9.6888,9.6122,9.5856,9.4724,9.2452,9.1497,0.0,0.0,0.0,0.0,0.0,0.0,0.0,0.0,0.0,0.0,0.0,0.0,0.0,0.0,0.0,0.0,0.0,0.0,0.0,0.0,0.0,0.0,0.0,0.0,0.0,0.0,0.0,0.0,0.0,0.0,0.0,0.0,0.0,0.0,0.0,0.0,0.0,0.0,0.0,0.0,0.0,0.0,0.0,0.0,0.0,0.0,0.0,0.0,0.0,0.0,8.9219,8.9561,9.0553,9.0439,9.23,9.5529,9.2712,9.2446,9.3547,8.8688,0.0,0.0,0.0,0.0,0.0,0.0,0.0,0.0,0.0,0.0,0.0,0.0,0.0,0.0,0.0,0.0,0.0,0.0,0.0,0.0,0.0,0.0,9.2554,9.1871,9.3895,9.5149,9.2332,0.0,0.0,0.0,0.0,0.0,0.0,0.0,0.0,0.0,0.0,0.0,9.3092,9.587,9.742,9.6539,9.6463,9.6205,9.5529,9.5498,9.5415,9.5263,9.3971,9.2636,0.0,0.0,0.0,0.0,0.0,0.0,0.0,0.0,0.0,0.0,0.0,0.0,0.0,0.0,0.0,0.0,0.0,0.0,0.0,0.0,0.0,0.0,0.0,0.0,0.0,0.0,0.0,0.0,0.0,0.0,0.0,0.0,0.0,0.0,0.0,0.0,0.0,0.0,0.0,0.0,0.0,0.0,0.0,0.0,0.0,0.0,0.0,0.0,0.0,0.0,0.0,0.0,0.0,0.0,0.0,0.0,0.0,0.0,8.9067,8.671,0.0,0.0,0.0,0.0,0.0,0.0,0.0,0.0,0.0,0.0,0.0,0.0,0.0,0.0,0.0,0.0,0.0,0.0,0.0,0.0,0.0,0.0,0.0,0.0,0.0,0.0,0.0,0.0,0.0,0.0,0.0,0.0,0.0,0.0,0.0,0.0,0.0,0.0,0.0,0.0,9.1763,9.48,9.6547,9.5673,9.5597,9.5491,9.508,9.508,9.47,9.3781,9.2522,0.0,0.0,0.0,0.0,0.0,0.0,0.0,0.0,0.0,0.0,0.0,0.0,0.0,0.0,0.0,0.0,0.0,0.0,0.0,0.0,0.0,0.0,0.0,0.0,0.0,0.0,0.0,0.0,0.0,0.0,0.0,0.0,0.0,0.0,0.0,0.0,0.0,0.0,0.0,0.0,0.0,0.0,0.0,0.0,0.0,0.0,0.0,0.0,0.0,0.0,0.0,0.0,0.0,0.0,0.0,0.0,0.0,0.0,0.0,8.4737,8.1132,0.0,0.0,0.0,0.0,0.0,0.0,0.0,0.0,0.0,0.0,0.0,0.0,0.0,0.0,0.0,0.0,0.0,0.0,0.0,0.0,0.0,0.0,0.0,0.0,0.0,0.0,0.0,0.0,0.0,0.0,0.0,0.0,0.0,0.0,0.0,0.0,0.0,0.0,0.0,0.0,9.0581,9.3769,9.5749,9.5073,9.508,9.508,9.508,9.508,9.4282,9.2332,9.1226,0.0,0.0,0.0,0.0,0.0,0.0,0.0,0.0,0.0,0.0,0.0,0.0,0.0,0.0,0.0,0.0,0.0,0.0,0.0,0.0,0.0,0.0,0.0,0.0,0.0,0.0,0.0,0.0,0.0,0.0,0.0,0.0,0.0,0.0,0.0,0.0,0.0,0.0,0.0,0.0,0.0,0.0,0.0,0.0,0.0,0.0,0.0,0.0,0.0,0.0,0.0,0.0,0.0,0.0,0.0,0.0,0.0,0.0,0.0,0.0,0.0,0.0,0.0,0.0,0.0,0.0,0.0,0.0,0.0,0.0,0.0,0.0,0.0,0.0,0.0,0.0,0.0,0.0,0.0,0.0,0.0,0.0,0.0,0.0,0.0,0.0,0.0,0.0,0.0,0.0,0.0,0.0,0.0,0.0,0.0,0.0,0.0,0.0,0.0,0.0,0.0,8.9033,9.2604,9.5156,9.508,9.508,9.508,9.508,9.508,9.3971,9.1454,0.0,0.0,0.0,0.0,0.0,0.0,0.0,0.0,0.0,0.0,0.0,0.0,0.0,0.0,0.0,0.0,0.0,0.0,0.0,0.0,0.0,0.0,0.0,0.0,0.0,0.0,0.0,0.0,0.0,0.0,0.0,0.0,0.0,0.0,0.0,0.0,0.0,0.0,0.0,0.0,0.0,0.0,0.0,0.0,0.0,0.0,0.0,0.0,0.0,0.0,0.0,0.0,0.0,0.0,0.0,0.0,0.0,0.0,0.0,0.0,0.0,0.0,0.0,0.0,0.0,0.0,0.0,0.0,0.0,0.0,0.0,0.0,0.0,0.0,0.0,0.0,0.0,0.0,0.0,0.0,0.0,0.0,0.0,0.0,0.0,0.0,0.0,0.0,0.0,0.0,0.0,0.0,0.0,0.0,0.0,0.0,0.0,0.0,0.0,0.0,0.0,0.0,8.8768,9.2452,9.508,9.508,9.508,9.508,9.508,9.508,9.3516,8.9979,0.0,0.0,0.0,0.0,0.0,0.0,0.0,0.0,0.0,0.0,0.0,0.0,0.0,0.0,0.0,0.0,0.0,0.0,0.0,0.0,0.0,0.0,0.0,0.0,0.0,0.0,0.0,0.0,0.0,0.0,0.0,0.0,0.0,0.0,0.0,0.0,0.0,0.0,0.0,0.0,0.0,0.0,0.0,0.0,0.0,0.0,0.0,0.0,0.0,0.0,0.0,0.0,0.0,0.0,0.0,0.0,0.0,0.0,0.0,0.0,0.0,0.0,0.0,0.0,0.0,0.0,0.0,0.0,0.0,0.0,0.0,0.0,0.0,0.0,0.0,0.0,0.0,0.0,0.0,0.0,0.0,0.0,0.0,0.0,0.0,0.0,0.0,0.0,0.0,0.0,0.0,0.0,0.0,0.0,0.0,0.0,0.0,0.0,0.0,0.0,0.0,0.0,8.8346,9.23,9.508,9.508,9.508,9.508,9.508,9.508,9.318,8.873,0.0,0.0,0.0,0.0,0.0,0.0,0.0,0.0,0.0,0.0,0.0,0.0,0.0,0.0,0.0,0.0,0.0,0.0,0.0,0.0,0.0,0.0,0.0,0.0,0.0,0.0,0.0,0.0,0.0,0.0,0.0,0.0,0.0,0.0,0.0,0.0,0.0,0.0,0.0,0.0,0.0,0.0,0.0,0.0,0.0,0.0,0.0,0.0,0.0,0.0,0.0,0.0,0.0,0.0,0.0,0.0,0.0,0.0,0.0,0.0,0.0,0.0,0.0,0.0,0.0,0.0,0.0,0.0,0.0,0.0,0.0,0.0,0.0,0.0,0.0,0.0,0.0,0.0,0.0,0.0,0.0,0.0,0.0,0.0,0.0,0.0,0.0,0.0,0.0,0.0,0.0,0.0,0.0,0.0,0.0,0.0,0.0,0.0,0.0,0.0,0.0,0.0,8.7507,9.192,9.508,9.508,9.508,9.508,9.508,9.508,9.2908,0.0,0.0,0.0,0.0,0.0,0.0,0.0,0.0,0.0,0.0,0.0,0.0,0.0,0.0,0.0,0.0,0.0,0.0,0.0,0.0,0.0,0.0,0.0,0.0,0.0,0.0,0.0,0.0,0.0,0.0,0.0,0.0,0.0,0.0,0.0,0.0,0.0,0.0,0.0,0.0,0.0,0.0,0.0,0.0,0.0,0.0,0.0,0.0,0.0,0.0,0.0,0.0,0.0,0.0,0.0,0.0,0.0,0.0,0.0,0.0,0.0,0.0,0.0,0.0,0.0,0.0,0.0,0.0,0.0,0.0,0.0,0.0,0.0,0.0,0.0,0.0,0.0,0.0,0.0,0.0,0.0,0.0,0.0,0.0,0.0,0.0,0.0,0.0,0.0,0.0,0.0,0.0,0.0,0.0,0.0,0.0,0.0,0.0,0.0,0.0,0.0,0.0,0.0,8.7242,9.0353,9.3092,0.0,9.508,9.508,9.508,9.508,9.287,8.7811,0.0,0.0,0.0,0.0,0.0,0.0,0.0,0.0,0.0,0.0,0.0,0.0,0.0,0.0,0.0,0.0,0.0,0.0,0.0,0.0,0.0,0.0,0.0,0.0,0.0,0.0,0.0,0.0,0.0,0.0,0.0,0.0,0.0,0.0,0.0,0.0,0.0,0.0,0.0,0.0,0.0,0.0,0.0,0.0,0.0,0.0,0.0,0.0,0.0,0.0,0.0,0.0,0.0,0.0,0.0,0.0,0.0,0.0,0.0,0.0,0.0,0.0,0.0,0.0,0.0,0.0,0.0,0.0,0.0,0.0,0.0,0.0,0.0,0.0,0.0,0.0,0.0,0.0,0.0,0.0,0.0,0.0,0.0,0.0,0.0,0.0,0.0,0.0,0.0,0.0,0.0,0.0,0.0,0.0,0.0,0.0,0.0,0.0,0.0,0.0,0.0,0.0,0.0,9.0467,9.3244,0.0,9.508,9.508,9.508,9.508,9.287,8.7811,0.0,0.0,0.0,0.0,0.0,0.0,0.0,0.0,0.0,0.0,0.0,0.0,0.0,0.0,0.0,0.0,0.0,0.0,0.0,0.0,0.0,0.0,0.0,0.0,0.0,0.0,0.0,0.0,0.0,0.0,0.0,0.0,0.0,0.0,0.0,0.0,0.0,0.0,0.0,0.0,0.0,0.0,0.0,0.0,0.0,0.0,0.0,0.0,0.0,0.0,0.0,0.0,0.0,0.0,0.0,0.0,0.0,0.0,0.0,0.0,0.0,0.0,0.0,0.0,0.0,0.0,0.0,0.0,0.0,0.0,0.0,0.0,0.0,0.0,0.0,0.0,0.0,0.0,0.0,0.0,0.0,0.0,0.0,0.0,0.0,0.0,0.0,0.0,0.0,0.0,0.0,0.0,0.0,0.0,0.0,0.0,0.0,0.0,0.0,0.0,0.0,0.0,0.0,9.1573,9.4662,9.5042,9.508,9.508,9.508,9.508,9.287,8.7811,8.7431,0.0,0.0,0.0,0.0,0.0,0.0,0.0,0.0,0.0,0.0,0.0,0.0,0.0,0.0,0.0,0.0,0.0,0.0,0.0,0.0,0.0,0.0,0.0,0.0,0.0,0.0,0.0,0.0,0.0,0.0,0.0,0.0,0.0,0.0,0.0,0.0,0.0,0.0,0.0,0.0,0.0,0.0,0.0,0.0,0.0,0.0,0.0,0.0,0.0,0.0,0.0,0.0,0.0,0.0,0.0,0.0,0.0,0.0,0.0,0.0,0.0,0.0,0.0,0.0,0.0,0.0,0.0,0.0,0.0,0.0,0.0,0.0,0.0,0.0,0.0,0.0,0.0,0.0,0.0,0.0,0.0,0.0,0.0,0.0,0.0,0.0,0.0,0.0,0.0,0.0,0.0,0.0,0.0,0.0,0.0,0.0,0.0,0.0,0.0,0.0,0.0,0.0,8.8494,9.0738,9.4662,9.508,9.508,9.508,9.508,9.287,8.7811,8.69,0.0,0.0,0.0,0.0,0.0,0.0,0.0,0.0,0.0,0.0,0.0,0.0,0.0,0.0,0.0,0.0,0.0,0.0,0.0,0.0,0.0,0.0,0.0,0.0,0.0,0.0,0.0,0.0,0.0,0.0,0.0,0.0,0.0,0.0,0.0,0.0,0.0,0.0,0.0,0.0,0.0,0.0,0.0,0.0,0.0,0.0,0.0,0.0,0.0,0.0,0.0,0.0,0.0,0.0,0.0,0.0,0.0,0.0,0.0,0.0,0.0,0.0,0.0,0.0,0.0,0.0,0.0,0.0,0.0,0.0,0.0,0.0,0.0,0.0,0.0,0.0,0.0,0.0,0.0,0.0,0.0,0.0,0.0,0.0,0.0,0.0,0.0,0.0,0.0,0.0,0.0,0.0,0.0,0.0,0.0,0.0,0.0,0.0,0.0,0.0,0.0,0.0,8.6748,8.9405,9.4548,9.508,9.508,9.508,9.508,9.287,8.7811,8.6372,0.0,0.0,0.0,0.0,0.0,0.0,0.0,0.0,0.0,0.0,0.0,0.0,0.0,0.0,0.0,0.0,0.0,0.0,0.0,0.0,0.0,0.0,0.0,0.0,0.0,0.0,0.0,0.0,0.0,0.0,0.0,0.0,0.0,0.0,0.0,0.0,0.0,0.0,0.0,0.0,0.0,0.0,0.0,0.0,0.0,0.0,0.0,0.0,0.0,0.0,0.0,0.0,0.0,0.0,0.0,0.0,0.0,0.0,0.0,0.0,0.0,0.0,0.0,0.0,0.0,0.0,0.0,0.0,0.0,0.0,0.0,0.0,0.0,0.0,0.0,0.0,0.0,0.0,0.0,0.0,0.0,0.0,0.0,0.0,0.0,0.0,0.0,0.0,0.0,0.0,0.0,0.0,0.0,0.0,0.0,0.0,0.0,0.0,0.0,0.0,0.0,0.0,0.0,8.9181,9.3636,9.4883,9.5346,9.508,9.5194,9.2984,8.7621,0.0,0.0,0.0,0.0,0.0,0.0,0.0,0.0,0.0,0.0,0.0,0.0,0.0,0.0,0.0,0.0,0.0,0.0,0.0,0.0,0.0,0.0,0.0,0.0,0.0,0.0,0.0,0.0,0.0,0.0,0.0,0.0,0.0,0.0,0.0,0.0,0.0,0.0,0.0,0.0,0.0,0.0,0.0,0.0,0.0,0.0,0.0,0.0,0.0,0.0,0.0,0.0,0.0,0.0,0.0,0.0,0.0,0.0,0.0,0.0,0.0,0.0,0.0,0.0,0.0,0.0,0.0,0.0,0.0,0.0,0.0,0.0,0.0,0.0,0.0,0.0,0.0,0.0,0.0,0.0,0.0,0.0,0.0,0.0,0.0,0.0,0.0,0.0,0.0,0.0,0.0,0.0,0.0,0.0,0.0,0.0,0.0,0.0,0.0,0.0,0.0,0.0,0.0,0.0,0.0,8.9641,9.4237,9.6592,9.5194,9.5635,9.3275,8.6903,0.0,0.0,0.0,0.0,0.0,0.0,0.0,0.0,0.0,0.0,0.0,0.0,0.0,0.0]}]]]